[[{"header":{"parameterUnit":"m.s-1","parameterCategory":1,"la1":30.6,"la2":29.2853,"lo1":-89.7004,"lo2":-87.6739,"dy":0.0162,"dx":0.0183,"nx":112,"ny":82,"refTime":"2023-05-23T12:00:00:Z","depth":0,"parameterNumber":2,"parameterNumberName":"U-component_of_WINDS"},"data":[0.0,0.0,0.0,0.0,0.0,0.0,0.0,0.0,0.0,0.0,0.0,0.0,0.0,0.0,0.0,0.0,0.0,0.0,0.0,0.0,0.0,0.0,0.0,0.0,0.0,0.0,0.0,0.0,0.0,0.0,0.0,0.0,0.0,0.0,0.0,0.0,0.0,0.0,0.0,0.0,0.0,0.0,0.0,0.0,0.0,0.0,0.0,0.0,0.0,0.0,0.0,0.0,0.0,0.0,0.0,0.0,0.0,0.0,0.0,0.0,0.0,0.0,0.0,0.0,0.0,0.0,0.0,0.0,0.0,0.0,0.0,0.0,0.0,0.0,0.0,0.0,0.0,0.0,0.0,0.0,0.0,0.0,0.0,0.0,0.0,0.0,0.0,0.0,0.0,0.0,-1.1521,-1.277,-1.442,-1.5416,-1.5416,-1.5171,-1.3726,-1.0721,0.0,0.0,0.0,0.0,0.0,0.0,0.0,0.0,0.0,0.0,0.0,0.0,0.0,0.0,0.0,0.0,0.0,0.0,0.0,0.0,0.0,0.0,0.0,0.0,0.0,0.0,0.0,0.0,0.0,0.0,0.0,0.0,0.0,0.0,0.0,0.0,0.0,0.0,0.0,0.0,0.0,0.0,0.0,0.0,0.0,0.0,0.0,0.0,0.0,0.0,0.0,0.0,0.0,0.0,0.0,0.0,0.0,0.0,0.0,0.0,0.0,0.0,0.0,0.0,0.0,0.0,0.0,0.0,0.0,0.0,0.0,0.0,0.0,0.0,0.0,0.0,0.0,0.0,0.0,0.0,0.0,0.0,0.0,0.0,0.0,0.0,0.0,0.0,0.0,0.0,0.0,0.0,0.0,0.0,0.0,0.0,0.0,0.0,0.0,0.0,0.0,0.0,0.0,0.0,-1.5746,-1.8531,-1.9226,-1.9509,-1.9509,-1.814,-1.6814,-1.5652,0.0,0.0,0.0,0.0,0.0,0.0,0.0,0.0,0.0,0.0,0.0,0.0,0.0,0.0,0.0,0.0,0.0,0.0,0.0,0.0,0.0,0.0,0.0,0.0,0.0,0.0,0.0,0.0,0.0,0.0,0.0,0.0,0.0,0.0,0.0,0.0,0.0,0.0,0.0,0.0,0.0,0.0,0.0,0.0,0.0,0.0,0.0,0.0,0.0,0.0,0.0,0.0,0.0,0.0,0.0,0.0,0.0,0.0,0.0,0.0,0.0,0.0,0.0,0.0,0.0,0.0,0.0,0.0,0.0,0.0,0.0,0.0,0.0,0.0,0.0,0.0,0.0,0.0,0.0,0.0,0.0,0.0,0.0,0.0,0.0,0.0,0.0,0.0,0.0,0.0,0.0,0.0,0.0,0.0,0.0,0.0,0.0,0.0,0.0,0.0,0.0,0.0,0.0,-1.7584,-1.9297,-2.182,-2.2189,-2.2376,-2.2641,-2.195,-2.0946,-1.9717,-1.6252,0.0,0.0,0.0,0.0,0.0,0.0,0.0,0.0,0.0,0.0,0.0,0.0,0.0,0.0,0.0,0.0,0.0,0.0,0.0,0.0,0.0,0.0,0.0,0.0,0.0,0.0,0.0,0.0,0.0,0.0,0.0,0.0,0.0,0.0,0.0,0.0,0.0,0.0,0.0,0.0,0.0,0.0,0.0,0.0,0.0,0.0,0.0,0.0,0.0,0.0,0.0,0.0,0.0,0.0,0.0,0.0,0.0,0.0,0.0,0.0,0.0,0.0,0.0,0.0,0.0,0.0,0.0,0.0,0.0,0.0,0.0,0.0,0.0,0.0,0.0,0.0,0.0,0.0,0.0,0.0,0.0,0.0,0.0,0.0,0.0,0.0,0.0,0.0,0.0,0.0,0.0,0.0,0.0,0.0,0.0,0.0,0.0,0.0,0.0,0.0,0.0,0.0,-2.1156,-2.2072,-2.3879,-2.4349,-2.4684,-2.5121,-2.5285,-2.4849,-2.3534,-2.2786,0.0,0.0,0.0,0.0,0.0,0.0,0.0,0.0,0.0,0.0,0.0,0.0,0.0,0.0,0.0,0.0,0.0,0.0,0.0,0.0,0.0,0.0,0.0,0.0,0.0,0.0,0.0,0.0,0.0,0.0,0.0,0.0,0.0,0.0,0.0,0.0,0.0,0.0,0.0,0.0,0.0,0.0,0.0,0.0,0.0,0.0,0.0,0.0,0.0,0.0,0.0,0.0,0.0,0.0,0.0,0.0,0.0,0.0,0.0,0.0,0.0,0.0,0.0,0.0,0.0,0.0,0.0,0.0,0.0,0.0,0.0,0.0,0.0,0.0,0.0,0.0,0.0,0.0,0.0,0.0,0.0,0.0,0.0,0.0,0.0,0.0,0.0,0.0,0.0,0.0,0.0,0.0,0.0,0.0,0.0,0.0,0.0,0.0,0.0,0.0,0.0,0.0,-2.3275,-2.37,-2.4814,-2.5973,-2.6701,-2.6735,-2.7313,-2.7604,-2.7479,-2.7433,0.0,0.0,0.0,0.0,0.0,0.0,0.0,0.0,0.0,0.0,0.0,0.0,0.0,0.0,0.0,0.0,0.0,0.0,0.0,0.0,0.0,0.0,0.0,0.0,0.0,0.0,0.0,0.0,0.0,0.0,0.0,0.0,0.0,0.0,0.0,0.0,0.0,0.0,0.0,0.0,0.0,0.0,0.0,0.0,0.0,0.0,0.0,0.0,0.0,0.0,0.0,0.0,0.0,0.0,0.0,0.0,0.0,0.0,0.0,0.0,0.0,0.0,0.0,0.0,0.0,0.0,0.0,0.0,0.0,0.0,0.0,0.0,0.0,0.0,0.0,0.0,0.0,0.0,0.0,0.0,0.0,0.0,0.0,0.0,0.0,0.0,0.0,0.0,0.0,0.0,0.0,0.0,0.0,0.0,0.0,0.0,0.0,0.0,0.0,0.0,0.0,0.0,-2.4898,-2.5134,-2.5965,-2.6875,-2.7518,-2.7887,-2.8497,-2.8898,-2.8898,0.0,0.0,0.0,0.0,0.0,0.0,0.0,0.0,0.0,0.0,0.0,0.0,0.0,0.0,0.0,0.0,0.0,0.0,0.0,0.0,0.0,0.0,0.0,0.0,0.0,0.0,0.0,0.0,0.0,0.0,0.0,0.0,0.0,0.0,0.0,0.0,0.0,0.0,0.0,0.0,0.0,0.0,0.0,0.0,0.0,0.0,0.0,0.0,0.0,0.0,0.0,0.0,0.0,0.0,0.0,0.0,0.0,0.0,0.0,0.0,0.0,0.0,0.0,0.0,0.0,0.0,0.0,0.0,0.0,0.0,0.0,0.0,0.0,0.0,0.0,0.0,0.0,0.0,0.0,0.0,0.0,0.0,0.0,0.0,0.0,0.0,0.0,0.0,0.0,0.0,0.0,0.0,0.0,0.0,0.0,0.0,0.0,0.0,0.0,0.0,0.0,0.0,-2.6082,-2.6013,-2.6129,-2.6645,-2.7657,-2.8414,-2.8776,-2.9611,-3.0133,-3.0133,0.0,0.0,0.0,0.0,0.0,0.0,0.0,0.0,0.0,0.0,0.0,0.0,0.0,0.0,0.0,0.0,0.0,0.0,0.0,0.0,0.0,0.0,0.0,0.0,0.0,0.0,0.0,0.0,0.0,0.0,0.0,0.0,0.0,0.0,0.0,0.0,0.0,0.0,0.0,0.0,0.0,0.0,0.0,0.0,0.0,0.0,0.0,0.0,0.0,0.0,0.0,0.0,0.0,0.0,0.0,0.0,0.0,0.0,0.0,0.0,0.0,0.0,0.0,0.0,0.0,0.0,0.0,0.0,0.0,0.0,0.0,0.0,0.0,0.0,0.0,0.0,0.0,0.0,0.0,0.0,0.0,0.0,0.0,0.0,0.0,0.0,0.0,0.0,0.0,0.0,0.0,0.0,0.0,0.0,0.0,0.0,0.0,0.0,0.0,0.0,0.0,0.0,-2.6645,-2.6714,-2.6714,-2.6714,-2.8395,-2.9504,-2.9504,-3.0748,-3.1511,0.0,0.0,0.0,0.0,0.0,0.0,0.0,0.0,0.0,0.0,0.0,0.0,0.0,0.0,0.0,0.0,0.0,0.0,0.0,0.0,0.0,0.0,0.0,0.0,0.0,0.0,0.0,0.0,0.0,0.0,0.0,0.0,0.0,0.0,0.0,0.0,0.0,0.0,0.0,0.0,0.0,0.0,0.0,0.0,0.0,0.0,0.0,0.0,0.0,0.0,0.0,0.0,0.0,0.0,0.0,0.0,0.0,0.0,0.0,0.0,0.0,0.0,0.0,0.0,0.0,0.0,0.0,0.0,0.0,0.0,0.0,0.0,0.0,0.0,0.0,0.0,0.0,0.0,0.0,0.0,0.0,0.0,0.0,0.0,0.0,0.0,0.0,0.0,0.0,0.0,0.0,0.0,0.0,0.0,0.0,0.0,0.0,0.0,0.0,0.0,0.0,0.0,0.0,-2.757,-2.7617,-2.7723,-2.8143,-2.9597,-3.0525,-3.0419,-3.1219,-3.167,-3.1511,0.0,0.0,0.0,0.0,0.0,0.0,0.0,0.0,0.0,0.0,0.0,0.0,0.0,0.0,0.0,0.0,0.0,0.0,0.0,0.0,0.0,0.0,0.0,0.0,0.0,0.0,0.0,0.0,0.0,0.0,0.0,0.0,0.0,0.0,0.0,0.0,0.0,0.0,0.0,0.0,0.0,0.0,0.0,0.0,0.0,0.0,0.0,0.0,0.0,0.0,0.0,0.0,0.0,0.0,0.0,0.0,0.0,0.0,0.0,0.0,0.0,0.0,0.0,0.0,0.0,0.0,0.0,0.0,0.0,0.0,0.0,0.0,0.0,0.0,0.0,0.0,0.0,0.0,0.0,0.0,0.0,0.0,0.0,0.0,0.0,0.0,0.0,0.0,0.0,0.0,0.0,0.0,0.0,0.0,0.0,0.0,0.0,0.0,0.0,0.0,0.0,0.0,-2.8739,-2.8634,-2.8684,-2.9219,-3.0315,-3.0955,-3.0807,-3.1409,-3.1698,-3.1511,0.0,0.0,0.0,0.0,0.0,0.0,0.0,0.0,0.0,0.0,0.0,0.0,0.0,0.0,0.0,0.0,0.0,0.0,0.0,0.0,0.0,0.0,0.0,0.0,0.0,0.0,0.0,0.0,0.0,0.0,0.0,0.0,0.0,0.0,0.0,0.0,0.0,0.0,0.0,0.0,0.0,0.0,0.0,0.0,0.0,0.0,0.0,0.0,0.0,0.0,0.0,0.0,0.0,0.0,0.0,0.0,0.0,0.0,0.0,0.0,0.0,0.0,0.0,0.0,0.0,0.0,0.0,0.0,0.0,0.0,0.0,0.0,0.0,0.0,0.0,0.0,0.0,0.0,0.0,0.0,0.0,0.0,0.0,0.0,0.0,0.0,0.0,0.0,0.0,0.0,0.0,0.0,0.0,0.0,0.0,0.0,0.0,0.0,0.0,0.0,0.0,0.0,-2.9934,-2.9656,-2.9594,-3.0072,-3.0733,-3.1072,-3.0925,-3.1467,-3.1727,-3.1511,0.0,0.0,0.0,0.0,0.0,0.0,0.0,0.0,0.0,0.0,0.0,0.0,0.0,0.0,0.0,0.0,0.0,0.0,0.0,0.0,0.0,0.0,0.0,0.0,0.0,0.0,0.0,0.0,0.0,0.0,0.0,0.0,0.0,0.0,0.0,0.0,0.0,0.0,0.0,0.0,0.0,0.0,0.0,0.0,0.0,0.0,0.0,0.0,0.0,0.0,0.0,0.0,0.0,0.0,0.0,0.0,0.0,0.0,0.0,0.0,-1.9468,0.0,0.0,0.0,0.0,0.0,0.0,0.0,0.0,0.0,0.0,0.0,0.0,0.0,0.0,0.0,0.0,0.0,0.0,0.0,0.0,0.0,0.0,0.0,0.0,0.0,0.0,0.0,0.0,0.0,0.0,0.0,0.0,0.0,0.0,0.0,0.0,0.0,0.0,0.0,0.0,0.0,-3.0299,-3.0313,-3.0405,-3.0881,-3.1635,-3.1992,-3.1768,-3.1883,-3.1826,-3.1511,-3.1511,0.0,0.0,0.0,0.0,0.0,0.0,0.0,0.0,0.0,0.0,0.0,0.0,0.0,0.0,0.0,0.0,0.0,0.0,0.0,0.0,0.0,0.0,0.0,0.0,0.0,0.0,0.0,0.0,0.0,0.0,0.0,0.0,0.0,0.0,0.0,0.0,0.0,0.0,0.0,0.0,0.0,0.0,0.0,0.0,0.0,0.0,0.0,0.0,0.0,0.0,0.0,0.0,0.0,0.0,0.0,0.0,0.0,0.0,0.0,0.0,-2.139,0.0,0.0,0.0,0.0,0.0,0.0,0.0,0.0,0.0,0.0,0.0,0.0,0.0,0.0,0.0,0.0,0.0,0.0,0.0,0.0,0.0,0.0,0.0,0.0,0.0,0.0,0.0,0.0,0.0,0.0,0.0,0.0,0.0,0.0,0.0,0.0,0.0,0.0,0.0,0.0,-3.1145,-3.1028,-3.1043,-3.1392,-3.2005,-3.2315,-3.2122,-3.2038,-3.1912,-3.167,-3.1539,0.0,0.0,0.0,0.0,0.0,0.0,0.0,0.0,0.0,0.0,0.0,0.0,0.0,0.0,0.0,0.0,0.0,0.0,0.0,0.0,0.0,0.0,0.0,0.0,0.0,0.0,0.0,0.0,0.0,0.0,0.0,0.0,0.0,0.0,0.0,0.0,0.0,0.0,0.0,0.0,0.0,0.0,0.0,0.0,0.0,0.0,0.0,0.0,0.0,0.0,0.0,0.0,0.0,-2.3672,-2.4011,-2.4251,-2.4409,-2.448,-2.4469,-2.4241,-2.4205,-2.4289,-2.4921,0.0,0.0,0.0,0.0,0.0,0.0,0.0,0.0,0.0,0.0,0.0,0.0,0.0,0.0,0.0,0.0,0.0,0.0,0.0,0.0,0.0,0.0,0.0,0.0,-2.8739,-2.8867,0.0,0.0,0.0,0.0,0.0,0.0,0.0,0.0,0.0,0.0,0.0,0.0,-3.2061,-3.1737,-3.1567,-3.1881,-3.2203,-3.2342,-3.2219,-3.2066,-3.194,-3.1828,-3.1597,-3.1511,0.0,0.0,0.0,0.0,0.0,0.0,0.0,0.0,0.0,0.0,0.0,0.0,0.0,0.0,0.0,0.0,0.0,0.0,0.0,0.0,0.0,0.0,0.0,0.0,0.0,0.0,0.0,0.0,0.0,0.0,0.0,0.0,-0.6287,-0.753,0.0,0.0,0.0,0.0,0.0,0.0,0.0,0.0,0.0,0.0,0.0,0.0,0.0,-2.2098,-2.3172,-2.3734,-2.4145,-2.4492,-2.5052,-2.5418,-2.5653,-2.5838,-2.6,-2.6126,-2.6526,0.0,-2.4921,-2.5473,0.0,0.0,0.0,0.0,0.0,0.0,0.0,0.0,0.0,0.0,0.0,0.0,0.0,0.0,0.0,0.0,0.0,0.0,0.0,0.0,0.0,0.0,-2.9067,-2.9352,-2.9477,-2.9571,0.0,-2.9415,-2.9035,-2.9099,-2.9131,0.0,0.0,0.0,0.0,0.0,0.0,0.0,-3.2355,-3.216,-3.2188,-3.2691,-3.2523,-3.2342,-3.2219,-3.2066,-3.194,-3.1828,-3.1597,-3.1511,-3.1511,-3.1307,0.0,0.0,0.0,0.0,0.0,0.0,0.0,0.0,0.0,0.0,0.0,0.0,0.0,0.0,0.0,0.0,0.0,0.0,0.0,0.0,0.0,0.0,0.0,0.0,0.0,0.0,0.0,0.0,0.0,-0.6947,-0.9186,-1.0658,-1.0995,-1.1347,0.0,0.0,0.0,0.0,0.0,0.0,0.0,0.0,0.0,-2.1542,-2.2632,-2.3734,-2.4826,-2.5123,-2.537,-2.5662,-2.623,-2.6564,-2.6633,-2.7027,-2.7364,-2.7584,-2.7815,-2.7703,-2.7298,-2.7298,-2.771,-2.8371,0.0,0.0,0.0,0.0,-2.9775,-2.9699,-2.9202,-2.9044,0.0,-2.9166,0.0,0.0,0.0,0.0,0.0,0.0,0.0,0.0,0.0,0.0,-2.971,-2.9865,-2.9943,-3.0021,-3.0174,-3.0083,-2.996,0.0,-3.0328,-3.0837,-3.1736,0.0,0.0,0.0,0.0,-3.1836,-3.2185,-3.2074,-3.2104,-3.2425,-3.2578,-3.2594,-3.2315,-3.2122,-3.1968,-3.1927,-3.1307,-3.094,-3.094,-3.0448,-3.0131,0.0,0.0,0.0,0.0,0.0,0.0,0.0,0.0,0.0,0.0,0.0,0.0,0.0,0.0,0.0,0.0,0.0,0.0,0.0,0.0,0.0,0.0,0.0,0.0,0.0,0.0,0.0,0.0,-0.9924,-1.1566,-1.3214,-1.3542,-1.3893,0.0,0.0,0.0,0.0,0.0,0.0,-1.87,-2.0343,-2.1748,-2.2744,-2.3977,-2.5134,-2.6233,-2.6233,-2.6461,-2.6879,-2.733,-2.7564,-2.7617,-2.8072,-2.843,-2.8707,-2.8803,-2.9058,-2.9418,-2.8994,-2.9166,-2.9682,-2.9946,-3.0221,-3.0447,-3.0477,-3.0507,-3.0403,-2.9749,-2.9549,-2.9549,-2.9701,0.0,-2.9656,-3.0312,0.0,0.0,0.0,0.0,-3.0264,-3.0264,-3.0264,-3.0233,-3.0233,-3.0296,-3.0387,-3.0387,-3.0643,-3.0851,0.0,-3.1117,-3.158,-3.2076,0.0,0.0,0.0,0.0,-3.1493,-3.1918,-3.1905,-3.1936,-3.199,-3.2287,-3.2428,-3.2231,-3.1809,-3.1625,-3.1739,-3.0792,-3.0238,-3.0238,-2.9594,-2.9156,-2.9002,0.0,0.0,0.0,0.0,0.0,0.0,0.0,0.0,0.0,0.0,0.0,0.0,0.0,0.0,0.0,0.0,0.0,0.0,0.0,0.0,0.0,0.0,0.0,0.0,0.0,0.0,0.0,0.0,0.0,-1.5179,-1.5992,0.0,0.0,0.0,0.0,-1.7876,-1.9404,-2.0672,-2.1456,-2.3198,-2.4636,-2.5641,-2.5943,-2.6427,-2.7129,-2.7129,-2.7484,-2.8222,-2.8352,-2.8532,-2.8739,-2.8958,-2.9117,-2.9279,-2.9591,-2.9993,-3.0404,-2.9931,-2.9747,-2.9839,-3.0507,-3.0762,-3.0791,-3.0984,-3.1043,-3.1043,-3.1014,-3.0984,-3.0984,-3.1014,-3.0984,-3.1014,-3.1043,-3.1058,0.0,0.0,-3.0925,-3.0762,-3.0762,-3.0672,-3.0568,-3.0568,-3.0568,-3.0568,-3.0568,-3.1131,-3.1436,0.0,-3.0628,-3.0822,-3.1422,0.0,-3.1508,-3.1566,-3.1992,-3.2132,-3.1595,-3.1737,-3.1836,-3.1736,-3.1523,-3.1481,-3.1695,-3.0911,-3.0569,-3.1014,-3.0119,-2.9535,-2.9535,-2.9192,-2.9002,-2.9002,-2.8124,0.0,0.0,0.0,0.0,0.0,0.0,0.0,0.0,0.0,0.0,0.0,0.0,0.0,0.0,0.0,0.0,0.0,0.0,0.0,0.0,0.0,0.0,0.0,0.0,0.0,0.0,0.0,0.0,-1.7017,-1.7965,0.0,-1.8447,-1.8856,-1.9353,-1.9934,-2.0797,-2.1742,-2.2807,-2.3965,-2.5028,-2.5951,-2.6539,-2.7229,-2.8012,-2.8059,-2.8338,-2.8949,-2.9202,-2.9484,-2.978,-3.007,-3.0328,-3.0598,-3.0569,-3.0807,-3.1116,-3.097,-3.0837,-3.0792,-3.1014,-3.1102,-3.1146,-3.1205,-3.1234,-3.122,-3.1132,-3.1117,-3.1117,-3.1117,-3.1161,-3.1205,-3.1132,-3.1117,-3.1117,-3.1117,-3.1043,-3.0984,-3.0984,-3.0955,-3.0925,-3.0925,-3.0925,-3.0925,-3.0925,-3.1117,-3.1205,-3.0791,-3.1117,-3.1508,-3.1709,-3.135,-3.1175,-3.158,-3.1422,-3.1306,-3.1495,-3.1566,-3.168,-3.1823,-3.168,-3.1523,-3.1452,-3.0733,-3.0359,-3.0539,-2.9487,-2.8839,-2.8839,-2.8111,-2.7696,-2.7696,-2.7584,-2.7416,0.0,0.0,0.0,0.0,0.0,0.0,0.0,0.0,0.0,0.0,0.0,0.0,0.0,0.0,0.0,0.0,0.0,0.0,0.0,0.0,0.0,0.0,0.0,0.0,0.0,-1.6014,-1.7568,-1.8069,-1.9134,-1.9715,-1.9371,-2.0109,-2.0904,-2.1552,-2.2344,-2.3261,-2.4291,-2.511,-2.5961,-2.6836,-2.7425,-2.8143,-2.8917,-2.9044,-2.9456,-3.0135,-3.0451,-3.0719,-3.0969,-3.1188,-3.1349,-3.1423,-3.1292,-3.148,-3.1879,-3.1823,-3.1781,-3.1724,-3.1596,-3.1553,-3.1524,-3.1511,-3.1467,-3.1453,-3.1366,-3.1351,-3.1351,-3.1351,-3.1336,-3.1351,-3.1249,-3.122,-3.122,-3.122,-3.119,-3.1161,-3.1161,-3.1132,-3.1117,-3.1117,-3.1117,-3.1117,-3.1117,-3.1146,-3.1132,-3.0999,-3.1263,-3.1508,-3.148,-3.1073,-3.0866,-3.1277,-3.0911,-3.0747,-3.1146,-3.1204,-3.1248,-3.1364,-3.1233,-3.1131,-3.1073,-3.0222,-2.9856,-3.0117,-2.8871,-2.8235,-2.8365,-2.7503,-2.699,-2.699,-2.733,-2.7098,-2.6285,0.0,0.0,0.0,0.0,0.0,0.0,0.0,0.0,0.0,0.0,0.0,0.0,0.0,0.0,0.0,0.0,0.0,0.0,0.0,0.0,0.0,0.0,0.0,-1.4859,-1.6134,-1.7447,-1.8301,-1.952,-2.042,-2.0605,-2.1489,-2.2178,-2.2627,-2.4085,-2.5298,-2.5993,-2.6786,-2.763,-2.8514,-2.8739,-2.9139,-2.9839,-3.0178,-3.0852,-3.1814,-3.2041,-3.2207,-3.2357,-3.2357,-3.2127,-3.1752,-3.1752,-3.2076,-3.2629,-3.2465,-3.2492,-3.2574,-3.2163,-3.2025,-3.1996,-3.1841,-3.1828,-3.1828,-3.1799,-3.1799,-3.1799,-3.1799,-3.167,-3.1511,-3.1511,-3.1511,-3.1511,-3.1511,-3.1409,-3.1307,-3.1307,-3.122,-3.1102,-3.1102,-3.1102,-3.1102,-3.1102,-3.1205,-3.1307,-3.1307,-3.1058,-3.0762,-3.0628,-3.0598,-3.0598,-3.0598,-3.0598,0.0,-3.0598,-3.0598,-3.0507,-3.0312,-3.0189,-3.0233,-3.0552,-2.9369,-2.8958,-2.9716,-2.8352,-2.7703,-2.8079,-2.7382,-2.699,-2.699,-2.7284,-2.6972,-2.599,0.0,0.0,0.0,0.0,0.0,0.0,0.0,0.0,0.0,0.0,0.0,0.0,0.0,0.0,0.0,0.0,0.0,0.0,0.0,0.0,0.0,-1.4476,-1.6355,-1.6797,-1.8452,-1.9756,-2.0128,-2.0654,-2.1089,-2.1454,-2.1825,-2.2483,-2.3463,-2.4192,-2.5181,-2.6569,-2.7124,-2.798,-2.9275,-2.9546,-2.9995,-3.0658,-3.1275,-3.186,-3.2317,-3.2855,-3.325,-3.354,-3.3627,-3.3531,-3.3198,-3.2906,-3.2911,-3.3091,-3.2683,-3.278,-3.3038,-3.2508,-3.2163,-3.1996,-3.1968,-3.194,-3.194,-3.1841,-3.1799,-3.1784,-3.1626,-3.1539,-3.1511,-3.1511,-3.1511,-3.1511,-3.1511,-3.1467,-3.1438,-3.1438,-3.1424,-3.1395,-3.1395,-3.1395,-3.1395,-3.1395,-3.1409,-3.1409,-3.1322,-3.1234,-3.1146,-3.1102,-3.091,-3.0762,-3.0762,-3.0672,0.0,-3.0417,-3.0387,-3.0357,-3.0312,-3.0038,-2.9991,-3.0233,-2.9446,-2.9067,-2.9275,-2.8444,-2.798,-2.8112,-2.7536,-2.7079,-2.6794,-2.6169,-2.5899,0.0,0.0,0.0,0.0,0.0,0.0,0.0,0.0,0.0,0.0,0.0,0.0,0.0,0.0,0.0,0.0,0.0,0.0,0.0,0.0,0.0,0.0,-1.5722,-1.7674,-1.8189,-1.9353,-2.0479,-2.132,-2.1512,-2.1769,-2.2252,-2.2756,-2.3401,-2.4168,-2.5146,-2.6227,-2.7438,-2.813,-2.8949,-3.0005,-3.0267,-3.0673,-3.119,-3.1779,-3.2336,-3.2875,-3.3365,-3.3726,-3.4036,-3.4136,-3.3935,-3.3585,-3.3351,-3.334,-3.345,-3.3182,-3.3208,0.0,0.0,0.0,0.0,0.0,-3.2094,-3.2066,-3.1996,-3.1968,-3.194,-3.184,-3.1754,-3.1712,-3.1626,-3.1626,-3.1597,-3.1511,-3.1511,-3.1511,-3.1511,-3.1511,-3.1511,-3.1511,-3.1511,-3.1511,-3.1511,-3.1511,-3.1467,-3.1409,-3.1351,0.0,-3.1234,-3.0969,-3.0791,-3.0732,-3.0642,-3.0538,-3.0312,-3.0282,-3.0296,-3.0219,-2.9976,-2.9853,-2.996,-2.9446,0.0,0.0,0.0,-2.7802,-2.7162,-2.6824,0.0,0.0,0.0,-2.5002,-2.5459,0.0,0.0,0.0,-2.3948,-2.3615,0.0,0.0,0.0,0.0,0.0,0.0,0.0,0.0,0.0,0.0,0.0,0.0,0.0,0.0,0.0,0.0,-1.7115,-1.9036,-1.9116,-1.955,-2.0421,-2.1911,-2.2176,-2.2478,-2.3038,-2.3888,-2.4492,-2.4707,-2.6399,-2.7637,-2.8208,0.0,0.0,0.0,0.0,-3.1234,-3.1552,-3.1966,-3.2602,-3.3459,-3.3713,-3.3975,-3.4226,-3.4226,-3.3933,-3.345,-3.3424,-3.3555,-3.3745,-3.3694,-3.3684,-3.3591,-3.3096,-3.2897,-3.2843,-3.2401,-3.2219,-3.2219,-3.2219,0.0,0.0,-3.2163,-3.2094,-3.1968,-3.1841,-3.1799,-3.1756,-3.1568,-3.1511,-3.1511,-3.1511,-3.1511,-3.1511,-3.1511,-3.1511,-3.1511,-3.1511,-3.1511,-3.1511,-3.1511,-3.138,-3.1263,-3.1102,-3.0925,-3.0762,-3.0612,-3.0598,-3.0538,-3.0312,-3.0296,-3.0235,-3.0111,0.0,0.0,-2.9808,-2.9401,-2.9131,-2.9099,-2.8392,-2.733,-2.5824,-2.5638,-2.511,-2.4145,-2.4047,-2.4204,-2.46,-2.4108,-2.3813,-2.3666,-2.423,-2.3976,0.0,0.0,0.0,0.0,0.0,0.0,0.0,0.0,0.0,0.0,0.0,0.0,0.0,0.0,0.0,-1.6067,-1.7779,-1.9234,-1.9894,-2.0924,-2.1749,-2.2063,-2.2665,-2.3224,-2.3666,-2.4043,-2.4419,-2.4898,-2.6089,-2.7131,-2.7926,-2.9087,-3.0088,-3.0911,-3.135,-3.1682,-3.1896,-3.2877,-3.3461,-3.3652,0.0,0.0,-3.4923,-3.4961,-3.4778,-3.4423,-3.4201,-3.4075,-3.4,-3.3771,-3.3581,-3.3361,-3.3032,-3.2897,-3.2843,-3.2496,-3.237,-3.2342,-3.2247,-3.2191,-3.2163,-3.2066,-3.2025,-3.1968,-3.1841,-3.1799,0.0,-3.1568,-3.1511,-3.1511,-3.1511,-3.1511,-3.1511,-3.1511,-3.1511,-3.1511,-3.1511,-3.1511,-3.1511,-3.1511,-3.138,-3.1263,-3.1102,-3.0925,-3.0762,-3.0612,-3.0598,-3.0538,-3.0312,-3.0219,-3.0142,-3.008,-2.982,-2.9682,-2.9777,-2.962,-2.9383,-2.9131,-2.7993,-2.6765,-2.544,-2.4601,-2.4253,-2.4337,-2.3596,-2.3497,-2.4059,-2.3908,-2.3468,-2.2757,-2.3159,-2.2994,0.0,0.0,0.0,0.0,0.0,0.0,0.0,0.0,0.0,0.0,0.0,-1.204,-1.2668,0.0,-1.6034,-1.7577,-1.889,-2.008,-2.1009,-2.222,-2.2927,-2.274,-2.3224,-2.3813,-2.4383,-2.4635,-2.4886,-2.5276,-2.6603,-2.763,-2.8187,-2.9597,-3.0673,-3.1219,-3.1567,-3.184,-3.2094,-3.2807,-3.3261,-3.3503,-3.4126,-3.4472,-3.4594,-3.4626,-3.4554,-3.4399,-3.425,-3.4151,-3.4101,-3.3949,-3.3822,-3.3658,-3.3256,-3.2908,-3.2621,-3.2453,-3.2398,-3.237,-3.2035,-3.1966,-3.191,-3.1596,-3.1379,-3.1219,-3.1087,-3.0925,-3.0777,-3.0554,-3.0494,-3.0494,-3.0494,-3.0494,-3.0584,-3.0925,-3.0999,-3.1087,-3.1438,-3.1511,-3.1467,-3.1409,-3.1351,-3.1131,-3.0538,-3.0642,-3.0762,-3.0612,-3.0598,-3.0507,-3.0249,-3.0142,-3.005,-2.9865,-2.971,-2.9634,-2.9682,-2.9338,-2.883,-2.8189,-2.7397,-2.6217,-2.4612,-2.4072,-2.3562,-2.3106,-2.2542,-2.258,-2.3313,-2.3043,-2.2791,-2.2512,-2.2332,-2.1963,0.0,0.0,0.0,0.0,0.0,0.0,0.0,-0.7482,-0.7874,-0.9903,-1.166,-1.2972,-1.3419,-1.524,-1.7172,-1.863,-1.9758,-2.0884,-2.1935,-2.3128,-2.3824,-2.3582,-2.3922,-2.4431,-2.5016,-2.5276,-2.55,-2.5688,-2.7191,-2.8233,-2.8588,-3.0162,-3.1205,-3.1567,-3.1769,-3.1968,-3.2191,-3.2563,-3.2915,-3.3293,-3.3617,-3.3899,-3.4101,-3.4101,-3.4101,-3.4101,-3.4101,-3.4101,-3.4101,-3.4101,-3.4075,-3.3975,-3.3555,-3.2958,-3.2355,-3.2398,-3.2342,-3.2203,-3.1838,-3.1653,-3.1495,-3.1117,-3.0777,-3.0464,-3.0329,-3.0072,-2.9766,-2.9566,-2.9504,-2.9504,-2.9504,-2.9504,-2.9628,-3.0178,-3.0299,-3.0494,-3.1161,-3.1307,-3.1278,-3.1117,-3.1058,-3.0748,-2.9777,-3.0023,-3.0372,-3.0417,-3.0477,-3.0387,-3.0005,-2.9882,-2.9682,-2.9261,-2.9212,-2.9212,-2.9275,-2.8876,-2.8151,-2.7116,-2.6654,-2.5592,-2.372,-2.3573,-2.2995,-2.1807,-2.1617,-2.1807,-2.2478,-2.2063,-2.1976,-2.2161,-2.1485,-2.0995,0.9096,0.6236,0.2769,-0.1294,-0.219,-0.317,0.0,-0.8229,-0.875,-1.1041,-1.246,-1.3512,-1.4181,-1.5602,-1.7131,-1.8439,-1.9679,-2.0884,-2.1935,-2.3128,-2.4068,-2.4504,-2.4909,-2.517,-2.5276,-2.5606,-2.591,-2.6131,-2.7136,-2.8109,-2.8907,-3.0147,-3.1117,-3.1756,-3.201,-3.2178,-3.2191,-3.2877,-3.324,-3.3309,-3.3797,-3.4075,-3.4101,-3.4101,-3.4101,-3.4101,-3.4101,-3.4101,-3.4101,-3.4101,-3.3949,-3.3745,-3.3684,-3.3033,-3.2173,-3.2327,-3.2148,-3.1752,-3.171,-3.1437,-3.1058,-3.1029,-3.0777,-3.0464,-3.0329,-3.0072,-2.9766,-2.9566,-2.9504,-2.9504,-2.9504,-2.9504,-2.9504,-2.9597,-2.9597,-2.9797,-3.0464,-3.0614,-3.0584,-3.0419,-3.0269,-2.9858,-2.9044,-2.8839,-2.8985,-2.9623,-3.0068,-3.0099,-2.9467,-2.9121,-2.8693,-2.7992,-2.7822,-2.7881,-2.8149,-2.843,-2.8006,-2.6582,-2.5859,-2.4731,-2.3176,-2.2729,-2.2327,-2.1807,-2.1617,-2.154,-2.1617,-2.1244,-2.1031,-2.1038,-2.0389,-2.0293,0.6625,0.4461,0.2236,-0.1744,-0.2551,-0.3395,-0.7562,-0.836,-0.8882,-1.1214,-1.2796,-1.3964,-1.4636,-1.6131,-1.7876,-1.9748,-2.0614,-2.1621,-2.3276,-2.4032,-2.4586,-2.5016,-2.5382,-2.5688,-2.5793,-2.598,-2.6188,-2.6465,-2.7297,-2.7999,-2.8551,-2.9625,-3.0569,-3.1306,-3.1638,-3.2051,-3.2609,-3.3069,-3.3372,-3.3529,-3.3745,-3.3949,-3.4101,-3.3949,-3.3949,-3.4101,-3.4101,-3.4101,-3.4075,-3.3723,-3.3465,-3.323,-3.2749,-3.2185,-3.1721,-3.2074,-3.1823,-3.1263,-3.097,-3.0762,-3.0553,-3.0251,-2.9946,-2.9637,-2.9373,-2.9089,-2.8739,-2.8436,-2.8338,-2.8338,-2.8338,-2.8338,-2.8422,-2.8839,-2.8871,-2.903,-2.9766,-2.9766,-2.9597,-2.9535,-2.9393,-2.903,-2.8195,-2.8312,-2.8441,-2.8228,-2.8698,-2.8953,-2.8583,-2.8312,-2.8005,-2.7624,-2.7537,-2.7438,-2.7271,-2.7384,-2.6934,-2.5662,-2.5087,-2.424,-2.3038,-2.2628,-2.2214,-2.1807,-2.1512,-2.1397,-2.1502,-2.0964,-2.078,-2.0896,-2.0203,-1.9875,0.444,0.3105,0.1983,-0.1928,-0.2732,-0.3664,-0.761,-0.8408,-0.893,-1.13,-1.296,-1.421,-1.4963,-1.6535,-1.8278,-2.0148,-2.0971,-2.1962,-2.3644,-2.4442,-2.5016,-2.543,-2.5758,-2.6084,-2.6292,-2.6339,-2.643,-2.6692,-2.7289,-2.7875,-2.8417,-2.9202,-3.007,-3.0925,-3.1335,-3.1866,-3.2554,-3.3069,-3.3398,-3.3607,-3.3745,-3.3899,-3.4101,-3.3899,-3.3822,-3.3841,-3.3841,-3.3739,-3.3501,-3.3093,-3.281,-3.2637,-3.2003,-3.1521,-3.1246,-3.1607,-3.1334,-3.0762,-3.0403,-3.0235,-3.0052,-2.9727,-2.9383,-2.9035,-2.8683,-2.8373,-2.8013,-2.7603,-2.749,-2.749,-2.749,-2.749,-2.7623,-2.8072,-2.8105,-2.8222,-2.8939,-2.8907,-2.8716,-2.8652,-2.8551,-2.8241,-2.7364,-2.7637,-2.7736,-2.704,-2.7284,-2.7591,-2.7611,-2.7265,-2.6997,-2.69,-2.7035,-2.6913,-2.6436,-2.6526,-2.6148,-2.5075,-2.4528,-2.3877,-2.3038,-2.2515,-2.2101,-2.1807,-2.1474,-2.132,-2.1436,-2.0925,-2.0731,-2.0819,-2.0321,-1.9751,0.3752,0.2996,0.2062,-0.1933,-0.2911,-0.3888,-0.7654,-0.85,-0.9152,-1.1516,-1.3039,-1.4294,-1.522,-1.6665,-1.7942,-1.8652,-2.0255,-2.1621,-2.2291,-2.3891,-2.5194,-2.5793,-2.6062,-2.6339,-2.6658,-2.6692,-2.6679,-2.6679,-2.71,-2.7756,-2.8739,-2.9107,-2.9763,-3.0763,-3.1379,-3.171,-3.1739,-3.2769,-3.3293,-3.3335,-3.3848,-3.4101,-3.4101,-3.4101,-3.3764,-3.3224,-3.3224,-3.2821,-3.2167,-3.2139,-3.2043,-3.1946,-3.1918,-3.142,-3.0719,-3.0748,-3.0569,-3.0312,-3.0312,-2.9991,-2.9602,-2.9602,-2.9383,-2.9035,-2.8683,-2.8373,-2.8013,-2.7603,-2.749,-2.749,-2.749,-2.749,-2.7469,-2.7369,-2.7335,-2.7456,-2.7934,-2.8051,-2.7953,-2.7769,-2.7736,-2.7484,-2.6692,-2.6555,-2.6499,-2.627,-2.6084,-2.6117,-2.6569,-2.5906,-2.5382,-2.5382,-2.5814,-2.5988,-2.5676,-2.6114,-2.5998,-2.504,-2.4264,-2.3573,-2.3038,-2.2252,-2.1807,-2.1807,-2.1589,-2.1397,-2.1205,-2.0974,-2.078,-2.0605,-2.0595,-1.9889,0.3767,0.2677,0.1174,-0.2108,-0.2911,-0.3888,-0.7654,-0.85,-0.9157,-1.1516,-1.2869,-1.3957,-1.5186,-1.6494,-1.7876,-1.9283,-2.0721,-2.2048,-2.3147,-2.4264,-2.5276,-2.6027,-2.6245,-2.644,-2.6692,-2.6679,-2.6829,-2.71,-2.7423,-2.7855,-2.8314,-2.8862,-2.9605,-3.0584,-3.0718,-3.1321,-3.2484,-3.2715,-3.3076,-3.3581,-3.3517,-3.3397,-3.323,-3.323,-3.296,-3.247,-3.2691,-3.2473,-3.1931,-3.1534,-3.1275,-3.1072,-3.0674,-3.0283,-2.9962,-2.9962,-2.9915,-2.9851,-2.9851,-2.9727,-2.9602,-2.9602,-2.9383,-2.9035,-2.8683,-2.8373,-2.8013,-2.7603,-2.749,-2.749,-2.749,-2.749,-2.7469,-2.7335,-2.7214,-2.7146,-2.7289,-2.7142,-2.7007,-2.704,-2.6973,-2.6782,-2.6361,-2.6305,-2.6188,-2.5828,-2.5758,-2.5711,-2.5744,-2.5476,-2.5276,-2.5182,-2.5312,-2.5276,-2.4909,-2.504,-2.485,-2.4129,-2.357,-2.3065,-2.2628,-2.2111,-2.1807,-2.1807,-2.1617,-2.1397,-2.1205,-2.0984,-2.0498,-1.9736,-1.9736,-1.9042,0.3631,0.2214,0.0361,-0.2242,-0.3135,-0.4336,-0.7834,-0.8584,-0.9196,-1.1639,-1.3075,-1.4161,-1.522,-1.6706,-1.8167,-1.9292,-2.0615,-2.1897,-2.3184,-2.4192,-2.523,-2.6344,-2.6496,-2.664,-2.7049,-2.6965,-2.7032,-2.7268,-2.7523,-2.7789,-2.8079,-2.8619,-2.9243,-2.9993,-3.0372,-3.1058,-3.2066,-3.237,-3.2722,-3.3124,-3.2906,-3.2703,-3.2473,-3.2473,-3.2226,-3.179,-3.1946,-3.1736,-3.1218,-3.0748,-3.048,-3.0283,-2.987,-2.9682,-2.9602,-2.9602,-2.9602,-2.9602,-2.9602,-2.9602,-2.9602,-2.9602,-2.9383,-2.9035,-2.8683,-2.8373,-2.8013,-2.7603,-2.749,-2.749,-2.749,-2.7469,-2.7403,-2.7248,-2.7045,-2.6875,-2.6841,-2.6636,-2.6521,-2.6624,-2.6555,-2.643,-2.6236,-2.6097,-2.591,-2.5641,-2.5535,-2.5453,-2.5312,-2.5312,-2.5241,-2.5111,-2.5052,-2.4849,-2.4538,-2.4418,-2.4164,-2.3641,-2.3224,-2.2729,-2.209,-2.1911,-2.1693,-2.1492,-2.1175,-2.0944,-2.0722,-2.0206,-1.9569,-1.8856,-1.8856,-1.8236,0.3314,0.1613,-0.032,-0.2383,-0.3583,-0.505,-0.8185,-0.8671,-0.924,-1.1843,-1.3535,-1.4747,-1.5311,-1.7123,-1.8612,-1.87,-1.9932,-2.127,-2.2403,-2.3635,-2.5039,-2.6754,-2.6839,-2.7049,-2.7771,-2.7567,-2.738,-2.7354,0.0,-2.7703,-2.8112,-2.8438,-2.878,-2.9162,-3.0297,-3.0822,-3.0628,-3.1766,-3.2256,-3.2084,-3.2056,-3.1987,-3.1862,-3.1834,-3.1578,-3.1102,-3.1014,-3.0628,-3.005,-2.9853,-2.9699,-2.9602,-2.9602,-2.9602,-2.9602,-2.9602,-2.9602,-2.9602,-2.9602,-2.9602,-2.9602,-2.9571,-2.9352,-2.9004,-2.8683,-2.8341,-2.798,-2.7603,-2.749,-2.749,-2.749,-2.7403,-2.7235,-2.7045,-2.6841,-2.6658,-2.6521,-2.6499,-2.6499,-2.6499,-2.6487,-2.6396,-2.6201,-2.5828,-2.5571,-2.5571,-2.5418,-2.5312,-2.5312,-2.5276,-2.5241,-2.5123,-2.4885,-2.4718,-2.449,-2.4309,-2.4007,-2.3593,-2.3187,-2.2494,-2.1499,-2.1634,-2.1415,-2.0867,-2.0401,-2.0041,-1.9864,-1.882,-1.8181,-1.7917,-1.7917,-1.7472,0.3216,0.1617,-0.0406,-0.2423,-0.3092,-0.4202,-0.779,-0.8715,-0.9414,-1.1645,-1.2577,-1.3499,-1.5103,-1.6116,-1.7172,-1.8674,-2.005,-2.1155,-2.1849,-2.3368,-2.4811,-2.5985,-2.6847,-2.7659,-2.8421,-2.8534,-2.8451,0.0,-2.8006,-2.8112,-2.8471,-2.878,-2.9275,-2.9976,-2.996,-3.0266,-3.0881,-3.1392,-3.1749,-3.1931,-3.1506,-3.1261,-3.1232,-3.1028,-3.0658,-3.0162,-3.0388,-3.019,-2.9741,-2.9665,-2.9634,-2.9602,-2.9602,-2.9602,-2.9602,-2.9602,-2.9602,-2.9602,-2.9602,-2.9602,-2.954,-2.932,-2.9004,-2.8651,-2.8341,-2.798,-2.7636,-2.7536,-2.749,-2.749,-2.749,-2.7403,-2.7235,-2.7045,-2.6841,-2.6658,-2.6521,-2.6499,-2.6499,-2.6499,-2.6258,-2.598,-2.5793,-2.5535,-2.5382,-2.5382,-2.5347,-2.5312,-2.5312,-2.5218,-2.5087,-2.4885,-2.4718,-2.449,-2.4309,-2.4236,-2.3897,-2.3187,-2.2644,-2.1956,-2.1088,-2.0615,-2.0294,-2.0138,-1.9737,-1.9423,-1.9234,-1.8581,-1.7859,-1.7025,-1.7025,-1.6542,0.2546,0.0924,-0.0998,-0.2515,-0.3226,-0.4435,-0.8008,-0.8964,-0.9744,-1.2026,-1.3261,-1.4296,-1.5375,-1.6581,-1.7769,-1.882,-1.9814,-2.0741,-2.1583,-2.275,-2.42,-2.5954,-2.6759,-2.7689,-2.8948,-2.9109,-2.9038,-2.8804,-2.8569,-2.8431,-2.8373,-2.8844,-2.932,-2.9775,-2.9867,-3.0205,-3.0836,-3.0837,-3.0866,-3.0955,-3.0629,-3.0419,-3.0374,-3.0235,-3.0021,-2.9808,0.0,-2.9867,-2.9682,-2.9634,-2.9602,-2.9602,-2.9602,-2.9602,-2.9602,-2.9602,-2.9602,-2.9602,-2.9602,-2.9509,-2.9352,-2.9162,-2.878,-2.8341,-2.8145,-2.7802,-2.749,-2.749,-2.749,-2.749,-2.7436,-2.7302,-2.7113,-2.6909,-2.6726,-2.6474,-2.606,-2.599,-2.5955,-2.5873,-2.5217,-2.4791,-2.5052,-2.4647,-2.4276,-2.4276,-2.4276,-2.424,-2.412,-2.4695,-2.4862,-2.4311,-2.4093,-2.3765,-2.3202,-2.3043,-2.2708,-2.2069,-2.1631,-2.0981,-2.0089,-1.9952,-1.9786,-1.9529,-1.8917,-1.8559,-1.8447,-1.7472,-1.6576,-1.567,-1.567,-1.5262,0.1732,0.0139,-0.147,-0.2612,-0.3494,-0.4987,-0.8391,-0.9251,-1.003,-1.2535,-1.4469,-1.5715,-1.5893,-1.7508,-1.888,-1.9128,-1.9585,-2.0274,-2.1403,-2.2048,-2.3409,-2.6094,-2.6638,-2.7542,-2.9411,-2.9544,-2.947,-2.9392,-2.9178,-2.8785,-2.8259,-2.8724,-2.9067,-2.9162,-2.9837,-3.0296,-3.0462,-3.0158,-2.9943,-2.9777,-2.9777,-2.9699,-2.9602,-2.9602,-2.9651,-2.9761,-2.9651,0.0,-2.9747,-2.9665,-2.9602,-2.9602,-2.9602,-2.9602,-2.9602,-2.9602,-2.9602,-2.9571,-2.954,-2.932,-2.9035,-2.9035,-2.8619,-2.8079,-2.8046,-2.7769,-2.749,-2.749,-2.7423,-2.7289,-2.7154,-2.6884,-2.6624,-2.644,-2.6302,-2.599,-2.53,-2.5123,-2.5052,-2.4826,-2.3927,-2.3415,-2.4084,-2.3537,-2.2995,-2.2995,-2.2957,-2.2872,-2.2627,-2.3829,-2.436,-2.3404,-2.3169,-2.2734,-2.1832,-2.1517,-2.1211,-2.0798,-2.0508,-1.9982,-1.9033,-1.9411,-1.9362,-1.8803,-1.7893,-1.7408,-1.7367,-1.5865,-1.4831,-1.4272,-1.4272,-1.3977,0.1857,0.0702,-0.069,-0.2477,-0.3001,-0.4179,-0.8076,-0.9251,-1.0161,-1.2399,-1.3411,-1.4469,-1.6228,-1.6728,-1.7569,-1.9643,-1.993,-2.0089,-2.0712,-2.1718,-2.3156,-2.5202,-2.6479,-2.8002,-3.0036,-3.0377,-3.0318,-2.9996,-2.9751,-2.9398,-2.8798,-2.8714,-2.894,-2.9509,-2.9634,-2.9727,-2.9758,-2.9741,-2.9665,-2.9634,-2.9634,-2.9634,-2.9602,-2.9602,-2.9602,-2.9634,-2.9602,0.0,-2.9634,-2.9602,-2.9602,-2.9602,-2.9602,-2.9602,-2.9602,-2.9602,-2.9602,-2.954,-2.9289,-2.8972,-2.8683,-2.8683,-2.8438,-2.8046,-2.7703,-2.757,-2.749,-2.749,-2.6926,-2.6333,-2.6299,-2.5592,-2.485,-2.4814,-2.466,-2.448,-2.4337,-2.4192,-2.3963,-2.3588,-2.3331,-2.3231,-2.3243,-2.3095,-2.2995,-2.2995,-2.2824,-2.2664,-2.2627,-2.275,-2.2723,-2.2291,-2.2124,-2.1907,-2.1517,-2.1441,-2.1163,-2.0575,-2.0051,-1.9529,-1.9002,-1.8554,-1.8112,-1.7676,-1.6583,-1.5869,-1.5553,-1.4356,-1.3695,-1.3561,-1.3561,-1.3519,0.1056,0.0047,-0.1121,-0.2744,-0.3456,-0.4624,-0.7995,-0.9359,-1.0431,-1.2209,-1.3713,-1.5153,-1.6616,-1.7157,-1.8017,-1.9893,-2.0017,-2.0098,-2.0693,-2.1339,-2.2484,-2.4392,-2.5931,-2.7591,-2.9492,-3.0391,-3.0769,-3.0557,-2.9951,-2.9419,-2.9168,-2.9113,-2.9257,-2.9571,-2.9602,-2.9602,-2.9602,-2.9602,-2.9602,-2.9602,-2.9602,-2.9602,-2.9602,-2.9602,-2.9602,-2.9602,-2.9602,0.0,-2.9602,-2.9602,-2.9602,-2.9602,-2.9602,-2.9602,-2.9571,-2.9383,-2.9352,-2.9257,-2.8578,-2.8157,-2.7842,-2.755,-2.761,-2.7736,-2.757,-2.749,-2.739,-2.6892,-2.6436,-2.5975,-2.5369,-2.4803,-2.4373,-2.4264,-2.3793,-2.339,-2.339,-2.2809,-2.2371,-2.2596,-2.2199,-2.1973,-2.2312,-2.2021,-2.1728,-2.1614,-2.1489,-2.1298,-2.1058,-2.0991,-2.1068,-2.1326,-2.1221,-2.0837,-2.0226,-2.007,-1.9835,-1.9432,-1.9006,-1.8665,-1.8474,-1.8152,-1.7797,-1.74,-1.6296,-1.5496,-1.5095,-1.3977,-1.3222,-1.2881,-1.2881,-1.2406,0.029,-0.0719,-0.1763,-0.308,-0.4038,-0.5332,-0.7975,-0.9475,-1.0676,-1.2104,-1.4028,-1.5772,-1.6776,-1.753,-1.8418,-1.9866,-1.9984,-2.0137,-2.079,-2.1051,-2.1886,-2.3765,-2.5184,-2.6709,-2.8499,-2.9719,-3.0403,-3.0403,-2.9502,-2.9013,-2.9212,-2.9412,-2.954,-2.9602,-2.9602,-2.9602,-2.9602,-2.9602,-2.9602,-2.9602,-2.9602,-2.9602,-2.9602,-2.9602,-2.9602,-2.9602,-2.9602,0.0,0.0,-2.9509,-2.9477,-2.9477,-2.9415,-2.9383,-2.9352,-2.9099,-2.9004,-2.8862,-2.7914,-2.7417,-2.7095,-2.648,-2.6676,-2.7154,-2.7154,-2.7108,-2.6858,-2.6148,-2.572,-2.5252,-2.4361,-2.3975,-2.3793,-2.3647,-2.3032,-2.2446,-2.2408,-2.1606,-2.1051,-2.1645,-2.1146,-2.0789,-2.1423,-2.0972,-2.0489,-2.0303,-2.0059,-1.9736,-1.939,-1.9112,-1.9213,-1.9846,-2.0099,-1.9923,-1.9082,-1.8643,-1.8322,-1.8103,-1.77,-1.7456,-1.7456,-1.7538,-1.7335,-1.6771,-1.5835,-1.5081,-1.451,-1.347,-1.2668,-1.2155,-1.1977,-1.1154,0.0295,-0.0783,-0.1896,-0.3097,-0.4214,-0.5658,-0.8048,-0.9619,-1.0915,-1.2152,-1.3511,-1.4848,-1.627,-1.6778,-1.7534,-1.945,-1.9828,-2.0137,-2.079,-2.1051,-2.1781,-2.3383,-2.4321,-2.5564,-2.7368,-2.8166,-2.8547,-2.8547,-2.7994,-2.7971,-2.863,-2.8967,-2.9289,-2.9571,-2.9602,-2.9602,-2.9602,-2.9602,-2.9602,-2.9602,-2.9602,-2.9602,-2.9602,-2.9602,-2.9602,-2.9602,-2.9602,0.0,0.0,-2.9257,-2.9162,-2.9131,-2.8812,-2.8683,-2.8683,-2.8651,-2.8651,-2.8522,-2.7564,-2.7229,-2.7061,-2.623,-2.6,-2.6035,-2.6035,-2.5802,-2.5475,-2.5405,-2.4457,-2.3441,-2.3331,-2.2697,-2.2025,-2.2025,-2.1797,-2.1578,-2.1387,-2.1099,-2.0858,-2.076,-2.0644,-2.0644,-2.0712,-2.0489,-2.0303,-2.0303,-1.9283,-1.8461,-1.8421,-1.7585,-1.6976,-1.7058,-1.8479,-1.9301,-1.9033,-1.8095,-1.7399,-1.7164,-1.618,-1.5643,-1.5643,-1.6057,-1.5767,-1.4685,-1.4342,-1.3662,-1.2662,-1.186,-1.1478,-1.1392,-1.0511,-1.0033,0.0099,-0.1176,-0.2639,-0.3538,-0.4929,-0.6455,-0.7909,-0.9547,-1.0877,-1.1546,-1.3221,-1.4962,-1.6257,-1.649,-1.6982,-1.863,-1.8742,-1.8935,-1.9971,-2.0284,-2.0955,-2.2484,-2.3882,-2.5087,-2.6033,-2.7195,-2.7717,-2.7373,-2.7326,-2.7316,-2.7263,-2.8195,-2.8994,-2.9571,-2.9602,-2.9509,-2.9289,-2.9289,-2.9194,-2.9004,-2.9004,-2.9004,-2.9004,-2.9004,-2.9004,-2.9004,-2.9004,0.0,0.0,-2.8306,-2.8241,-2.8208,-2.7756,-2.7769,-2.7993,-2.7471,-2.7271,-2.7136,-2.6217,-2.5871,-2.5744,-2.4791,-2.4515,-2.4659,-2.5346,-2.5452,-2.511,-2.4277,-2.3624,-2.3073,-2.251,-2.209,-2.1769,-2.1655,-2.1474,-2.1244,-2.1061,-2.0858,-2.0693,-2.0605,-2.0605,-2.0566,-2.0459,-1.9932,-1.9402,-1.9155,-1.8221,-1.7488,-1.7334,-1.6976,-1.6698,-1.6698,-1.7302,-1.7594,-1.7229,-1.6821,-1.6412,-1.6049,-1.5643,-1.5394,-1.5394,-1.5428,-1.5179,-1.4608,-1.3789,-1.3112,-1.2577,-1.1731,-1.0997,-1.0429,-1.0077,-0.9288,0.0,-0.1531,-0.3304,-0.3844,-0.552,-0.7125,-0.7816,-0.9509,-1.0979,-1.117,-1.3076,-1.4968,-1.59,-1.6141,-1.6602,-1.7767,-1.7829,-1.8095,-1.9283,-1.9708,-2.0372,-2.1596,-2.3199,-2.4367,-2.4814,-2.6022,-2.6613,-2.6178,-2.6321,-2.6336,-2.6136,-2.7118,-2.8168,-2.918,-2.9103,-2.9053,-2.9099,-2.9004,-2.8812,-2.8587,-2.8411,-2.8346,-2.8346,-2.8157,-2.8091,-2.8091,-2.8091,0.0,0.0,-2.7358,-2.7324,-2.7258,-2.6807,-2.6841,-2.7103,-2.648,-2.6239,-2.6136,-2.5288,-2.4933,-2.4683,-2.3886,-2.3519,-2.3545,-2.424,-2.4433,-2.4228,-2.3243,-2.2872,-2.2611,-2.1987,-2.1769,-2.1693,-2.154,-2.132,-2.1061,-2.0945,-2.0731,-2.0527,-2.0284,-2.0216,-2.0089,-1.9608,-1.8957,-1.835,-1.7971,-1.7123,-1.6486,-1.6329,-1.6083,-1.5876,-1.5835,-1.5794,-1.5918,-1.6116,-1.5745,-1.5413,-1.5137,-1.4803,-1.4594,-1.4594,-1.4545,-1.4342,-1.3893,-1.3245,-1.2687,-1.2283,-1.1338,-1.0559,-0.9903,-0.9331,-0.8237,0.0,-0.1762,-0.3668,-0.3915,-0.5824,-0.7643,-0.7939,-0.9657,-1.1219,-1.1219,-1.3076,-1.479,-1.5083,-1.5698,-1.6338,-1.6822,-1.7369,-1.8014,-1.8877,-1.9511,-2.0138,-2.0818,-2.2166,-2.3235,-2.3744,-2.451,-2.4923,-2.4912,-2.4696,0.0,-2.5451,-2.5707,-2.6603,-2.8254,-2.7947,-2.8176,-2.9099,-2.878,-2.8587,-2.8587,-2.798,-2.7703,-2.7703,-2.7165,-2.6917,-2.6917,0.0,0.0,0.0,-2.6557,-2.6399,-2.6377,-2.6057,-2.5896,-2.5931,-2.5896,-2.5896,-2.5826,-2.5229,-2.4743,-2.4312,-2.3765,-2.3335,-2.2927,-2.2553,-2.244,-2.244,-2.2402,-2.2101,-2.1807,-2.1807,-2.1655,-2.1502,-2.1502,-2.1205,-2.0906,-2.0906,-2.0731,-2.0323,-1.9499,-1.9301,-1.8975,-1.7908,-1.7496,-1.7253,-1.7041,-1.6116,-1.5436,-1.5394,-1.4657,-1.4039,-1.3779,-1.3737,-1.4433,-1.6232,-1.5191,-1.4399,-1.4406,-1.3366,-1.2747,-1.2747,-1.3179,-1.2973,-1.2043,-1.2454,-1.224,-1.1311,-1.0386,-0.9903,-0.9859,-0.7973,-0.6612,0.0051,-0.1613,-0.3422,-0.3867,-0.5675,-0.7441,-0.7889,-0.9657,-1.1219,-1.1219,-1.3221,-1.4924,-1.4782,-1.534,-1.5795,-1.5763,-1.5975,-1.6558,-1.7755,-1.8207,-1.9076,-2.0895,-2.2456,-2.3586,-2.4039,-2.4271,-2.443,-2.443,-2.4353,-2.4406,-2.4599,-2.4671,-2.5522,-2.7298,-2.7232,-2.7178,-2.7258,-2.7157,-2.6968,-2.6744,-2.6573,-2.6458,-2.6458,-2.6286,-2.6217,0.0,0.0,0.0,0.0,-2.5487,-2.5452,-2.5381,-2.4921,-2.4957,-2.5229,-2.4886,-2.4754,-2.4718,-2.4503,-2.4202,-2.3801,-2.3335,-2.2927,-2.2515,-2.2101,-2.2176,-2.2327,-2.2063,-2.1921,-2.1769,-2.1617,-2.1098,-2.0537,-2.0274,-1.9638,-1.9076,-1.8966,-1.8877,-1.8758,-1.8487,-1.8318,-1.8029,-1.7504,-1.6764,-1.6157,-1.5959,-1.511,-1.4496,-1.4496,-1.4117,-1.3779,-1.3695,-1.3434,-1.3512,-1.409,-1.3753,-1.3421,-1.3245,-1.2912,-1.2705,-1.2705,-1.1918,-1.144,-1.1316,-1.0318,-0.9758,-0.968,-0.9157,-0.8269,-0.7027,-0.6432,-0.528,0.0202,-0.1562,-0.3472,-0.3867,-0.5675,-0.7441,-0.7892,-0.941,-1.0877,-1.1268,-1.3125,-1.4702,-1.4847,-1.528,-1.5553,-1.5338,-1.5382,-1.579,-1.696,-1.7448,-1.8678,-2.1221,-2.2494,-2.3409,-2.4127,-2.42,-2.42,-2.42,-2.42,-2.42,-2.42,-2.42,-2.4743,-2.5847,-2.6077,-2.6249,-2.6399,-2.6274,-2.6114,-2.5896,-2.5687,-2.5569,-2.5534,-2.5335,-2.5276,0.0,0.0,0.0,0.0,-2.4707,-2.4707,-2.4671,-2.4334,-2.4394,-2.4671,-2.4334,-2.4116,-2.397,-2.397,-2.3593,-2.3113,-2.2852,-2.2515,-2.2063,-2.1606,-2.1645,-2.1825,-2.1807,-2.1443,-2.1088,-2.1011,-2.0372,-1.9659,-1.9225,-1.863,-1.8149,-1.8037,-1.7997,-1.7876,-1.7472,-1.731,-1.7017,-1.6322,-1.5662,-1.513,-1.4943,-1.4454,-1.4046,-1.3955,-1.3779,-1.3519,-1.3003,-1.2705,-1.24,-1.1918,-1.2229,-1.2186,-1.166,-1.166,-1.166,-1.166,-1.0745,-1.0308,-1.0486,-0.9279,-0.8715,-0.889,-0.7918,-0.6681,-0.5181,-0.483,-0.403,0.0,-0.1561,-0.367,-0.3917,-0.5827,-0.7696,-0.7942,-0.9118,0.0,-1.1365,-1.2866,-1.4225,-1.5127,-1.5427,-1.5569,-1.5483,-1.5452,-1.5756,-1.6566,-1.7375,-1.8868,-2.1631,-2.2193,-2.2815,-2.3934,-2.4043,-2.4043,-2.4043,-2.408,-2.4116,-2.4116,-2.4164,-2.42,-2.42,-2.4671,-2.5346,-2.6227,-2.5941,-2.5791,-2.5791,-2.5229,-2.4945,-2.4945,-2.4431,-2.42,0.0,0.0,0.0,0.0,-2.42,-2.42,-2.42,-2.4164,-2.4164,-2.4152,-2.4127,-2.3897,-2.3556,-2.3519,-2.3001,-2.2327,-2.2252,-2.1987,-2.1568,-2.1021,-2.0867,-2.1021,-2.153,-2.0769,-1.9894,-2.008,-1.9502,-1.8749,-1.8301,-1.7989,-1.7836,-1.7836,-1.7796,-1.7521,-1.6517,-1.627,-1.585,-1.4601,-1.4398,-1.4321,-1.4124,-1.4088,-1.3997,-1.3646,-1.3603,-1.3088,-1.1757,-1.1585,-1.1106,-0.9879,-1.0669,-1.0842,-0.9966,-0.9879,-0.9879,-0.9879,-0.9623,-0.9492,-0.9492,-0.893,-0.8627,-0.858,-0.659,-0.509,-0.4074,-0.3269,-0.2823,0.0404,0.0,-0.367,-0.3917,-0.5827,-0.7696,0.0,-0.9657,-1.1321,-1.156,-1.3303,-1.479,-1.4974,-1.5164,-1.5253,-1.5205,-1.56,-1.6128,-1.6607,-1.8238,-1.962,-2.0323,-2.1336,-2.2031,-2.2333,-2.2371,-2.2371,-2.2371,-2.2942,-2.3298,-2.3298,-2.3861,-2.42,-2.42,-2.4334,-2.4503,-2.4707,-2.4647,-2.4611,-2.4611,-2.4467,-2.4406,-2.4358,-2.4261,-2.42,0.0,0.0,0.0,-2.42,-2.42,-2.42,-2.4164,-2.3861,-2.3751,-2.3703,-2.3409,-2.3224,-2.3075,-2.2596,-2.2145,-2.1586,-2.076,-2.0411,-2.0333,-2.0177,-2.0498,-2.0818,-2.045,-1.9894,-1.9423,-1.9313,-1.8381,-1.7407,-1.7139,-1.6542,-1.5989,-1.5989,-1.5906,-1.5699,-1.545,-1.511,-1.4768,-1.444,-1.4286,-1.4166,-1.413,-1.4088,-1.373,-1.2766,-1.2479,-1.1923,-1.075,-1.0448,-0.9927,-0.893,-0.971,-1.0139,-0.9923,-0.9879,-0.9879,-0.9879,-0.9008,-0.8444,-0.8225,-0.7048,-0.6077,-0.5359,-0.4872,-0.3758,-0.2106,-0.2644,-0.2107,-0.0403,-0.2013,-0.367,-0.3917,-0.5827,-0.7693,-0.8088,-0.9266,-1.0609,-1.153,-1.28,-1.4044,-1.4867,-1.514,-1.5233,-1.5223,-1.5714,-1.6335,-1.6943,-1.8376,-1.949,-1.9864,-2.0682,-2.1375,0.0,-2.1794,-2.1794,-2.1794,-2.2182,-2.2456,-2.2456,-2.2868,-2.3287,-2.3629,-2.3287,-2.3434,-2.4189,-2.42,-2.42,-2.42,-2.42,-2.42,-2.4189,-2.4007,-2.4018,0.0,0.0,0.0,-2.42,-2.42,-2.408,-2.3897,-2.3677,-2.3494,-2.3298,-2.3075,-2.2692,-2.2268,-2.1956,-2.1375,-2.0682,-2.009,-1.9904,-1.9864,-1.9559,-1.9726,-1.9962,-1.9708,-1.9036,-1.8359,-1.8141,-1.7342,-1.6501,-1.618,-1.5748,-1.5305,-1.4999,-1.4699,-1.4314,-1.3886,-1.3457,-1.3105,-1.2984,-1.2869,-1.2833,-1.2833,-1.2741,-1.2388,-1.1612,-1.1354,-1.075,-0.9579,-0.9362,-0.8886,-0.7929,-0.8317,-0.8619,-0.8619,-0.8619,-0.8619,-0.8619,-0.7921,-0.7401,-0.7048,-0.5855,-0.4924,-0.43,-0.3403,-0.2419,-0.1391,-0.1524,-0.0762,-0.1158,-0.251,-0.3756,-0.4214,-0.6027,-0.7842,-0.8287,-0.8757,-0.9571,-1.1329,-1.2041,-1.2883,-1.4677,-1.5024,-1.5134,-1.5474,-1.5963,-1.6582,-1.7392,-1.817,-1.8922,-1.959,-2.0031,0.0,-2.1298,-2.1413,-2.1413,-2.1413,-2.1527,-2.1603,-2.1603,-2.1718,-2.2107,-2.2804,-2.2145,-2.2446,-2.3813,-2.397,-2.397,-2.3849,-2.397,-2.397,-2.3813,-2.3446,-2.3434,-2.3728,0.0,0.0,-2.3728,-2.3849,-2.3618,-2.3202,-2.325,-2.3027,-2.2606,-2.2531,-2.1993,-2.1231,-2.1155,-2.045,-1.9629,-1.9629,-1.9629,-1.9511,-1.8984,-1.8803,-1.8794,-1.8877,-1.8126,-1.7221,-1.6935,-1.6427,-1.588,-1.5472,-1.5298,-1.5082,-1.444,-1.388,-1.3239,-1.2351,-1.1912,-1.1569,-1.1322,-1.1284,-1.1284,-1.1284,-1.1139,-1.088,-1.0501,-1.0318,-0.971,-0.85,-0.8328,-0.8017,-0.7183,-0.6962,-0.6874,-0.6874,-0.7007,-0.7007,-0.683,-0.652,-0.6124,-0.5677,-0.483,-0.4249,-0.3851,-0.2195,-0.1346,-0.1166,-0.0224,0.0628,-0.0454,-0.2288,-0.4281,-0.5404,-0.698,-0.8287,-0.8382,-0.9348,-1.0336,-1.0639,-1.1651,-1.2788,-1.3842,-1.4153,-1.4663,-1.5797,-1.6656,-1.7351,-1.7838,-1.8201,-1.8474,-1.8634,0.0,-1.9271,-1.9429,-1.9569,-1.9687,-1.9687,-2.0304,-2.0692,-2.0692,-2.1423,-2.188,-2.1993,-2.1869,-2.1918,-2.2182,-2.2841,-2.2841,-2.2182,-2.2879,-2.2841,-2.2172,-2.1859,-2.1783,-2.1811,0.0,-2.1524,-2.1638,-2.2199,-2.2038,-2.1524,-2.1707,-2.1441,-2.0846,-2.0518,-2.0285,-2.006,-1.9569,-1.8904,-1.8304,-1.8304,-1.8304,-1.8264,-1.8193,-1.7919,-1.7554,-1.7212,-1.6976,-1.673,-1.6327,-1.588,-1.5472,-1.5431,-1.4957,-1.4433,-1.3922,-1.3118,-1.2351,-1.1906,-1.1569,-1.1365,-1.1327,-1.1284,-1.1284,-1.1284,-1.1278,-1.0885,-0.9889,-0.971,-0.9192,-0.7808,-0.7635,-0.7499,-0.7143,-0.6384,-0.5897,-0.5897,-0.665,-0.665,-0.5714,-0.4648,-0.3935,-0.3666,-0.3357,-0.2732,-0.1838,-0.1524,-0.0987,-0.018,0.0763,0.1256,-0.121,-0.268,-0.4306,-0.5922,-0.7359,-0.8468,-0.8852,-0.9457,-1.0117,-1.093,-1.1568,-1.239,-1.3718,-1.3851,-1.423,-1.5824,-1.6812,-1.7554,-1.7959,-1.8233,-1.8402,-1.8402,0.0,-1.8891,-1.9002,-1.9073,-1.9192,-1.9301,-1.9648,-1.9844,-1.9844,-2.0226,-2.0644,-2.1068,-2.0692,-2.0653,-2.1106,-2.1375,-2.1517,-2.1603,-2.1945,-2.1859,-2.142,-2.1086,-2.1038,-2.1219,0.0,-2.0903,-2.1133,-2.141,-2.1268,-2.0797,-2.0894,-2.0624,-2.0129,-1.9599,-1.9411,-1.9341,-1.8674,-1.8282,-1.8,-1.8,-1.8,-1.7959,-1.7757,-1.7554,-1.727,-1.6574,-1.6368,-1.6286,-1.5839,-1.5291,-1.4866,-1.4866,-1.4132,-1.3324,-1.2729,-1.1869,-1.1052,-1.0501,-1.0115,-0.9864,-0.9864,-0.9864,-0.9864,-0.9864,-0.9724,-0.9414,-0.889,-0.8632,-0.8201,-0.7547,-0.6925,-0.6479,-0.6343,-0.5494,-0.4959,-0.4959,-0.5359,-0.5356,-0.4823,-0.4113,-0.3667,-0.3443,-0.2685,-0.2015,-0.1391,-0.0898,-0.018,0.0763,0.1211,0.1973,-0.1654,-0.3006,-0.4363,-0.5832,-0.7259,-0.8477,-0.9228,-0.9427,-0.9764,-1.1015,-1.1334,-1.1805,-1.3283,-1.3597,-1.4104,-1.5553,-1.6599,-1.7343,-1.7659,-1.8031,-1.8322,-1.8322,-1.8482,-1.8692,-1.8922,-1.8962,-1.9073,-1.9262,-1.9301,-1.9301,-1.9301,-1.9301,-1.9569,-2.0196,-1.9608,-1.9569,-2.0157,-1.9982,-2.0246,-2.0827,-2.0981,-2.0855,-2.0537,-2.0148,-2.0187,-2.045,-2.0071,-2.011,-2.0411,-2.0527,-2.0343,-1.9924,-2.008,-1.9855,-1.9392,-1.8944,-1.8763,-1.8674,-1.8201,-1.8,-1.8,-1.8,-1.8,-1.7919,-1.7514,-1.731,-1.7025,-1.6121,-1.579,-1.5624,-1.5257,-1.4783,-1.4307,-1.4055,-1.3239,-1.2254,-1.1537,-1.0669,-0.9893,-0.9257,-0.8828,-0.8612,-0.8612,-0.8612,-0.8612,-0.8612,-0.8428,-0.8245,-0.8065,-0.7632,-0.7234,-0.7013,-0.6074,-0.5319,-0.505,-0.438,-0.3888,-0.3621,-0.3844,-0.3933,-0.3888,-0.34,-0.3042,-0.2864,-0.188,-0.1165,-0.0762,-0.0045,0.0808,0.1749,0.1973,0.2867,-0.084,-0.2755,-0.4731,-0.5016,-0.6737,-0.8477,-0.9228,-0.9463,-0.9642,-1.0178,-1.0504,-1.0916,-1.172,-1.3209,-1.444,-1.4734,-1.5884,-1.6739,-1.678,-1.7497,-1.804,-1.804,-1.8282,-1.8482,-1.8692,-1.8882,-1.9073,-1.9262,-1.9301,-1.9301,-1.9301,-1.9301,-1.9341,-1.9381,-1.9341,-1.9222,-1.9112,-1.9073,-1.9121,-1.9192,-1.9756,-1.9599,-1.8851,-1.8634,-1.8554,-1.8594,-1.8313,-1.8193,-1.8264,-1.8913,-1.8794,-1.8233,-1.8873,-1.8714,-1.8112,-1.8072,-1.8072,-1.808,-1.804,-1.8,-1.8,-1.8,-1.8,-1.7919,-1.7514,-1.7106,-1.6525,-1.5477,-1.4852,-1.4524,-1.4482,-1.444,-1.4139,-1.3063,-1.2303,-1.1537,-1.0616,-0.9854,-0.9213,-0.874,-0.8612,-0.8612,-0.8612,-0.8612,-0.8612,-0.8612,-0.8568,-0.834,-0.7621,-0.7136,-0.6514,-0.5625,-0.5048,-0.4247,-0.3179,-0.3045,-0.2598,-0.1659,-0.2464,-0.2911,-0.2642,-0.1523,-0.0852,-0.0628,-0.0314,0.0314,0.1211,0.1256,0.1793,0.2823,0.3673,0.4164,-0.1086,-0.2798,-0.4622,-0.5317,-0.7099,-0.8845,-0.9607,-0.9811,-1.0025,-1.0733,-1.1104,-1.1467,-1.202,-1.3464,-1.4524,-1.43,-1.5179,-1.5884,-1.5884,-1.6173,-1.6386,-1.6386,-1.6952,-1.7408,-1.7619,-1.8362,-1.8891,-1.9112,-1.9231,-1.9301,-1.9301,-1.9301,-1.9301,-1.9301,-1.9192,-1.9073,-1.9002,-1.8754,-1.8643,-1.8634,-1.8865,-1.8705,-1.8241,-1.8201,-1.8152,-1.8161,-1.804,-1.8,-1.804,-1.8273,-1.8241,-1.804,-1.8282,-1.8241,-1.8,-1.8,-1.8,-1.8,-1.8,-1.8,-1.787,-1.7237,-1.7025,-1.678,-1.5628,-1.5171,-1.4887,-1.4223,-1.3935,-1.3773,-1.3773,-1.347,-1.2954,-1.2266,-1.1327,-1.0467,-0.9811,-0.9257,-0.8828,-0.8656,-0.8612,-0.8612,-0.8612,-0.8612,-0.8432,-0.7981,-0.7937,-0.7669,-0.6915,-0.6293,-0.5802,-0.5447,-0.4291,-0.3133,-0.2061,-0.1973,-0.1793,-0.1436,-0.1749,-0.1928,-0.1837,-0.1256,-0.0718,-0.0179,0.0403,0.1075,0.1836,0.2151,0.2822,0.3762,0.4119,0.4875,-0.1759,-0.3439,-0.5229,-0.6128,-0.7827,-0.9432,-1.0038,-1.0207,-1.0386,-1.1132,-1.1527,-1.1823,-1.2326,-1.3252,-1.3886,-1.3626,-1.4342,-1.497,-1.497,-1.5228,-1.5394,-1.5394,-1.5925,-1.637,-1.6576,-1.7286,-1.7853,-1.8175,-1.8327,-1.8527,-1.8856,-1.8816,-1.8935,-1.9192,-1.9002,-1.8882,-1.8794,-1.8563,-1.8362,-1.8273,-1.8273,-1.8201,-1.8,-1.8,-1.8,-1.8,-1.8,-1.8,-1.8,-1.8,-1.8,-1.8,-1.8,-1.8,-1.8,-1.8,-1.7829,-1.7578,-1.7578,-1.7367,-1.6911,-1.6198,-1.5902,-1.5613,-1.4371,-1.3999,-1.388,-1.3258,-1.3094,-1.3052,-1.2796,-1.2454,-1.202,-1.1327,-1.0467,-0.965,-0.9174,-0.8648,-0.8252,-0.8252,-0.8076,-0.7896,-0.7896,-0.7896,-0.772,-0.7224,-0.7136,-0.6823,-0.5938,-0.5314,-0.4736,-0.42,-0.3133,-0.2152,-0.148,-0.1391,-0.13,-0.1076,-0.1076,-0.1076,-0.1076,-0.0852,-0.0403,0.0314,0.1029,0.179,0.2596,0.309,0.3939,0.5097,0.5097,0.5802,-0.2725,-0.4674,-0.6675,-0.7333,-0.8755,-1.012,-1.0506,-1.0593,-1.0727,-1.1219,-1.1527,-1.1871,-1.2326,-1.2406,-1.2448,-1.2662,-1.3415,-1.3999,-1.3999,-1.4803,-1.5352,-1.5352,-1.5394,-1.547,-1.5662,-1.5696,-1.5902,-1.6355,-1.6396,-1.6846,-1.7917,-1.7813,-1.8063,-1.8953,-1.8772,-1.8571,-1.8402,-1.8353,-1.8241,-1.8,-1.8,-1.8,-1.8,-1.8,-1.8,-1.8,-1.8,-1.8,-1.8,-1.7991,-1.8,-1.8,-1.8,-1.8,-1.8,-1.8,-1.7408,-1.6698,-1.6698,-1.5951,-1.4998,-1.5005,-1.4831,-1.4573,-1.4126,-1.3957,-1.3747,-1.2699,-1.2406,-1.224,-1.1478,-1.1472,-1.137,-1.025,-0.965,-0.9174,-0.8696,-0.7984,-0.7489,-0.7489,-0.6915,-0.6384,-0.6384,-0.6384,-0.6384,-0.6384,-0.6384,-0.5938,-0.4736,-0.416,-0.3223,-0.1569,-0.1391,-0.1391,-0.1391,-0.1391,-0.1076,-0.0448,-0.0403,-0.0403,-0.0403,-0.0134,0.0359,0.1076,0.1792,0.2596,0.3623,0.4074,0.5186,0.6779,0.6823,0.7173,-0.2536,-0.4536,-0.663,-0.7115,-0.8834,-1.0463,-1.0549,-1.0593,-1.0809,-1.165,-1.1989,-1.2283,-1.2577,-1.2619,-1.2619,-1.2705,-1.2912,-1.3082,-1.3082,-1.3336,-1.3499,-1.3499,-1.4048,-1.442,-1.4503,-1.524,-1.5827,-1.6116,-1.6273,-1.6519,-1.6846,-1.6813,-1.6813,-1.6879,-1.6683,-1.6568,-1.6486,-1.6378,-1.6255,-1.618,-1.618,-1.6796,-1.8,-1.8,-1.8,-1.8,-1.8,-1.8,-1.7951,-1.7326,-1.6706,-1.618,-1.618,-1.618,-1.618,-1.618,-1.6015,-1.576,-1.5587,-1.5289,-1.4831,-1.3902,-1.3565,-1.3311,-1.24,-1.2106,-1.2026,-1.1731,-1.1645,-1.1381,-1.0371,-0.9937,-0.9632,-0.9288,-0.8855,-0.8245,-0.7272,-0.6874,-0.6738,-0.6738,-0.6561,-0.6384,-0.6384,-0.6384,-0.6254,-0.5769,-0.5364,-0.4605,-0.3092,-0.278,-0.2196,-0.0852,-0.0718,-0.0493,0.0045,0.009,0.0179,0.0359,0.0359,0.0359,0.0359,0.0628,0.1031,0.157,0.2642,0.3446,0.4074,0.5406,0.6337,0.6823,0.7305,0.7878,-0.3824,-0.5356,-0.6924,-0.8157,-0.9405,-1.0463,-1.0944,-1.1035,-1.1251,-1.1989,-1.2283,-1.2448,-1.2662,-1.2705,-1.2705,-1.2705,-1.2705,-1.2705,-1.2705,-1.2705,-1.2705,-1.2705,-1.3167,-1.3499,-1.3499,-1.4119,-1.458,-1.4838,-1.4998,-1.5282,-1.5696,-1.5662,-1.5696,-1.5887,-1.5703,-1.5587,-1.5587,-1.547,-1.5394,-1.5394,-1.5394,-1.5933,-1.6968,-1.6968,-1.6968,-1.6968,-1.6968,-1.6968,-1.6919,-1.6419,-1.5884,-1.5394,-1.5394,-1.5394,-1.5394,-1.5394,-1.5095,-1.4713,-1.4538,-1.4126,-1.3578,-1.2735,-1.2394,-1.218,-1.1516,-1.1305,-1.1219,-1.0868,-1.0689,-1.0376,-0.9318,-0.8619,-0.8181,-0.8181,-0.7837,-0.7268,-0.6561,-0.621,-0.5988,-0.5988,-0.5766,-0.5586,-0.5586,-0.5586,-0.5411,-0.5013,-0.4115,-0.3087,-0.1929,-0.1345,-0.0762,-0.0045,0.0045,0.0224,0.0673,0.0718,0.0807,0.1121,0.1121,0.1256,0.157,0.1436,0.166,0.2243,0.3624,0.4469,0.4741,0.6378,0.7349,0.7658,0.8053,0.8627,-0.5736,-0.6523,-0.7394,-0.9802,-1.0202,-1.0381,-1.1521,-1.1742,-1.1866,-1.2326,-1.2406,-1.2491,-1.2662,-1.2705,-1.2705,-1.2705,-1.2705,-1.2705,-1.2705,-1.2705,-1.2705,-1.2705,-1.2705,-1.2705,-1.2705,-1.2705,-1.279,-1.31,-1.3094,-1.3548,-1.4496,-1.4384,-1.4636,-1.5406,-1.5262,-1.5144,-1.5144,-1.5144,-1.5144,-1.5144,-1.5144,-1.5144,-1.5144,-1.5311,-1.5394,-1.5394,-1.5394,-1.5352,-1.5269,-1.5269,-1.5228,-1.5144,-1.5144,-1.5137,-1.5144,-1.5144,-1.4468,-1.3535,-1.3535,-1.2705,-1.1699,-1.1656,-1.1483,-1.1262,-1.1219,-1.1176,-1.0954,-0.999,-0.9632,-0.9231,-0.8265,-0.7518,-0.699,-0.6858,-0.6555,-0.6299,-0.621,-0.5722,-0.5282,-0.5282,-0.4746,-0.43,-0.43,-0.43,-0.4253,-0.4119,-0.273,-0.1522,-0.1076,0.0,0.0718,0.0762,0.0807,0.0807,0.0897,0.0897,0.1166,0.1839,0.1885,0.2243,0.3008,0.2378,0.2333,0.3008,0.4652,0.5492,0.5536,0.7082,0.8229,0.889,0.8978,0.9375,-0.4314,-0.5623,-0.7129,-0.84,-1.0024,-1.1478,-1.2112,-1.224,-1.2283,-1.2363,-1.2534,-1.2662,-1.2705,-1.2705,-1.2705,-1.2705,-1.2705,-1.2705,-1.2705,-1.2705,-1.2705,-1.2705,-1.2705,-1.2705,-1.2705,-1.2705,-1.279,-1.31,-1.3094,-1.3179,-1.3428,-1.3392,-1.3385,-1.3372,-1.3288,-1.3294,-1.3294,-1.3294,-1.3294,0.0,-1.3294,-1.3294,-1.3336,-1.4761,-1.5394,-1.5394,-1.5394,-1.497,-1.4294,-1.4294,-1.388,-1.3294,-1.3294,-1.3167,-1.3039,-1.3039,-1.2747,-1.2332,-1.216,-1.1952,-1.1656,-1.144,-1.1354,-1.1176,-1.0429,-1.0212,-0.999,-0.8886,-0.8532,-0.8221,-0.6905,-0.6422,-0.6068,-0.5139,-0.5277,-0.5458,-0.4877,-0.4654,-0.4523,-0.4523,-0.4389,-0.43,-0.43,-0.43,-0.3941,-0.282,-0.1657,-0.0762,-0.0314,0.0179,0.0673,0.1211,0.1436,0.1794,0.2379,0.2424,0.2513,0.2649,0.2649,0.3051,0.3942,0.3851,0.3851,0.3987,0.5453,0.6296,0.6511,0.7749,0.854,0.8934,0.9506,0.9864,-0.4899,-0.5718,-0.665,-0.8141,-0.998,-1.1559,-1.2235,-1.2448,-1.2534,-1.2534,-1.2619,-1.2705,-1.2705,-1.2705,-1.2705,-1.2705,-1.2705,-1.2705,-1.2705,-1.2705,-1.2705,-1.2705,-1.2705,-1.2705,-1.2705,-1.2705,-1.2747,-1.2881,-1.2924,-1.2924,-1.2924,-1.2924,-1.2833,-1.2705,-1.2705,-1.2705,-1.2705,-1.2705,-1.2705,-1.2705,-1.2705,-1.2705,-1.2747,-1.3675,-1.4048,-1.3964,-1.3964,-1.3626,-1.3039,-1.3039,-1.2747,-1.2369,-1.2369,-1.2283,-1.2203,-1.2203,-1.208,-1.1828,-1.1742,-1.1613,-1.1397,-1.0824,-1.0646,-1.0429,-0.9506,-0.9244,-0.9026,-0.7969,-0.7522,-0.7078,-0.6027,-0.5497,-0.5097,-0.4612,-0.4701,-0.4746,-0.4389,-0.43,-0.43,-0.43,-0.3941,-0.3628,-0.3628,-0.3223,-0.2596,-0.1613,-0.0717,0.0,0.0448,0.1031,0.1525,0.1885,0.2154,0.2469,0.2873,0.292,0.292,0.292,0.332,0.381,0.43,0.5144,0.5408,0.4964,0.6251,0.7044,0.7261,0.8452,0.9161,0.9462,1.0246,1.0641,-0.586,-0.6118,-0.6435,-0.8321,-0.9893,-1.1198,-1.202,-1.2363,-1.2491,-1.2662,-1.2705,-1.2705,-1.2705,-1.2705,-1.2705,-1.2705,-1.2705,-1.2705,-1.2705,-1.2705,-1.2705,-1.2705,-1.2705,-1.2705,-1.2705,-1.2705,-1.2705,-1.2705,-1.2705,-1.2705,-1.2705,-1.2705,-1.2705,-1.2705,-1.2705,-1.2705,-1.2705,-1.2705,-1.2705,-1.2705,-1.2705,-1.2705,-1.2705,-1.2662,-1.2577,-1.2406,-1.2363,-1.2203,-1.2,-1.2,-1.2,-1.2,-1.2,-1.2,-1.1957,-1.1957,-1.1693,-1.1392,-1.1392,-1.1132,-1.0694,-0.9903,-0.9637,-0.9462,-0.8544,-0.8281,-0.8061,-0.7095,-0.6514,-0.6065,-0.5458,-0.4837,-0.4389,-0.4391,-0.421,-0.4074,-0.4074,-0.4074,-0.3985,-0.3849,-0.3178,-0.2643,-0.2643,-0.1836,-0.103,-0.0628,0.009,0.0718,0.1166,0.193,0.2469,0.2513,0.2739,0.292,0.292,0.292,0.2963,0.3142,0.3853,0.4431,0.4788,0.6296,0.683,0.6207,0.718,0.7797,0.8057,0.9074,0.9777,1.0255,1.0982,1.1408,-0.5086,-0.6387,-0.7445,-0.8137,-0.9666,-1.1068,-1.137,-1.1451,-1.1714,-1.2534,-1.2705,-1.2705,-1.2705,-1.2705,-1.2705,-1.2705,-1.2705,-1.2705,-1.2705,-1.2705,-1.2705,-1.2705,-1.2705,-1.2705,-1.2705,-1.2705,-1.2705,-1.2705,-1.2705,-1.2705,-1.2705,-1.2705,-1.2705,-1.2705,-1.2705,-1.2705,-1.2705,-1.2705,-1.2705,-1.2705,-1.2705,-1.2705,-1.2705,-1.2534,-1.2448,-1.2406,-1.216,-1.2037,-1.2,-1.2,-1.2,-1.2,-1.2,-1.1871,-1.1742,-1.1742,-1.1041,-1.012,-1.012,-0.9593,-0.8851,-0.8719,-0.8675,-0.85,-0.7577,-0.7272,-0.7051,-0.5947,-0.5591,-0.5413,-0.4926,-0.4703,-0.4391,-0.336,-0.3092,-0.3092,-0.3092,-0.3092,-0.2822,-0.1969,-0.17,-0.1611,-0.1611,-0.0806,-0.0179,-0.009,0.0673,0.139,0.166,0.2019,0.2289,0.2469,0.2739,0.292,0.292,0.292,0.323,0.4076,0.421,0.501,0.665,0.6962,0.7452,0.8212,0.8388,0.8648,0.9082,0.9257,0.9951,1.1111,1.1241,1.1746,-0.5399,-0.6343,-0.7088,-0.7962,-0.8886,-0.9893,-1.102,-1.0885,-1.0794,-1.1709,-1.1488,-1.144,-1.2528,-1.2705,-1.2705,-1.2705,-1.2705,-1.2705,-1.2705,-1.2705,-1.2705,-1.2705,-1.2705,-1.2705,-1.2705,-1.2705,-1.2705,-1.2705,-1.2229,-1.2143,-1.2662,-1.2186,-1.2143,-1.2662,-1.2705,-1.2705,-1.2705,-1.2705,-1.2705,-1.2705,-1.2186,-1.188,-1.1697,-1.0966,-1.1192,-1.216,-1.1909,-1.1742,-1.1564,-1.1035,-1.1127,-1.1564,-1.1041,-1.0776,-1.0689,-1.0689,-1.0033,-0.9113,-0.9113,-0.8851,-0.8412,-0.7885,-0.7709,-0.7536,-0.6615,-0.6305,-0.6216,-0.573,-0.5013,-0.4383,-0.4293,-0.3534,-0.2774,-0.2372,-0.2149,-0.1925,-0.1389,-0.1702,-0.1791,-0.0806,-0.0627,-0.0448,0.009,0.0493,0.0762,0.0762,0.1121,0.148,0.1749,0.2019,0.2289,0.2469,0.2739,0.3097,0.3631,0.3676,0.4076,0.501,0.5586,0.6251,0.7051,0.7632,0.8164,0.8612,0.8612,0.8828,0.9305,0.9777,1.0467,1.1322,1.2388,1.3069,-0.5434,-0.5941,-0.6334,-0.761,-0.8233,-0.8846,-1.0284,-1.0058,-0.9797,-1.0755,-1.0188,-1.0053,-1.1703,-1.2186,-1.2363,-1.2448,-1.24,-1.2363,-1.2448,-1.218,-1.2009,-1.2009,-1.2009,-1.2009,-1.2009,-1.2009,-1.2009,-1.2009,-1.1359,-1.123,-1.1966,-1.1537,-1.1628,-1.2314,-1.2357,-1.2357,-1.2357,-1.2095,-1.2009,-1.1966,-1.1235,-1.0794,-1.0616,-0.9579,-0.9893,-1.1208,-1.0992,-1.0781,-1.0516,-0.9811,-0.9946,-1.0516,-0.9816,-0.955,-0.955,-0.955,-0.8938,-0.8149,-0.8149,-0.7973,-0.7665,-0.6966,-0.6745,-0.6612,-0.5908,-0.5555,-0.5329,-0.5329,-0.4385,-0.3353,-0.3439,-0.2458,-0.1477,-0.1387,-0.1209,-0.0851,-0.0134,-0.0358,-0.0492,0.0224,0.0359,0.0583,0.13,0.1391,0.1391,0.1391,0.148,0.1615,0.1884,0.2109,0.2469,0.2915,0.3141,0.3631,0.4565,0.4654,0.5053,0.5985,0.6697,0.7228,0.7452,0.8208,0.8612,0.8612,0.8828,0.8999,0.9213,1.012,1.0933,1.1617,1.3281,1.4223,-0.469,-0.5087,-0.5398,-0.6827,-0.7841,-0.8544,-0.8632,-0.8627,-0.8842,-0.9792,-0.9231,-0.8886,-0.9879,-1.0755,-1.1456,-1.1714,-1.1542,-1.1456,-1.1714,-1.075,-1.0053,-1.0053,-1.0053,-1.0053,-1.0053,-1.0053,-1.0053,-1.0053,-1.0009,-1.0009,-1.0053,-1.0842,-1.1322,-1.137,-1.137,-1.137,-1.137,-1.0491,-1.0053,-1.0053,-0.9797,-0.9666,-0.9666,-0.9148,-0.8978,-0.9065,-0.8759,-0.8675,-0.8632,-0.8588,-0.8588,-0.8632,-0.8588,-0.8588,-0.8588,-0.8588,-0.7973,-0.7183,-0.7183,-0.6567,-0.5822,-0.5777,-0.5777,-0.5777,-0.5733,-0.506,-0.4389,-0.4389,-0.3489,-0.2503,-0.2237,-0.1969,-0.1478,-0.0358,-0.009,-0.0045,0.0,0.0673,0.1256,0.13,0.1345,0.1345,0.1391,0.1391,0.1391,0.1391,0.1615,0.1885,0.2154,0.2379,0.2915,0.4076,0.421,0.461,0.5542,0.563,0.603,0.6962,0.7095,0.754,0.848,0.8568,0.8612,0.8612,0.9428,0.9515,0.8911,1.0033,1.1187,1.2285,1.3535,1.4524,-0.4421,-0.4999,-0.5354,-0.6738,-0.736,-0.7753,-0.8368,-0.8017,-0.7885,-0.8798,-0.8233,-0.7709,-0.8057,-0.9497,-1.0631,-1.0577,-1.0631,-1.0631,-1.0577,-1.0183,-0.9879,-0.9879,-0.9879,-0.9879,-0.9879,-0.9879,-0.9879,-0.9879,-0.9362,-0.9274,-0.9879,-0.9666,-0.9758,-1.0361,-1.0404,-1.0404,-1.0404,-1.0053,-0.9836,-0.971,-0.9008,-0.8532,-0.8229,-0.7441,-0.7007,-0.683,-0.6745,-0.7404,-0.8456,-0.7841,-0.7973,-0.8456,-0.7841,-0.7621,-0.7621,-0.7621,-0.7007,-0.6216,-0.6216,-0.5997,-0.5688,-0.5688,-0.5285,-0.479,-0.479,-0.4164,-0.3403,-0.3403,-0.2416,-0.1341,-0.1208,-0.0492,0.0358,0.0807,0.0897,0.0897,0.0897,0.1166,0.1391,0.1391,0.1391,0.1391,0.1391,0.1391,0.1391,0.1391,0.2151,0.2776,0.3045,0.3848,0.4561,0.5142,0.5186,0.5586,0.6517,0.6605,0.7007,0.7988,0.8076,0.8208,0.8568,0.9126,0.9428,0.9428,1.0332,1.0463,0.982,1.1531,1.2681,1.3233,1.4391,1.5082,-0.3486,-0.433,-0.4954,-0.6296,-0.6874,-0.7272,-0.7885,-0.7533,-0.7272,-0.7885,-0.7536,-0.7095,-0.7095,-0.8412,-0.955,-0.9666,-0.9763,-0.9806,-0.9666,-0.927,-0.8965,-0.8965,-0.8965,-0.8965,-0.8965,-0.8965,-0.8965,-0.8965,-0.8364,0.0,-0.8921,-0.8671,-0.8803,-0.9405,-0.9449,-0.9231,-0.8882,-0.8838,-0.875,-0.8532,-0.783,-0.7353,-0.7007,-0.6305,-0.5863,-0.5688,-0.5688,-0.6393,-0.7489,-0.6877,-0.7007,-0.7489,-0.6877,-0.6612,-0.6612,-0.6612,-0.6219,-0.5688,-0.5688,-0.5508,-0.524,-0.524,-0.4612,-0.3851,-0.3851,-0.3179,-0.2374,-0.2329,-0.1298,-0.0224,-0.0134,0.0627,0.1391,0.1391,0.1391,0.1391,0.1391,0.1391,0.1391,0.1391,0.1391,0.1524,0.1838,0.1883,0.2016,0.2329,0.3173,0.3887,0.4067,0.4914,0.5672,0.6118,0.6163,0.6564,0.754,0.7584,0.7896,0.8568,0.8872,0.9043,0.9043,0.9903,1.0376,1.0376,1.1278,1.1542,1.1111,1.2644,1.3451,1.362,1.4824,1.5389,0.0,0.0,0.0,-0.5361,-0.634,-0.7007,-0.7051,-0.7051,-0.7051,-0.7095,-0.7095,-0.7095,-0.7095,-0.7544,-0.8157,-0.9017,-0.8978,-0.8934,-0.9104,-0.7969,-0.7095,-0.7095,-0.7095,-0.7095,-0.7095,-0.7095,-0.7095,-0.7095,-0.7095,-0.7095,-0.7095,-0.7973,-0.8456,-0.8456,-0.8456,-0.7929,-0.6795,-0.6795,-0.6659,-0.6384,-0.6213,-0.6083,-0.6083,-0.5822,-0.5688,-0.5688,-0.5688,-0.5688,-0.5688,-0.5688,-0.5688,-0.5688,-0.5688,-0.5688,-0.5644,-0.5644,-0.5644,-0.5599,-0.5599,-0.5015,-0.4253,-0.4253,-0.3628,-0.2867,-0.2867,-0.2152,-0.13,-0.1119,-0.0179,0.0762,0.1031,0.1256,0.1391,0.1436,0.1436,0.1436,0.148,0.148,0.148,0.1436,0.148,0.1793,0.2778,0.2956,0.3267,0.4156,0.4732,0.5041,0.5041,0.5492,0.6118,0.7051,0.7139,0.754,0.852,0.8612,0.8612,0.8656,0.9428,0.9903,0.9946,1.0852,1.1327,1.1327,1.2272,1.2753,1.2759,1.3209,1.3451,1.3451,1.4831,1.5438,-0.1791,0.0,0.0,0.0,0.0,0.0,-0.5941,-0.6074,-0.6296,-0.6962,-0.7095,-0.7095,-0.7095,-0.7367,-0.768,-0.7937,-0.8069,-0.8113,-0.7984,-0.7452,-0.7095,-0.7095,-0.7095,-0.7095,-0.7095,-0.7095,-0.7095,0.0,-0.7095,-0.7095,-0.7095,-0.736,-0.7492,-0.7492,-0.7492,-0.7275,-0.6795,-0.6795,-0.6571,-0.6169,-0.6127,-0.5997,-0.5819,-0.5733,-0.5688,-0.5688,-0.5688,-0.5688,-0.5688,-0.5688,-0.5688,-0.5688,-0.5688,-0.5285,-0.4701,-0.4701,-0.4253,-0.3673,-0.3673,-0.3494,-0.3269,-0.3269,-0.2599,-0.1792,-0.1656,-0.0896,-0.0045,0.0134,0.0583,0.1031,0.1256,0.1345,0.1569,0.2331,0.2465,0.2688,0.3353,0.3487,0.3309,0.2598,0.3042,0.3576,0.3844,0.4024,0.4202,0.4469,0.5534,0.629,0.629,0.718,0.79,0.8164,0.8164,0.83,0.8568,0.8612,0.8872,0.9515,0.9772,1.0202,1.0895,1.18,1.2314,1.2314,1.3222,1.3877,1.4289,1.4331,1.4349,1.4398,1.6049,1.6836,-0.1344,-0.206,-0.282,-0.3534,0.0,0.0,-0.5497,-0.5719,-0.5985,-0.6918,-0.7095,-0.7095,-0.7095,-0.7323,-0.7507,-0.7507,-0.7639,-0.7683,-0.7507,-0.7279,-0.7095,-0.7095,-0.7095,-0.7095,-0.7095,-0.7095,-0.7095,-0.7095,-0.7095,-0.7095,-0.7095,-0.7095,-0.7095,-0.7095,-0.701,-0.6877,-0.6656,-0.6571,-0.6308,-0.5952,-0.5952,-0.5863,-0.5688,-0.5285,-0.5104,-0.5104,-0.4701,-0.4523,-0.4523,-0.4523,-0.4748,-0.506,-0.4701,-0.421,-0.3717,-0.3717,-0.336,-0.2911,-0.2911,-0.2644,-0.2285,-0.2285,-0.1524,-0.0628,-0.0493,0.0,0.0583,0.0807,0.1345,0.1882,0.2017,0.233,0.2774,0.3357,0.3491,0.3623,0.42,0.4601,0.4603,0.3667,0.3933,0.4423,0.4823,0.4959,0.5184,0.5581,0.6473,0.7139,0.7228,0.794,0.8476,0.8568,0.8612,0.8612,0.8612,0.8911,0.9345,0.9859,1.0636,1.137,1.2033,1.2954,1.3534,1.3654,1.4189,1.4747,1.5216,1.4991,1.5078,1.5426,1.6503,1.7188,-0.0718,-0.1703,-0.2732,-0.2732,-0.3355,0.0,-0.5184,-0.5408,-0.5675,-0.6605,-0.6782,-0.6782,-0.6782,-0.6966,-0.7146,-0.7146,-0.7238,-0.7326,-0.7462,-0.7279,-0.7095,-0.7095,-0.7095,-0.7095,-0.7095,-0.7095,-0.7095,-0.7095,-0.7095,-0.7095,-0.7095,-0.7095,-0.7095,-0.7095,-0.6925,-0.6659,-0.6384,-0.608,-0.5816,-0.5555,-0.5419,-0.5374,-0.5374,-0.4523,-0.4164,-0.4119,-0.3269,-0.2911,-0.2911,-0.2778,-0.3269,-0.4074,-0.3226,-0.2822,-0.2732,-0.2732,-0.2689,-0.2598,-0.2598,-0.1973,-0.1256,-0.1256,-0.0493,0.0403,0.0448,0.0583,0.0807,0.1211,0.2151,0.3045,0.3045,0.3667,0.4334,0.4423,0.4467,0.4467,0.4601,0.527,0.563,0.4779,0.4601,0.4868,0.5719,0.5897,0.6166,0.701,0.7367,0.7635,0.79,0.8072,0.8292,0.8568,0.8696,0.874,0.874,0.9577,1.0154,1.0241,1.1867,1.2941,1.3309,1.4119,1.4696,1.5001,1.5087,1.5318,1.5758,1.5449,1.5654,1.6411,1.6662,1.7234,-0.0942,-0.1345,0.0,0.0,0.0,0.0,-0.3224,-0.3448,-0.3714,-0.4645,-0.4868,-0.4868,-0.4868,-0.4868,-0.4912,-0.4912,-0.5539,-0.6387,-0.7374,-0.7279,-0.7095,-0.7095,-0.7095,-0.7095,-0.7095,-0.7095,-0.7095,-0.7095,-0.7095,-0.7095,-0.7095,-0.7095,-0.7095,-0.7095,-0.6925,-0.6659,-0.6384,-0.545,-0.483,-0.4567,-0.3807,-0.3449,-0.3449,-0.3269,-0.3179,-0.3179,-0.3001,-0.2911,-0.2822,-0.2017,-0.2285,-0.3135,-0.2956,-0.2419,-0.1704,-0.1704,-0.1211,-0.0584,-0.0584,-0.0449,-0.0269,-0.0269,0.0045,0.0448,0.0583,0.0807,0.1256,0.224,0.3266,0.4022,0.4022,0.4156,0.4512,0.5228,0.5406,0.5628,0.6381,0.6694,0.6782,0.6605,0.6561,0.6605,0.6786,0.701,0.7194,0.7415,0.7635,0.79,0.8113,0.8157,0.8292,0.8568,0.9213,0.9646,0.9646,1.0759,1.1739,1.2443,1.3084,1.3772,1.4602,1.4832,1.4948,1.5008,1.5593,1.5944,1.6088,1.5906,1.6051,1.6419,1.8298,1.9222,0.0,0.0,0.0,-0.1391,0.0,0.0,0.0,-0.2911,-0.3178,-0.4111,-0.4289,-0.4289,-0.4289,-0.4289,-0.4289,-0.4289,-0.5092,-0.5764,-0.5894,-0.6605,-0.7095,-0.7095,-0.7095,-0.7095,-0.7095,-0.7095,-0.7095,-0.7095,-0.7095,-0.6874,-0.6432,-0.6384,-0.6115,-0.5531,-0.5314,-0.5095,-0.4823,-0.4158,-0.3715,-0.3583,-0.3135,-0.2911,-0.2867,-0.2374,-0.2152,-0.2107,-0.166,-0.1436,-0.1436,-0.0898,-0.0987,-0.1436,-0.1436,-0.1166,-0.0718,-0.0718,-0.0404,0.0,0.0,0.009,0.018,0.018,0.0762,0.1478,0.1568,0.2104,0.2818,0.3444,0.4291,0.5003,0.5003,0.5359,0.5802,0.6296,0.6384,0.6517,0.7007,0.7095,0.7095,0.7095,0.7095,0.7095,0.7095,0.7231,0.7323,0.7323,0.7547,0.794,0.8632,0.8926,0.9385,1.0102,1.0726,1.1054,1.1054,1.2053,1.2888,1.3341,1.3969,1.4566,1.517,1.5177,1.5342,1.5582,1.5956,1.6318,1.6597,1.6976,1.707,1.6895,1.8536,1.9555,0.0,0.0,0.0,0.0,0.0,-0.1614,0.0,0.0,0.0,-0.3576,-0.3755,-0.3755,-0.3755,-0.3755,-0.3755,-0.3755,-0.4559,0.0,0.0,-0.5492,0.0,-0.6561,-0.6871,-0.7007,-0.683,-0.683,-0.6738,-0.6561,-0.6561,-0.6251,-0.545,-0.5361,-0.4912,-0.3929,-0.3666,-0.3398,-0.3218,-0.282,-0.2598,-0.2598,-0.2419,-0.2331,-0.2331,-0.148,-0.1122,-0.1077,-0.0314,0.0,0.0,0.0,0.0,0.0,0.0,0.0,0.0,0.0,0.0,0.0045,0.0225,0.0449,0.0717,0.0896,0.1791,0.2774,0.2819,0.3666,0.4556,0.4556,0.5225,0.5985,0.5985,0.6517,0.7095,0.7095,0.7095,0.7095,0.7095,0.7095,0.7095,0.7095,0.7122,0.7132,0.7102,0.7272,0.7411,0.7528,0.7849,0.852,0.9561,1.0103,1.0746,1.1792,1.2236,1.2484,1.2484,1.3401,1.3938,1.3938,1.4728,1.5237,1.5471,1.5478,1.5685,1.6123,1.6359,1.673,1.72,1.8203,1.8295,1.7598,1.8788,1.9741,0.0,0.0,0.0,0.0,-0.1391,0.0,0.0,0.0,-0.1614,-0.1704,0.0,-0.1749,-0.1749,0.0,0.0,-0.1749,-0.2553,-0.3179,-0.309,-0.3979,-0.4601,-0.4601,-0.6068,-0.6786,-0.5941,-0.5852,-0.5494,-0.469,-0.4601,-0.4556,-0.4467,-0.4243,-0.4063,-0.3885,-0.3486,-0.322,-0.3218,-0.2106,-0.1569,-0.1569,-0.0718,-0.0314,-0.0314,-0.0225,-0.018,-0.0135,-0.0045,0.0,0.0,0.0,0.0,0.0,0.0,0.0,0.0,0.0,0.0,0.0135,0.0942,0.1434,0.179,0.2593,0.3263,0.3796,0.402,0.4781,0.5542,0.5542,0.6207,0.6962,0.6962,0.7007,0.7095,0.7095,0.7095,0.7095,0.7095,0.7095,0.7095,0.7095,0.7251,0.7302,0.7119,0.7797,0.8508,0.8971,0.9799,1.0622,1.1414,1.1557,1.1756,1.2126,1.2927,1.345,1.345,1.4499,1.5206,1.5206,1.5538,1.5698,1.5731,1.5731,1.5792,1.5832,1.6943,1.7638,1.7902,1.9109,1.9338,1.865,2.0512,2.1418,0.0,0.0,0.0,0.0,0.0,0.0,-0.1391,0.0,-0.1391,0.0,0.0,0.0,0.0,0.0,0.0,0.0,-0.224,-0.2688,0.0,0.0,-0.4289,-0.4289,0.0,0.0,-0.4914,-0.487,-0.4734,-0.4334,-0.4154,-0.3842,-0.3264,-0.2996,-0.2549,-0.1878,-0.1656,-0.1522,-0.1345,-0.0852,-0.0584,-0.0584,-0.018,0.0,0.0,0.0,0.0,0.0,0.0,0.0314,0.0808,0.0808,0.1166,0.1704,0.1704,0.1346,0.0898,0.148,0.1748,0.1926,0.2327,0.2684,0.3217,0.4289,0.4779,0.5045,0.5714,0.6204,0.6517,0.6517,0.6786,0.7095,0.7095,0.7095,0.7095,0.7095,0.7095,0.7122,0.7255,0.7717,0.8188,0.8291,0.8868,0.9304,0.9224,0.9034,0.9013,0.935,1.0414,1.15,1.2467,1.2883,1.335,1.4001,1.4566,1.4894,1.4894,1.5338,1.5651,1.5651,1.5758,1.5784,1.5784,1.5784,1.5879,1.6028,1.7131,1.787,1.8234,1.9906,2.0638,2.0512,2.1329,2.1695,-0.1391,0.0,0.0,0.0,0.0,0.0,0.0,0.0,0.0,0.0,0.0,0.0,0.0,0.0,-0.1391,-0.1391,0.0,-0.224,-0.1524,-0.2596,-0.3487,-0.3487,0.0,0.0,0.0,-0.3933,-0.3799,-0.3441,0.0,-0.2816,-0.206,-0.1792,-0.1254,-0.0448,-0.0314,-0.018,0.0,0.0,0.0,0.0,0.0,0.0,0.0,0.0269,0.0404,0.0404,0.0673,0.1166,0.1793,0.1793,0.224,0.2913,0.3179,0.2822,0.224,0.2777,0.3087,0.3263,0.3575,0.4154,0.4865,0.5761,0.6074,0.6207,0.6874,0.7095,0.7095,0.7095,0.7095,0.7095,0.7095,0.7129,0.7248,0.7508,0.7633,0.7788,0.8223,0.8881,0.942,0.9562,1.0231,1.0776,1.0776,1.0408,1.02,1.052,1.1651,1.2842,1.3792,1.4248,1.4752,1.5418,1.5705,1.5784,1.5784,1.5784,1.5784,1.5784,1.5784,1.5784,1.5784,1.5784,1.6021,1.6501,1.7552,1.8419,1.9109,2.0863,2.1854,2.2104,2.2104,2.2104,0.0,0.0,0.0,-0.1391,0.0,0.0,0.0,0.0,-0.1391,0.0,0.0,0.0,-0.1391,-0.1391,-0.1391,-0.1391,-0.1436,0.0,0.0,-0.1435,-0.148,-0.148,-0.233,0.0,0.0,-0.2956,-0.2464,0.0,-0.1211,-0.1076,-0.0762,-0.0583,-0.0448,-0.0403,-0.0135,0.0,0.0,0.0,0.0,0.0,0.0,0.0,0.0045,0.0942,0.1345,0.1391,0.2374,0.2823,0.2867,0.2867,0.2867,0.3001,0.3896,0.4253,0.4119,0.3443,0.3173,0.3352,0.4552,0.5714,0.6748,0.6966,0.7051,0.7051,0.7095,0.7095,0.7095,0.7095,0.7095,0.7095,0.7095,0.7251,0.7633,0.8619,0.898,0.9389,1.0362,1.0639,1.0639,1.0648,1.0852,1.0986,1.0887,1.175,1.2562,1.3082,1.4201,1.5153,1.567,1.571,1.5764,1.5764,1.5771,1.5784,1.5784,1.5784,1.5784,1.5784,1.5784,1.5784,1.5784,1.5784,1.6251,1.7232,1.8457,1.9679,2.0908,2.2157,2.2882,2.3047,2.3047,2.3047,0.0,0.0,-0.1391,-0.1391,0.0,0.0,0.0,0.0,0.0,0.0,0.0,0.0,0.0,0.0,-0.0179,-0.0673,-0.0272,0.0046,0.0,0.0093,0.014,0.014,-0.0957,-0.1704,0.0,0.0,0.0,0.0,-0.0718,0.0,-0.0493,-0.0269,-0.0135,-0.0135,-0.0045,0.0,0.0,0.0629,0.0942,0.0942,0.1614,0.1928,0.1928,0.224,0.2374,0.2419,0.2732,0.3269,0.3807,0.3807,0.421,0.4792,0.5104,0.5327,0.5458,0.523,0.5184,0.5403,0.6157,0.665,0.701,0.7098,0.7095,0.7095,0.7095,0.7095,0.7095,0.7095,0.7214,0.7472,0.8136,0.8443,0.8852,0.9856,1.0136,1.0315,1.082,1.1417,1.1937,1.1988,1.2655,1.3188,1.3141,1.3601,1.3767,1.3273,1.4106,1.501,1.5527,1.5588,1.5635,1.5778,1.5784,1.5784,1.5784,1.5784,1.6062,1.6763,1.681,1.7084,1.777,1.7777,1.7963,1.8288,1.9642,2.0584,2.0998,2.2369,2.3047,2.3091,2.3091,2.3091,-0.1391,-0.1391,0.0,-0.1391,-0.1391,0.0,-0.1391,0.0,0.0,0.0,0.0,0.0,0.0,0.0,0.0,-0.0314,0.0274,0.0788,0.0,0.1181,0.1334,0.0953,0.0278,-0.0317,-0.0635,0.0,-0.0314,-0.0583,-0.0493,-0.0359,0.0,0.0,0.0135,0.0494,0.0494,0.0673,0.1032,0.1614,0.1928,0.1928,0.2598,0.2911,0.2911,0.3226,0.3403,0.3403,0.3762,0.4253,0.479,0.479,0.5193,0.5863,0.5863,0.5994,0.6213,0.6213,0.6387,0.6697,0.7007,0.7095,0.7095,0.7095,0.7095,0.7194,0.7597,0.7749,0.7793,0.8149,0.8407,0.871,0.9272,0.9631,1.0104,1.1089,1.1376,1.1566,1.2041,1.2702,1.3185,1.3241,1.3806,1.4298,1.4298,1.4538,1.4496,1.3757,1.4436,1.5118,1.5445,1.554,1.5642,1.5778,1.5784,1.592,1.6298,1.6662,1.7131,1.7785,1.7831,1.8102,1.8788,1.8788,1.9018,1.9422,2.0458,2.123,2.1641,2.2643,2.3091,2.3091,2.3091,2.3091]},{"header":{"parameterUnit":"m.s-1","parameterCategory":1,"la1":30.6,"la2":29.2853,"lo1":-89.7004,"lo2":-87.6739,"dy":0.0162,"dx":0.0183,"nx":112,"ny":82,"refTime":"2023-05-23T12:00:00:Z","depth":0,"parameterNumber":3,"parameterNumberName":"V-component_of_WINDS"},"data":[0.0,0.0,0.0,0.0,0.0,0.0,0.0,0.0,0.0,0.0,0.0,0.0,0.0,0.0,0.0,0.0,0.0,0.0,0.0,0.0,0.0,0.0,0.0,0.0,0.0,0.0,0.0,0.0,0.0,0.0,0.0,0.0,0.0,0.0,0.0,0.0,0.0,0.0,0.0,0.0,0.0,0.0,0.0,0.0,0.0,0.0,0.0,0.0,0.0,0.0,0.0,0.0,0.0,0.0,0.0,0.0,0.0,0.0,0.0,0.0,0.0,0.0,0.0,0.0,0.0,0.0,0.0,0.0,0.0,0.0,0.0,0.0,0.0,0.0,0.0,0.0,0.0,0.0,0.0,0.0,0.0,0.0,0.0,0.0,0.0,0.0,0.0,0.0,0.0,0.0,3.8896,3.8586,3.7812,3.7333,3.7333,3.7433,3.7841,3.8658,0.0,0.0,0.0,0.0,0.0,0.0,0.0,0.0,0.0,0.0,0.0,0.0,0.0,0.0,0.0,0.0,0.0,0.0,0.0,0.0,0.0,0.0,0.0,0.0,0.0,0.0,0.0,0.0,0.0,0.0,0.0,0.0,0.0,0.0,0.0,0.0,0.0,0.0,0.0,0.0,0.0,0.0,0.0,0.0,0.0,0.0,0.0,0.0,0.0,0.0,0.0,0.0,0.0,0.0,0.0,0.0,0.0,0.0,0.0,0.0,0.0,0.0,0.0,0.0,0.0,0.0,0.0,0.0,0.0,0.0,0.0,0.0,0.0,0.0,0.0,0.0,0.0,0.0,0.0,0.0,0.0,0.0,0.0,0.0,0.0,0.0,0.0,0.0,0.0,0.0,0.0,0.0,0.0,0.0,0.0,0.0,0.0,0.0,0.0,0.0,0.0,0.0,0.0,0.0,3.7322,3.6174,3.5876,3.5745,3.5745,3.6284,3.6682,3.6874,0.0,0.0,0.0,0.0,0.0,0.0,0.0,0.0,0.0,0.0,0.0,0.0,0.0,0.0,0.0,0.0,0.0,0.0,0.0,0.0,0.0,0.0,0.0,0.0,0.0,0.0,0.0,0.0,0.0,0.0,0.0,0.0,0.0,0.0,0.0,0.0,0.0,0.0,0.0,0.0,0.0,0.0,0.0,0.0,0.0,0.0,0.0,0.0,0.0,0.0,0.0,0.0,0.0,0.0,0.0,0.0,0.0,0.0,0.0,0.0,0.0,0.0,0.0,0.0,0.0,0.0,0.0,0.0,0.0,0.0,0.0,0.0,0.0,0.0,0.0,0.0,0.0,0.0,0.0,0.0,0.0,0.0,0.0,0.0,0.0,0.0,0.0,0.0,0.0,0.0,0.0,0.0,0.0,0.0,0.0,0.0,0.0,0.0,0.0,0.0,0.0,0.0,0.0,3.6557,3.5727,3.4499,3.4332,3.4211,3.3965,3.4208,3.4603,3.5117,3.6079,0.0,0.0,0.0,0.0,0.0,0.0,0.0,0.0,0.0,0.0,0.0,0.0,0.0,0.0,0.0,0.0,0.0,0.0,0.0,0.0,0.0,0.0,0.0,0.0,0.0,0.0,0.0,0.0,0.0,0.0,0.0,0.0,0.0,0.0,0.0,0.0,0.0,0.0,0.0,0.0,0.0,0.0,0.0,0.0,0.0,0.0,0.0,0.0,0.0,0.0,0.0,0.0,0.0,0.0,0.0,0.0,0.0,0.0,0.0,0.0,0.0,0.0,0.0,0.0,0.0,0.0,0.0,0.0,0.0,0.0,0.0,0.0,0.0,0.0,0.0,0.0,0.0,0.0,0.0,0.0,0.0,0.0,0.0,0.0,0.0,0.0,0.0,0.0,0.0,0.0,0.0,0.0,0.0,0.0,0.0,0.0,0.0,0.0,0.0,0.0,0.0,0.0,3.4864,3.4315,3.3323,3.2981,3.2683,3.2299,3.2146,3.2311,3.2994,3.3231,0.0,0.0,0.0,0.0,0.0,0.0,0.0,0.0,0.0,0.0,0.0,0.0,0.0,0.0,0.0,0.0,0.0,0.0,0.0,0.0,0.0,0.0,0.0,0.0,0.0,0.0,0.0,0.0,0.0,0.0,0.0,0.0,0.0,0.0,0.0,0.0,0.0,0.0,0.0,0.0,0.0,0.0,0.0,0.0,0.0,0.0,0.0,0.0,0.0,0.0,0.0,0.0,0.0,0.0,0.0,0.0,0.0,0.0,0.0,0.0,0.0,0.0,0.0,0.0,0.0,0.0,0.0,0.0,0.0,0.0,0.0,0.0,0.0,0.0,0.0,0.0,0.0,0.0,0.0,0.0,0.0,0.0,0.0,0.0,0.0,0.0,0.0,0.0,0.0,0.0,0.0,0.0,0.0,0.0,0.0,0.0,0.0,0.0,0.0,0.0,0.0,0.0,3.3629,3.338,3.2707,3.1719,3.1057,3.1028,3.0468,3.0125,3.0186,3.0201,0.0,0.0,0.0,0.0,0.0,0.0,0.0,0.0,0.0,0.0,0.0,0.0,0.0,0.0,0.0,0.0,0.0,0.0,0.0,0.0,0.0,0.0,0.0,0.0,0.0,0.0,0.0,0.0,0.0,0.0,0.0,0.0,0.0,0.0,0.0,0.0,0.0,0.0,0.0,0.0,0.0,0.0,0.0,0.0,0.0,0.0,0.0,0.0,0.0,0.0,0.0,0.0,0.0,0.0,0.0,0.0,0.0,0.0,0.0,0.0,0.0,0.0,0.0,0.0,0.0,0.0,0.0,0.0,0.0,0.0,0.0,0.0,0.0,0.0,0.0,0.0,0.0,0.0,0.0,0.0,0.0,0.0,0.0,0.0,0.0,0.0,0.0,0.0,0.0,0.0,0.0,0.0,0.0,0.0,0.0,0.0,0.0,0.0,0.0,0.0,0.0,0.0,3.2594,3.2461,3.1851,3.0984,3.0362,3.0103,2.9445,2.9024,2.9024,0.0,0.0,0.0,0.0,0.0,0.0,0.0,0.0,0.0,0.0,0.0,0.0,0.0,0.0,0.0,0.0,0.0,0.0,0.0,0.0,0.0,0.0,0.0,0.0,0.0,0.0,0.0,0.0,0.0,0.0,0.0,0.0,0.0,0.0,0.0,0.0,0.0,0.0,0.0,0.0,0.0,0.0,0.0,0.0,0.0,0.0,0.0,0.0,0.0,0.0,0.0,0.0,0.0,0.0,0.0,0.0,0.0,0.0,0.0,0.0,0.0,0.0,0.0,0.0,0.0,0.0,0.0,0.0,0.0,0.0,0.0,0.0,0.0,0.0,0.0,0.0,0.0,0.0,0.0,0.0,0.0,0.0,0.0,0.0,0.0,0.0,0.0,0.0,0.0,0.0,0.0,0.0,0.0,0.0,0.0,0.0,0.0,0.0,0.0,0.0,0.0,0.0,3.1781,3.1838,3.1768,3.1336,3.0315,2.9552,2.9282,2.8409,2.7855,2.7855,0.0,0.0,0.0,0.0,0.0,0.0,0.0,0.0,0.0,0.0,0.0,0.0,0.0,0.0,0.0,0.0,0.0,0.0,0.0,0.0,0.0,0.0,0.0,0.0,0.0,0.0,0.0,0.0,0.0,0.0,0.0,0.0,0.0,0.0,0.0,0.0,0.0,0.0,0.0,0.0,0.0,0.0,0.0,0.0,0.0,0.0,0.0,0.0,0.0,0.0,0.0,0.0,0.0,0.0,0.0,0.0,0.0,0.0,0.0,0.0,0.0,0.0,0.0,0.0,0.0,0.0,0.0,0.0,0.0,0.0,0.0,0.0,0.0,0.0,0.0,0.0,0.0,0.0,0.0,0.0,0.0,0.0,0.0,0.0,0.0,0.0,0.0,0.0,0.0,0.0,0.0,0.0,0.0,0.0,0.0,0.0,0.0,0.0,0.0,0.0,0.0,0.0,3.1336,3.1278,3.1278,3.1278,2.9597,2.8492,2.8492,2.7263,2.6499,0.0,0.0,0.0,0.0,0.0,0.0,0.0,0.0,0.0,0.0,0.0,0.0,0.0,0.0,0.0,0.0,0.0,0.0,0.0,0.0,0.0,0.0,0.0,0.0,0.0,0.0,0.0,0.0,0.0,0.0,0.0,0.0,0.0,0.0,0.0,0.0,0.0,0.0,0.0,0.0,0.0,0.0,0.0,0.0,0.0,0.0,0.0,0.0,0.0,0.0,0.0,0.0,0.0,0.0,0.0,0.0,0.0,0.0,0.0,0.0,0.0,0.0,0.0,0.0,0.0,0.0,0.0,0.0,0.0,0.0,0.0,0.0,0.0,0.0,0.0,0.0,0.0,0.0,0.0,0.0,0.0,0.0,0.0,0.0,0.0,0.0,0.0,0.0,0.0,0.0,0.0,0.0,0.0,0.0,0.0,0.0,0.0,0.0,0.0,0.0,0.0,0.0,0.0,3.0552,3.0404,3.0254,2.9917,2.8395,2.7425,2.7571,2.6782,2.6339,2.6499,0.0,0.0,0.0,0.0,0.0,0.0,0.0,0.0,0.0,0.0,0.0,0.0,0.0,0.0,0.0,0.0,0.0,0.0,0.0,0.0,0.0,0.0,0.0,0.0,0.0,0.0,0.0,0.0,0.0,0.0,0.0,0.0,0.0,0.0,0.0,0.0,0.0,0.0,0.0,0.0,0.0,0.0,0.0,0.0,0.0,0.0,0.0,0.0,0.0,0.0,0.0,0.0,0.0,0.0,0.0,0.0,0.0,0.0,0.0,0.0,0.0,0.0,0.0,0.0,0.0,0.0,0.0,0.0,0.0,0.0,0.0,0.0,0.0,0.0,0.0,0.0,0.0,0.0,0.0,0.0,0.0,0.0,0.0,0.0,0.0,0.0,0.0,0.0,0.0,0.0,0.0,0.0,0.0,0.0,0.0,0.0,0.0,0.0,0.0,0.0,0.0,0.0,2.9373,2.9393,2.9317,2.8839,2.7657,2.6968,2.7196,2.6589,2.6305,2.6499,0.0,0.0,0.0,0.0,0.0,0.0,0.0,0.0,0.0,0.0,0.0,0.0,0.0,0.0,0.0,0.0,0.0,0.0,0.0,0.0,0.0,0.0,0.0,0.0,0.0,0.0,0.0,0.0,0.0,0.0,0.0,0.0,0.0,0.0,0.0,0.0,0.0,0.0,0.0,0.0,0.0,0.0,0.0,0.0,0.0,0.0,0.0,0.0,0.0,0.0,0.0,0.0,0.0,0.0,0.0,0.0,0.0,0.0,0.0,0.0,0.0,0.0,0.0,0.0,0.0,0.0,0.0,0.0,0.0,0.0,0.0,0.0,0.0,0.0,0.0,0.0,0.0,0.0,0.0,0.0,0.0,0.0,0.0,0.0,0.0,0.0,0.0,0.0,0.0,0.0,0.0,0.0,0.0,0.0,0.0,0.0,0.0,0.0,0.0,0.0,0.0,0.0,2.8097,2.839,2.8454,2.792,2.7191,2.6833,2.7061,2.6521,2.627,2.6499,0.0,0.0,0.0,0.0,0.0,0.0,0.0,0.0,0.0,0.0,0.0,0.0,0.0,0.0,0.0,0.0,0.0,0.0,0.0,0.0,0.0,0.0,0.0,0.0,0.0,0.0,0.0,0.0,0.0,0.0,0.0,0.0,0.0,0.0,0.0,0.0,0.0,0.0,0.0,0.0,0.0,0.0,0.0,0.0,0.0,0.0,0.0,0.0,0.0,0.0,0.0,0.0,0.0,0.0,0.0,0.0,0.0,0.0,0.0,0.0,3.5856,0.0,0.0,0.0,0.0,0.0,0.0,0.0,0.0,0.0,0.0,0.0,0.0,0.0,0.0,0.0,0.0,0.0,0.0,0.0,0.0,0.0,0.0,0.0,0.0,0.0,0.0,0.0,0.0,0.0,0.0,0.0,0.0,0.0,0.0,0.0,0.0,0.0,0.0,0.0,0.0,0.0,2.7703,2.7716,2.7557,2.6963,2.6136,2.5791,2.6129,2.605,2.6119,2.6499,2.6499,0.0,0.0,0.0,0.0,0.0,0.0,0.0,0.0,0.0,0.0,0.0,0.0,0.0,0.0,0.0,0.0,0.0,0.0,0.0,0.0,0.0,0.0,0.0,0.0,0.0,0.0,0.0,0.0,0.0,0.0,0.0,0.0,0.0,0.0,0.0,0.0,0.0,0.0,0.0,0.0,0.0,0.0,0.0,0.0,0.0,0.0,0.0,0.0,0.0,0.0,0.0,0.0,0.0,0.0,0.0,0.0,0.0,0.0,0.0,0.0,3.4905,0.0,0.0,0.0,0.0,0.0,0.0,0.0,0.0,0.0,0.0,0.0,0.0,0.0,0.0,0.0,0.0,0.0,0.0,0.0,0.0,0.0,0.0,0.0,0.0,0.0,0.0,0.0,0.0,0.0,0.0,0.0,0.0,0.0,0.0,0.0,0.0,0.0,0.0,0.0,0.0,2.6718,2.6913,2.6926,2.6458,2.5744,2.5418,2.5723,2.5828,2.6015,2.6339,2.6465,0.0,0.0,0.0,0.0,0.0,0.0,0.0,0.0,0.0,0.0,0.0,0.0,0.0,0.0,0.0,0.0,0.0,0.0,0.0,0.0,0.0,0.0,0.0,0.0,0.0,0.0,0.0,0.0,0.0,0.0,0.0,0.0,0.0,0.0,0.0,0.0,0.0,0.0,0.0,0.0,0.0,0.0,0.0,0.0,0.0,0.0,0.0,0.0,0.0,0.0,0.0,0.0,0.0,3.3495,3.3277,3.315,3.2986,3.2933,3.2917,3.3061,3.3087,3.305,3.2625,0.0,0.0,0.0,0.0,0.0,0.0,0.0,0.0,0.0,0.0,0.0,0.0,0.0,0.0,0.0,0.0,0.0,0.0,0.0,0.0,0.0,0.0,0.0,0.0,2.9373,2.9247,0.0,0.0,0.0,0.0,0.0,0.0,0.0,0.0,0.0,0.0,0.0,0.0,2.5674,2.6104,2.6371,2.599,2.5558,2.5382,2.5571,2.5793,2.598,2.6179,2.6396,2.6499,0.0,0.0,0.0,0.0,0.0,0.0,0.0,0.0,0.0,0.0,0.0,0.0,0.0,0.0,0.0,0.0,0.0,0.0,0.0,0.0,0.0,0.0,0.0,0.0,0.0,0.0,0.0,0.0,0.0,0.0,0.0,0.0,3.9977,3.9663,0.0,0.0,0.0,0.0,0.0,0.0,0.0,0.0,0.0,0.0,0.0,0.0,0.0,3.4438,3.3795,3.3427,3.3156,3.2949,3.2574,3.2315,3.2178,3.1979,3.1823,3.1694,3.1334,0.0,3.2552,3.2096,0.0,0.0,0.0,0.0,0.0,0.0,0.0,0.0,0.0,0.0,0.0,0.0,0.0,0.0,0.0,0.0,0.0,0.0,0.0,0.0,0.0,0.0,2.9131,2.8844,2.8716,2.8619,0.0,2.878,2.9162,2.9099,2.9067,0.0,0.0,0.0,0.0,0.0,0.0,0.0,2.5335,2.5581,2.5546,2.5028,2.5182,2.5382,2.5571,2.5793,2.598,2.6179,2.6396,2.6499,2.6499,2.6679,0.0,0.0,0.0,0.0,0.0,0.0,0.0,0.0,0.0,0.0,0.0,0.0,0.0,0.0,0.0,0.0,0.0,0.0,0.0,0.0,0.0,0.0,0.0,0.0,0.0,0.0,0.0,0.0,0.0,3.9908,3.9593,3.9263,3.9149,3.9089,0.0,0.0,0.0,0.0,0.0,0.0,0.0,0.0,0.0,3.4811,3.4112,3.3427,3.2722,3.252,3.2327,3.2046,3.1608,3.1379,3.1321,3.0955,3.0658,3.0434,3.0222,3.0299,3.0585,3.0585,3.024,2.9701,0.0,0.0,0.0,0.0,2.8379,2.843,2.8885,2.9044,0.0,2.8976,0.0,0.0,0.0,0.0,0.0,0.0,0.0,0.0,0.0,0.0,2.8503,2.8341,2.8229,2.8118,2.7954,2.8052,2.8183,0.0,2.7729,2.7103,2.6045,0.0,0.0,0.0,0.0,2.5953,2.5487,2.5627,2.5652,2.5276,2.5111,2.5123,2.5418,2.5723,2.5945,2.6027,2.6679,2.7074,2.7074,2.7597,2.7914,0.0,0.0,0.0,0.0,0.0,0.0,0.0,0.0,0.0,0.0,0.0,0.0,0.0,0.0,0.0,0.0,0.0,0.0,0.0,0.0,0.0,0.0,0.0,0.0,0.0,0.0,0.0,0.0,3.9435,3.9046,3.8787,3.8508,3.83,0.0,0.0,0.0,0.0,0.0,0.0,3.6504,3.5503,3.4636,3.4038,3.3229,3.2461,3.1682,3.1682,3.1466,3.1058,3.0688,3.0478,3.0404,3.0038,2.9699,2.9404,2.931,2.9058,2.872,2.9121,2.8976,2.8476,2.817,2.7875,2.7656,2.7623,2.759,2.7676,2.8293,2.8473,2.8473,2.8371,0.0,2.839,2.7776,0.0,0.0,0.0,0.0,2.7914,2.7914,2.7914,2.7947,2.7947,2.7822,2.7723,2.7723,2.741,2.7175,0.0,2.6871,2.6264,2.5687,0.0,0.0,0.0,0.0,2.6368,2.5789,2.5836,2.5861,2.5732,2.5453,2.5336,2.5523,2.6047,2.6302,2.6164,2.7183,2.7769,2.7769,2.8454,2.8903,2.9002,0.0,0.0,0.0,0.0,0.0,0.0,0.0,0.0,0.0,0.0,0.0,0.0,0.0,0.0,0.0,0.0,0.0,0.0,0.0,0.0,0.0,0.0,0.0,0.0,0.0,0.0,0.0,0.0,0.0,3.8167,3.779,0.0,0.0,0.0,0.0,3.6958,3.6113,3.5358,3.4841,3.3754,3.2841,3.2163,3.1894,3.1495,3.0866,3.0866,3.0524,2.987,2.9747,2.9546,2.9373,2.9212,2.9053,2.8835,2.8514,2.8091,2.7617,2.8157,2.8352,2.8254,2.759,2.7335,2.7302,2.7113,2.7045,2.7045,2.7079,2.7113,2.7113,2.7079,2.7113,2.7079,2.7045,2.7058,0.0,0.0,2.718,2.7335,2.7335,2.7436,2.7523,2.7523,2.7523,2.7523,2.7523,2.6824,2.6436,0.0,2.7456,2.7209,2.6483,0.0,2.638,2.6311,2.5791,2.5616,2.6277,2.6104,2.5953,2.6045,2.6393,2.6474,2.6186,2.7048,2.7404,2.69,2.7841,2.846,2.846,2.8812,2.9002,2.9002,2.8745,0.0,0.0,0.0,0.0,0.0,0.0,0.0,0.0,0.0,0.0,0.0,0.0,0.0,0.0,0.0,0.0,0.0,0.0,0.0,0.0,0.0,0.0,0.0,0.0,0.0,0.0,0.0,0.0,3.734,3.6937,0.0,3.6698,3.6512,3.6207,3.5778,3.5307,3.471,3.3972,3.3213,3.247,3.1762,3.1349,3.0777,3.004,3.0023,2.9732,2.9139,2.8885,2.8597,2.826,2.798,2.7729,2.743,2.7464,2.7196,2.6812,2.6981,2.7162,2.7242,2.7019,2.6918,2.6897,2.6829,2.6794,2.6841,2.6943,2.699,2.699,2.699,2.6909,2.6829,2.6943,2.699,2.699,2.699,2.7045,2.7113,2.7113,2.7146,2.718,2.718,2.718,2.718,2.718,2.693,2.6829,2.7302,2.6871,2.638,2.6139,2.6598,2.6803,2.6264,2.6483,2.662,2.6427,2.6311,2.6173,2.6,2.6173,2.6393,2.6508,2.725,2.7637,2.7438,2.8538,2.9219,2.9219,2.9948,3.0358,3.0358,3.0037,2.9207,0.0,0.0,0.0,0.0,0.0,0.0,0.0,0.0,0.0,0.0,0.0,0.0,0.0,0.0,0.0,0.0,0.0,0.0,0.0,0.0,0.0,0.0,0.0,0.0,0.0,3.7612,3.7041,3.6843,3.6367,3.6122,3.6241,3.5815,3.5311,3.4828,3.4325,3.3687,3.2903,3.2357,3.1704,3.094,3.0525,2.9917,2.917,2.9044,2.857,2.7795,2.7478,2.7178,2.6862,2.6637,2.6539,2.6543,2.6667,2.6414,2.5931,2.6,2.6082,2.6151,2.6336,2.6418,2.6452,2.6499,2.6521,2.6568,2.6671,2.6717,2.6717,2.6717,2.6705,2.6658,2.6807,2.6841,2.6841,2.6841,2.6875,2.6909,2.6909,2.6943,2.699,2.699,2.699,2.699,2.699,2.6956,2.6943,2.7066,2.6701,2.638,2.6414,2.6952,2.7188,2.6654,2.7108,2.7323,2.6837,2.6769,2.6688,2.6552,2.6676,2.6824,2.6952,2.7815,2.8208,2.7901,2.9188,2.9884,2.9761,3.0612,3.1117,3.1117,3.0688,2.9898,2.8685,0.0,0.0,0.0,0.0,0.0,0.0,0.0,0.0,0.0,0.0,0.0,0.0,0.0,0.0,0.0,0.0,0.0,0.0,0.0,0.0,0.0,0.0,0.0,3.8209,3.7666,3.7098,3.6706,3.6139,3.5728,3.56,3.4981,3.4479,3.4186,3.3151,3.2235,3.1602,3.1087,3.0418,2.9591,2.9373,2.8949,2.8254,2.7835,2.6997,2.5763,2.5543,2.5333,2.511,2.511,2.5498,2.6117,2.6117,2.5687,2.4981,2.5194,2.5158,2.5052,2.5641,2.5875,2.591,2.6131,2.6179,2.6179,2.6213,2.6213,2.6213,2.6213,2.6339,2.6499,2.6499,2.6499,2.6499,2.6499,2.6589,2.6679,2.6679,2.6841,2.6977,2.6977,2.6977,2.6977,2.6977,2.6829,2.6679,2.6679,2.6998,2.7335,2.7456,2.749,2.749,2.749,2.749,0.0,2.749,2.749,2.759,2.7776,2.7967,2.7947,2.757,2.8798,2.9212,2.8384,2.9747,3.0431,3.0111,3.0746,3.1117,3.1117,3.0703,3.0353,3.0097,0.0,0.0,0.0,0.0,0.0,0.0,0.0,0.0,0.0,0.0,0.0,0.0,0.0,0.0,0.0,0.0,0.0,0.0,0.0,0.0,0.0,3.8334,3.7614,3.7397,3.6609,3.6011,3.5849,3.5594,3.536,3.5095,3.4842,3.4374,3.3665,3.3145,3.2376,3.1246,3.0793,3.007,2.8894,2.8532,2.8032,2.7364,2.6535,2.58,2.5192,2.4422,2.3881,2.354,2.3382,2.3588,2.412,2.4516,2.4576,2.4431,2.4909,2.4814,2.4503,2.517,2.5641,2.591,2.5945,2.598,2.598,2.6131,2.6213,2.6201,2.6361,2.6465,2.6499,2.6499,2.6499,2.6499,2.6499,2.6521,2.6555,2.6555,2.6602,2.6636,2.6636,2.6636,2.6636,2.6636,2.6589,2.6589,2.6692,2.6794,2.6897,2.6918,2.7167,2.7335,2.7335,2.7436,0.0,2.7689,2.7723,2.7756,2.7776,2.8072,2.8151,2.7947,2.8748,2.9131,2.8894,2.9713,3.0203,3.008,3.0582,3.1014,3.1234,3.0844,3.0458,0.0,0.0,0.0,0.0,0.0,0.0,0.0,0.0,0.0,0.0,0.0,0.0,0.0,0.0,0.0,0.0,0.0,0.0,0.0,0.0,0.0,0.0,3.784,3.7055,3.6783,3.6207,3.565,3.5222,3.5105,3.4923,3.4594,3.4218,3.3732,3.3188,3.2403,3.1534,3.0539,2.9903,2.9139,2.8164,2.7796,2.7317,2.6756,2.6022,2.5264,2.4493,2.3854,2.3342,2.2957,2.2809,2.3106,2.368,2.4009,2.4057,2.397,2.4274,2.4238,0.0,0.0,0.0,0.0,0.0,2.5758,2.5793,2.591,2.5945,2.598,2.6072,2.6176,2.6258,2.6361,2.6361,2.6396,2.6499,2.6499,2.6499,2.6499,2.6499,2.6499,2.6499,2.6499,2.6499,2.6499,2.6499,2.6521,2.6589,2.6658,0.0,2.6794,2.71,2.7302,2.7369,2.7469,2.7556,2.7776,2.7809,2.7822,2.7934,2.8137,2.8268,2.8183,2.8748,0.0,0.0,0.0,3.0341,3.0837,3.1131,0.0,0.0,0.0,3.1573,3.123,0.0,0.0,0.0,2.804,2.7528,0.0,0.0,0.0,0.0,0.0,0.0,0.0,0.0,0.0,0.0,0.0,0.0,0.0,0.0,0.0,0.0,3.7231,3.6374,3.6333,3.6101,3.5638,3.4811,3.4643,3.4448,3.4075,3.3413,3.2949,3.2788,3.1391,3.0359,2.9856,0.0,0.0,0.0,0.0,2.6735,2.6358,2.5886,2.5016,2.3756,2.3497,2.3187,2.2815,2.2815,2.3213,2.397,2.4007,2.3824,2.3519,2.3593,2.3641,2.374,2.449,2.479,2.4861,2.5371,2.5571,2.5571,2.5571,0.0,0.0,2.5641,2.5758,2.5945,2.6131,2.6213,2.6236,2.643,2.6499,2.6499,2.6499,2.6499,2.6499,2.6499,2.6499,2.6499,2.6499,2.6499,2.6499,2.6499,2.6624,2.676,2.6977,2.718,2.7335,2.7503,2.749,2.7556,2.7776,2.7822,2.7888,2.8079,0.0,0.0,2.8287,2.8766,2.9067,2.9099,2.9789,3.0688,3.189,3.2015,3.2431,3.3156,3.3251,3.3161,3.2868,3.2285,3.1529,3.0634,2.8876,2.7887,0.0,0.0,0.0,0.0,0.0,0.0,0.0,0.0,0.0,0.0,0.0,0.0,0.0,0.0,0.0,3.7737,3.6962,3.627,3.589,3.5345,3.489,3.4715,3.4325,3.3949,3.3642,3.3398,3.3076,3.2668,3.1649,3.0734,3.0013,2.8834,2.7874,2.7108,2.6598,2.6233,2.6002,2.4718,2.3922,2.3618,0.0,0.0,2.1769,2.1634,2.189,2.2515,2.2852,2.3038,2.315,2.3482,2.3787,2.4127,2.461,2.479,2.4861,2.5218,2.5347,2.5382,2.5535,2.5606,2.5641,2.5793,2.5875,2.5945,2.6131,2.6213,0.0,2.643,2.6499,2.6499,2.6499,2.6499,2.6499,2.6499,2.6499,2.6499,2.6499,2.6499,2.6499,2.6499,2.6624,2.676,2.6977,2.718,2.7335,2.7503,2.749,2.7556,2.7776,2.7934,2.8046,2.8112,2.836,2.8476,2.832,2.8541,2.8812,2.9067,3.0085,3.1131,3.2198,3.2795,3.3077,3.3039,3.362,3.3713,3.3266,3.3134,3.2825,3.2276,3.0113,2.8778,0.0,0.0,0.0,0.0,0.0,0.0,0.0,0.0,0.0,0.0,0.0,3.9229,3.899,0.0,3.7773,3.7058,3.6385,3.5764,3.5226,3.4545,3.4151,3.4275,3.3949,3.3539,3.3102,3.2915,3.2726,3.2425,3.1217,3.0286,2.9768,2.8395,2.7317,2.6722,2.6371,2.6072,2.5758,2.4778,2.4166,2.3897,2.2964,2.244,2.2252,2.2166,2.2279,2.2553,2.2777,2.2927,2.3001,2.3224,2.3409,2.3677,2.4273,2.4742,2.5087,2.5241,2.5312,2.5347,2.5769,2.5886,2.5955,2.6336,2.6564,2.6722,2.6905,2.7061,2.7229,2.7451,2.7517,2.7517,2.7517,2.7517,2.7417,2.7061,2.7007,2.6905,2.6555,2.6499,2.6521,2.6589,2.6658,2.6884,2.7556,2.7469,2.7335,2.7503,2.749,2.759,2.7901,2.8046,2.8145,2.8341,2.8503,2.8554,2.8476,2.883,2.9338,2.9901,3.0628,3.1593,3.281,3.3209,3.3572,3.3935,3.4382,3.4358,3.3841,3.4002,3.363,3.2756,3.1308,3.0299,0.0,0.0,0.0,0.0,0.0,0.0,0.0,4.0367,4.0273,3.9903,3.9364,3.891,3.8696,3.8079,3.7355,3.6563,3.5921,3.5278,3.4681,3.3968,3.3555,3.3678,3.3461,3.3091,3.2602,3.2425,3.2274,3.215,3.0733,2.9752,2.9411,2.7881,2.6829,2.6371,2.6188,2.5945,2.5606,2.5099,2.4635,2.4189,2.3703,2.3298,2.3001,2.3001,2.3001,2.3001,2.3001,2.3001,2.3001,2.3001,2.3038,2.3187,2.3824,2.4611,2.5335,2.5312,2.5382,2.5558,2.6013,2.6267,2.6427,2.6871,2.7229,2.755,2.767,2.792,2.8247,2.8427,2.8492,2.8492,2.8492,2.8492,2.8363,2.7835,2.7703,2.7517,2.685,2.6679,2.6714,2.6871,2.6939,2.7263,2.832,2.8059,2.7709,2.7689,2.7623,2.7723,2.8164,2.8295,2.8476,2.8881,2.8958,2.8958,2.8894,2.932,2.9991,3.0852,3.1277,3.2102,3.3485,3.3588,3.4011,3.4899,3.5018,3.4899,3.4448,3.4715,3.433,3.3323,3.2693,3.187,3.9994,4.0519,4.0883,4.0897,4.0937,4.0854,0.0,4.0221,4.0091,3.9644,3.9221,3.8829,3.8569,3.8017,3.7374,3.6681,3.5964,3.5278,3.4681,3.3968,3.3356,3.2964,3.2683,3.2508,3.2425,3.2191,3.1996,3.1841,3.0807,2.9815,2.9097,2.7868,2.6871,2.6236,2.5863,2.5653,2.5606,2.4718,2.4261,2.42,2.3446,2.3038,2.3001,2.3001,2.3001,2.3001,2.3001,2.3001,2.3001,2.3001,2.3224,2.3519,2.3641,2.4443,2.5534,2.537,2.5629,2.6117,2.6198,2.6496,2.6939,2.6973,2.7229,2.755,2.767,2.792,2.8247,2.8427,2.8492,2.8492,2.8492,2.8492,2.8492,2.8395,2.8395,2.8214,2.755,2.7384,2.7417,2.7571,2.7736,2.8149,2.9044,2.9219,2.9048,2.8481,2.8039,2.8006,2.8643,2.8994,2.939,2.9952,3.0163,3.0162,2.9858,2.9699,3.0099,3.1261,3.1862,3.2745,3.3958,3.4259,3.4546,3.4899,3.5018,3.5065,3.5018,3.5268,3.535,3.5186,3.4527,3.3034,4.1249,4.1146,4.0955,4.0959,4.0975,4.0855,4.0312,4.0194,4.0062,3.9595,3.9092,3.8628,3.8378,3.7774,3.6958,3.5904,3.5436,3.4854,3.3866,3.3382,3.3,3.2602,3.2342,3.215,3.2066,3.194,3.1769,3.1539,3.0718,3.0025,2.9501,2.8422,2.7464,2.662,2.6255,2.5781,2.5135,2.4526,2.408,2.3861,2.3519,2.3224,2.3001,2.3224,2.3224,2.3001,2.3001,2.3001,2.3038,2.3449,2.3815,2.4143,2.4791,2.5487,2.6032,2.5627,2.6,2.6701,2.704,2.7276,2.751,2.7842,2.817,2.8495,2.8739,2.9026,2.9373,2.9639,2.9732,2.9732,2.9732,2.9732,2.9625,2.9219,2.9188,2.903,2.8247,2.8247,2.8395,2.846,2.8634,2.903,2.9842,2.9704,2.958,2.9811,2.9331,2.9079,2.947,2.9704,2.9966,3.0345,3.045,3.0539,3.0689,3.0614,3.0984,3.2046,3.2473,3.3135,3.4075,3.4349,3.4618,3.4899,3.5105,3.5175,3.5088,3.5412,3.5543,3.5475,3.4817,3.3741,4.2248,4.1779,4.128,4.1068,4.1003,4.0852,4.0323,4.0204,4.0072,3.957,3.9017,3.8517,3.8231,3.7578,3.6761,3.5703,3.5249,3.464,3.361,3.3107,3.2676,3.233,3.2094,3.1855,3.1683,3.167,3.1568,3.1322,3.0777,3.0221,2.9685,2.8885,2.798,2.7002,2.6586,2.5978,2.5206,2.4526,2.4043,2.3751,2.3519,2.3298,2.3001,2.3298,2.3409,2.3313,2.3313,2.346,2.3731,2.4264,2.4612,2.4874,2.5685,2.6274,2.6569,2.6171,2.6526,2.7276,2.7676,2.7888,2.8085,2.8457,2.8812,2.9162,2.9509,2.9834,3.0172,3.0522,3.0598,3.0598,3.0598,3.0598,3.0477,3.0038,3.0007,2.987,2.9066,2.9097,2.9286,2.9348,2.9501,2.9825,3.0658,3.0359,3.0269,3.097,3.0703,3.0375,3.033,3.0615,3.0852,3.1014,3.0896,3.1028,3.1436,3.1334,3.165,3.2532,3.2922,3.3397,3.4075,3.4423,3.4691,3.4899,3.5128,3.5222,3.5152,3.5435,3.5549,3.552,3.502,3.4469,4.2354,4.2179,4.1981,4.1185,4.099,4.085,4.0315,4.0205,4.0041,3.9508,3.897,3.8486,3.815,3.7541,3.6992,3.6705,3.571,3.4854,3.4406,3.3339,3.2465,3.2066,3.1898,3.167,3.1351,3.1322,3.1307,3.1307,3.0969,3.0357,2.9373,2.898,2.8306,2.7217,2.6564,2.6198,2.6164,2.4862,2.4189,2.4164,2.3372,2.3001,2.3001,2.3001,2.3423,2.4084,2.4084,2.4565,2.5415,2.5451,2.5603,2.5755,2.5789,2.6364,2.7178,2.7144,2.7404,2.7776,2.7776,2.8151,2.8587,2.8587,2.8812,2.9162,2.9509,2.9834,3.0172,3.0522,3.0598,3.0598,3.0598,3.0598,3.0642,3.0732,3.0762,3.0628,3.0086,2.995,3.0042,3.0238,3.0269,3.0524,3.1322,3.1438,3.1511,3.1727,3.1855,3.1752,3.1246,3.1849,3.2342,3.2342,3.1949,3.1807,3.2135,3.1679,3.1749,3.2559,3.3093,3.3588,3.4075,3.4594,3.4899,3.4899,3.5058,3.5175,3.5291,3.5429,3.5543,3.56,3.5583,3.5423,4.3058,4.2259,4.139,4.1079,4.099,4.085,4.0315,4.0205,4.006,3.9508,3.9027,3.8609,3.8185,3.7596,3.6958,3.6266,3.5442,3.4609,3.3836,3.3093,3.2425,3.1927,3.1697,3.1509,3.1322,3.1307,3.1205,3.0969,3.0657,3.0266,2.9837,2.9306,2.8527,2.7417,2.7297,2.6633,2.5265,2.4933,2.4419,2.3787,2.3742,2.3877,2.4143,2.4143,2.4445,2.5028,2.4803,2.5087,2.5742,2.6227,2.6535,2.6773,2.7258,2.7749,2.8124,2.8124,2.8203,2.8327,2.8327,2.8457,2.8587,2.8587,2.8812,2.9162,2.9509,2.9834,3.0172,3.0522,3.0598,3.0598,3.0598,3.0598,3.0642,3.0762,3.0895,3.0955,3.0777,3.0881,3.0999,3.097,3.1029,3.1219,3.1626,3.1698,3.1769,3.2038,3.2094,3.2107,3.2005,3.2244,3.2425,3.2523,3.2398,3.2425,3.2757,3.2633,3.2753,3.3288,3.3662,3.4034,3.4349,3.4707,3.4899,3.4899,3.5018,3.5175,3.5291,3.5446,3.5684,3.6067,3.6067,3.5908,4.3129,4.2247,4.1405,4.1072,4.0974,4.0825,4.03,4.0167,4.0031,3.9452,3.8937,3.8514,3.815,3.7523,3.6838,3.6284,3.5526,3.4704,3.3811,3.3145,3.2585,3.2172,3.1717,3.1468,3.1531,3.1294,3.1029,3.0821,3.0568,3.0326,3.0111,2.9571,2.8926,2.8091,2.7709,2.6939,2.5793,2.5347,2.4826,2.4288,2.4516,2.4755,2.5087,2.5087,2.5405,2.5916,2.5755,2.6045,2.6663,2.7204,2.7504,2.7749,2.8222,2.8476,2.8587,2.8587,2.8587,2.8587,2.8587,2.8587,2.8587,2.8587,2.8812,2.9162,2.9509,2.9834,3.0172,3.0522,3.0598,3.0598,3.0598,3.0642,3.0702,3.0866,3.1043,3.119,3.122,3.1395,3.1467,3.138,3.1438,3.1568,3.1756,3.187,3.1996,3.2163,3.2247,3.2287,3.2398,3.2398,3.2453,3.2578,3.2648,3.2827,3.3085,3.315,3.3335,3.3684,3.3949,3.4259,3.4675,3.4811,3.497,3.5071,3.5241,3.5379,3.5532,3.5805,3.6135,3.6512,3.6512,3.6477,4.2704,4.2215,4.1952,4.1181,4.0957,4.0762,4.023,4.0148,4.0021,3.935,3.8759,3.8293,3.8135,3.7356,3.6725,3.6702,3.5958,3.5138,3.4333,3.3521,3.2928,3.2745,3.1914,3.1531,3.2017,3.1365,3.0879,3.085,0.0,3.0431,3.008,2.9772,2.9415,2.9035,2.7762,2.7209,2.7456,2.607,2.5429,2.5521,2.5556,2.5673,2.5859,2.5894,2.6205,2.6799,2.69,2.7397,2.8145,2.8268,2.843,2.8587,2.8587,2.8587,2.8587,2.8587,2.8587,2.8587,2.8587,2.8587,2.8587,2.8619,2.8844,2.9194,2.9509,2.9865,3.0203,3.0522,3.0598,3.0598,3.0598,3.0702,3.0851,3.1043,3.122,3.1351,3.1467,3.1511,3.1511,3.1511,3.1496,3.1597,3.1784,3.2038,3.2219,3.2219,3.2315,3.2398,3.2398,3.2425,3.2453,3.2594,3.28,3.2951,3.3096,3.3229,3.3424,3.3694,3.3975,3.4391,3.4998,3.4961,3.5118,3.5424,3.5604,3.5786,3.5929,3.6443,3.6766,3.6939,3.6939,3.7151,4.3279,4.2332,4.1385,4.1081,4.0997,4.0839,4.0309,4.0139,3.9981,3.947,3.9142,3.8792,3.8218,3.7738,3.7248,3.665,3.5893,3.5207,3.4712,3.3684,3.3076,3.326,3.2568,3.2242,3.2694,3.2465,3.2017,0.0,3.063,3.008,2.9741,2.9415,2.8894,2.8137,2.8183,2.7855,2.7142,2.6458,2.5998,2.5742,2.6261,2.6582,2.6616,2.6913,2.7364,2.7881,2.7663,2.7908,2.8471,2.8522,2.8554,2.8587,2.8587,2.8587,2.8587,2.8587,2.8587,2.8587,2.8587,2.8587,2.8651,2.8876,2.9194,2.954,2.9865,3.0203,3.0492,3.0582,3.0598,3.0598,3.0598,3.0702,3.0851,3.1043,3.122,3.1351,3.1467,3.1511,3.1511,3.1511,3.1712,3.194,3.2066,3.2247,3.2342,3.2342,3.237,3.2398,3.2398,3.2496,3.2621,3.28,3.2951,3.3096,3.3229,3.3282,3.3503,3.3975,3.4292,3.4714,3.527,3.5526,3.5688,3.5776,3.5977,3.6147,3.627,3.6565,3.6923,3.7358,3.7358,3.7596,4.3167,4.2334,4.157,4.1114,4.0986,4.0913,4.0724,4.0644,4.0585,4.0437,4.0069,3.9546,3.8782,3.8133,3.7464,3.664,3.6023,3.5476,3.4878,3.4128,3.3694,3.3901,3.3119,3.2781,3.3374,3.2974,3.2463,3.199,3.1042,3.029,2.9834,2.9352,2.8876,2.8379,2.8281,2.7921,2.7222,2.7162,2.7069,2.6909,2.7338,2.7571,2.765,2.7888,2.8118,2.8287,0.0,2.8281,2.8476,2.8554,2.8587,2.8587,2.8587,2.8587,2.8587,2.8587,2.8587,2.8587,2.8587,2.8683,2.8844,2.9035,2.9415,2.9865,3.005,3.0341,3.0598,3.0598,3.0598,3.0598,3.0672,3.0791,3.0984,3.1161,3.1292,3.1481,3.1824,3.1881,3.191,3.1951,3.2422,3.2749,3.2574,3.2857,3.3108,3.3108,3.3108,3.3135,3.3198,3.2846,3.2769,3.3156,3.3314,3.3549,3.3917,3.4002,3.4226,3.4642,3.4871,3.5266,3.5871,3.5902,3.5972,3.6156,3.6437,3.662,3.6698,3.7151,3.756,3.7947,3.7947,3.8133,4.2895,4.2382,4.2103,4.1226,4.0964,4.0987,4.1245,4.1301,4.138,4.1651,4.1143,4.0411,3.9585,3.864,3.7661,3.6745,3.626,3.5744,3.5012,3.4609,3.4461,3.4628,3.3715,3.3337,3.4058,3.332,3.273,3.2643,3.1703,3.0868,3.0237,2.9551,2.9131,2.9035,2.8314,2.7822,2.7669,2.8,2.8229,2.832,2.832,2.843,2.8587,2.8587,2.8509,2.8365,2.8509,0.0,2.8352,2.8522,2.8587,2.8587,2.8587,2.8587,2.8587,2.8587,2.8587,2.8619,2.8651,2.8876,2.9162,2.9162,2.9571,3.0111,3.0142,3.0371,3.0598,3.0598,3.0657,3.0777,3.0896,3.1131,3.138,3.1509,3.1625,3.1881,3.2382,3.252,3.2574,3.2722,3.3313,3.3675,3.3224,3.3614,3.4011,3.4011,3.4036,3.407,3.4186,3.3407,3.3071,3.3659,3.3869,3.4185,3.4769,3.4941,3.5128,3.5397,3.552,3.5864,3.6464,3.622,3.6224,3.6606,3.6993,3.7225,3.7243,3.795,3.8387,3.8556,3.8556,3.8664,4.3632,4.2885,4.2162,4.1234,4.0984,4.1057,4.1308,4.1301,4.1328,4.1691,4.1582,4.1143,4.0292,3.9409,3.8441,3.7335,3.6517,3.5871,3.5515,3.484,3.4655,3.5331,3.4508,3.4121,3.4706,3.4486,3.4043,3.3387,3.2396,3.1525,3.0882,2.9995,2.9257,2.8683,2.8554,2.8457,2.8425,2.8471,2.8522,2.8554,2.8554,2.8554,2.8587,2.8587,2.8587,2.8554,2.8587,0.0,2.8554,2.8587,2.8587,2.8587,2.8587,2.8587,2.8587,2.8587,2.8587,2.8651,2.8908,2.9226,2.9509,2.9509,2.9772,3.0142,3.0431,3.0552,3.0598,3.0598,3.1043,3.1522,3.1551,3.2102,3.268,3.2707,3.2799,3.2933,3.3039,3.3145,3.3287,3.3531,3.371,3.3802,3.3818,3.3919,3.4011,3.4011,3.4078,3.4161,3.4186,3.4128,3.4169,3.4406,3.456,3.4721,3.4941,3.4988,3.5134,3.5459,3.5803,3.6156,3.6502,3.671,3.693,3.7163,3.7578,3.7843,3.8016,3.8525,3.8807,3.8833,3.8833,3.8848,4.3991,4.334,4.2798,4.1863,4.1595,4.1796,4.2616,4.2657,4.2629,4.3109,4.2839,4.2206,4.1126,4.0054,3.8858,3.7512,3.6581,3.5888,3.5571,3.5165,3.4956,3.5161,3.4726,3.4455,3.4607,3.4578,3.4399,3.4012,3.2901,3.1825,3.0804,2.969,2.894,2.8619,2.8587,2.8587,2.8587,2.8587,2.8587,2.8587,2.8587,2.8587,2.8587,2.8587,2.8587,2.8587,2.8587,0.0,2.8587,2.8587,2.8587,2.8587,2.8587,2.8587,2.8619,2.8812,2.8844,2.894,2.9529,2.9931,3.0251,3.0464,3.0463,3.0401,3.0552,3.0598,3.0687,3.1073,3.1436,3.1792,3.2253,3.2691,3.3013,3.3093,3.3433,3.3716,3.3716,3.4136,3.4448,3.4301,3.4512,3.4657,3.4439,3.4649,3.4857,3.4927,3.4981,3.5098,3.522,3.5283,3.5237,3.5058,3.5144,3.5374,3.5749,3.5837,3.5968,3.6165,3.6412,3.6632,3.6751,3.6911,3.7105,3.7314,3.7703,3.7997,3.82,3.8664,3.895,3.9064,3.9064,3.9197,4.4374,4.3939,4.3656,4.2701,4.2425,4.2656,4.3831,4.3871,4.3836,4.4395,4.3989,4.3187,4.205,4.068,3.9274,3.7858,3.671,3.5866,3.556,3.5383,3.5195,3.4904,3.4742,3.4651,3.4649,3.4567,3.4515,3.4515,3.32,3.1801,3.0383,2.9284,2.8651,2.8587,2.8587,2.8587,2.8587,2.8587,2.8587,2.8587,2.8587,2.8587,2.8587,2.8587,2.8587,2.8587,2.8587,0.0,0.0,2.8683,2.8716,2.8716,2.878,2.8812,2.8844,2.9099,2.9194,2.9306,3.0131,3.0584,3.0896,3.1348,3.1233,3.0896,3.0896,3.0911,3.1102,3.165,3.1975,3.2321,3.2997,3.3303,3.3433,3.3537,3.3986,3.4399,3.4423,3.5001,3.5383,3.4977,3.5281,3.547,3.5045,3.5339,3.5667,3.5795,3.591,3.6067,3.6276,3.6423,3.6326,3.5895,3.5798,3.5941,3.6461,3.6687,3.6849,3.6913,3.7108,3.7223,3.7223,3.7185,3.728,3.7558,3.7878,3.8163,3.8426,3.8844,3.9133,3.9296,3.933,3.9551,4.5116,4.4837,4.4549,4.3601,4.3272,4.3343,4.3957,4.384,4.3777,4.4382,4.4192,4.374,4.3085,4.1397,3.9848,3.8905,3.7193,3.5866,3.556,3.5383,3.5283,3.5161,3.4734,3.4706,3.5426,3.5095,3.4862,3.4862,3.3214,3.1477,2.9777,2.9285,2.8908,2.8619,2.8587,2.8587,2.8587,2.8587,2.8587,2.8587,2.8587,2.8587,2.8587,2.8587,2.8587,2.8587,2.8587,0.0,0.0,2.894,2.9035,2.9067,2.9383,2.9509,2.9509,2.954,2.954,2.9665,3.0478,3.0777,3.0925,3.1608,3.1823,3.1794,3.1794,3.1934,3.217,3.2226,3.2902,3.3633,3.371,3.421,3.4739,3.4739,3.4883,3.5041,3.5158,3.5377,3.5498,3.5509,3.5577,3.5577,3.5515,3.5667,3.5795,3.5795,3.6266,3.6626,3.6646,3.7076,3.7359,3.7322,3.6661,3.6301,3.6464,3.6895,3.7207,3.7338,3.7774,3.8,3.8,3.7827,3.7948,3.838,3.8489,3.8715,3.9115,3.9406,3.954,3.9564,3.9747,3.987,4.5234,4.4926,4.4746,4.4332,4.412,4.4179,4.4855,4.4675,4.445,4.4644,4.4279,4.3763,4.3194,4.1597,4.0129,3.9391,3.7796,3.6471,3.5937,3.5761,3.5486,3.4956,3.4587,3.4451,3.4625,3.442,3.4152,3.3727,3.2856,3.1842,3.0748,2.9842,2.9121,2.8619,2.8587,2.8683,2.8908,2.8908,2.9004,2.9194,2.9194,2.9194,2.9194,2.9194,2.9194,2.9194,2.9194,0.0,0.0,2.9763,2.9825,2.9856,3.0224,3.0238,3.0085,3.051,3.0689,3.0807,3.1593,3.1877,3.2005,3.2749,3.298,3.2873,3.2296,3.2213,3.2431,3.3035,3.3505,3.3887,3.4333,3.4675,3.4923,3.4994,3.5128,3.5268,3.54,3.5498,3.5571,3.56,3.56,3.5622,3.5706,3.5958,3.6203,3.6312,3.6746,3.7079,3.7173,3.7359,3.7505,3.7505,3.7209,3.7094,3.7265,3.745,3.7632,3.7809,3.8,3.8101,3.8101,3.8066,3.8167,3.843,3.867,3.8905,3.9142,3.9445,3.9656,3.9789,3.9859,4.003,4.5547,4.5267,4.5133,4.5071,4.4955,4.4986,4.5486,4.5222,4.4868,4.48,4.4322,4.3781,4.3389,4.1775,4.033,3.9788,3.8235,3.6895,3.6266,3.6015,3.5644,3.4984,3.4556,3.4319,3.4311,3.4144,3.3834,3.3356,3.2869,3.2305,3.1635,3.0719,2.9813,2.899,2.904,2.9117,2.9099,2.9194,2.9383,2.9602,2.9744,2.9806,2.9806,2.9931,2.9993,2.9993,2.9993,0.0,0.0,3.0585,3.0615,3.0674,3.1043,3.1013,3.0837,3.1348,3.1549,3.1635,3.2367,3.2641,3.283,3.3487,3.3745,3.3704,3.3135,3.2944,3.3119,3.3818,3.407,3.4243,3.4763,3.4923,3.497,3.5065,3.5222,3.54,3.5469,3.5549,3.5644,3.5761,3.5822,3.5871,3.6114,3.6416,3.6704,3.6847,3.7249,3.7578,3.7667,3.7773,3.7861,3.7878,3.7895,3.7843,3.7738,3.7894,3.803,3.8183,3.8314,3.8394,3.8394,3.8392,3.8489,3.8695,3.888,3.9045,3.9256,3.9539,3.9754,3.9903,4.002,4.026,4.6289,4.6138,4.5967,4.5907,4.5783,4.5673,4.5603,4.5191,4.4788,4.4788,4.4322,4.3883,4.3804,4.1986,4.0437,4.0238,3.8446,3.6935,3.6457,3.6122,3.5776,3.543,3.4626,3.4367,3.5037,3.4601,3.4304,3.4288,3.3527,0.0,3.2139,3.1959,3.1217,2.9839,3.0101,2.9886,2.9099,2.9415,2.9602,2.9602,3.007,3.0299,3.0299,3.0704,3.0896,3.0896,0.0,0.0,0.0,3.1232,3.1391,3.1435,3.1751,3.1908,3.1879,3.1908,3.1908,3.1964,3.2437,3.2761,3.3082,3.3549,3.3873,3.4151,3.4399,3.4472,3.4472,3.4497,3.4691,3.4899,3.4899,3.4994,3.5088,3.5088,3.5291,3.5492,3.5492,3.5549,3.5739,3.6195,3.6301,3.6451,3.6921,3.7097,3.721,3.7286,3.7738,3.8085,3.8101,3.8433,3.8704,3.8777,3.8792,3.8476,3.7667,3.8077,3.8384,3.8402,3.8818,3.9087,3.9087,3.8964,3.9054,3.9391,3.9202,3.9269,3.9608,3.98,3.9903,3.9914,4.0313,4.0598,4.6308,4.6183,4.6045,4.5931,4.5802,4.5687,4.5612,4.5191,4.4788,4.4788,4.4279,4.3652,4.3081,4.1722,4.0485,3.9889,3.8687,3.7631,3.7017,3.6818,3.6354,3.5385,3.4415,3.3841,3.3857,3.3715,3.3625,3.3625,3.3366,3.3134,3.2942,3.2888,3.2158,3.0585,3.0645,3.0719,3.0674,3.0763,3.0955,3.1175,3.132,3.1392,3.1392,3.1536,3.1593,0.0,0.0,0.0,0.0,3.2185,3.2213,3.2269,3.2699,3.2672,3.2437,3.2726,3.285,3.2877,3.3038,3.3235,3.3523,3.3873,3.4151,3.4423,3.4691,3.4643,3.4546,3.4715,3.4828,3.4923,3.5018,3.5287,3.5571,3.5744,3.6075,3.6354,3.6433,3.6457,3.6519,3.6678,3.6741,3.6862,3.7114,3.7433,3.772,3.7826,3.8236,3.8515,3.8515,3.8655,3.8777,3.8807,3.8877,3.8829,3.8582,3.8703,3.884,3.888,3.9013,3.9101,3.9101,3.9287,3.9408,3.9464,3.9717,3.9878,3.9937,4.006,4.0193,4.0369,4.0607,4.0792,4.6308,4.6184,4.6041,4.5931,4.5802,4.5687,4.5631,4.5243,4.4872,4.4776,4.4308,4.3624,4.2666,4.1557,4.0516,3.9698,3.88,3.8003,3.7431,3.7206,3.656,3.5144,3.4391,3.3822,3.3361,3.3309,3.3309,3.3309,3.3309,3.3309,3.3309,3.3309,3.2834,3.1847,3.1634,3.1491,3.1391,3.1521,3.1679,3.1908,3.2076,3.2145,3.2173,3.2355,3.2425,0.0,0.0,0.0,0.0,3.2861,3.2861,3.2888,3.3187,3.3118,3.2888,3.3187,3.3346,3.345,3.345,3.3694,3.4025,3.4201,3.4423,3.4715,3.5001,3.4977,3.4842,3.4899,3.5078,3.527,3.5316,3.5644,3.602,3.6253,3.6563,3.6803,3.688,3.69,3.6958,3.7151,3.7227,3.734,3.7649,3.7929,3.8165,3.8302,3.853,3.8723,3.8735,3.8777,3.8848,3.9003,3.9101,3.9178,3.9287,3.9232,3.9245,3.9364,3.9364,3.9364,3.9364,3.9583,3.9679,3.9652,3.9992,4.0139,4.0101,4.0264,4.0468,4.0726,4.0809,4.0915,0.0,4.6145,4.5987,4.5927,4.5803,4.5684,4.5622,4.5322,0.0,4.4751,4.4323,4.3618,4.2423,4.1399,4.0426,3.9558,3.8731,3.8038,3.7649,3.7261,3.644,3.4871,3.4586,3.4226,3.3477,3.3398,3.3398,3.3398,3.3372,3.3346,3.3346,3.3335,3.3309,3.3309,3.2888,3.2296,3.1534,3.1821,3.1992,3.1992,3.2437,3.2656,3.2656,3.3091,3.3309,0.0,0.0,0.0,0.0,3.3309,3.3309,3.3309,3.3335,3.3335,3.3319,3.3361,3.3503,3.372,3.3745,3.4101,3.4546,3.4594,3.4763,3.5024,3.5333,3.5424,3.5333,3.5048,3.5436,3.589,3.5764,3.6105,3.6501,3.6706,3.6882,3.6978,3.6978,3.6997,3.715,3.7649,3.7757,3.7914,3.8412,3.851,3.8559,3.8673,3.8707,3.8719,3.8803,3.8818,3.8974,3.9376,3.9427,3.9544,3.9808,3.9644,3.9597,3.9786,3.9808,3.9808,3.9808,3.9891,3.9922,3.9922,4.0072,4.0158,4.0148,4.0463,4.0718,4.0911,4.0963,4.1016,4.6307,0.0,4.5987,4.5927,4.5803,4.5684,0.0,4.5191,4.4782,4.4701,4.3683,4.25,4.1564,4.0559,3.9606,3.8723,3.825,3.7881,3.7631,3.6781,3.6041,3.5649,3.5075,3.4666,3.4472,3.4448,3.4448,3.4448,3.4093,3.3899,3.3899,3.3529,3.3309,3.3309,3.3187,3.3038,3.2861,3.2931,3.2958,3.2958,3.3065,3.3134,3.3145,3.324,3.3309,0.0,0.0,0.0,3.3309,3.3309,3.3309,3.3335,3.3529,3.3607,3.3617,3.3822,3.3949,3.405,3.4301,3.4593,3.4968,3.5419,3.5621,3.5666,3.5754,3.5594,3.543,3.5599,3.589,3.6147,3.6228,3.6666,3.7117,3.7284,3.7596,3.7898,3.7898,3.7933,3.8019,3.8121,3.8236,3.8348,3.8494,3.8593,3.8658,3.8692,3.8707,3.8773,3.8999,3.9132,3.9305,3.9602,3.9683,3.9816,4.0072,3.987,3.9742,3.9797,3.9808,3.9808,3.9808,4.0014,4.0157,4.0202,4.0485,4.0662,4.0703,4.0784,4.0902,4.104,4.1028,4.1059,4.6229,4.6108,4.5987,4.5927,4.5803,4.5665,4.5577,4.5292,4.4836,4.4184,4.3386,4.2279,4.071,3.9962,3.9299,3.8401,3.8055,3.7793,3.7503,3.6756,3.6178,3.5929,3.5464,3.5052,0.0,3.4793,3.4793,3.4793,3.4569,3.4415,3.4415,3.4143,3.3882,3.3668,3.3882,3.3781,3.3293,3.3309,3.3309,3.3309,3.3309,3.3309,3.3293,3.3424,3.344,0.0,0.0,0.0,3.3309,3.3309,3.3372,3.3503,3.3658,3.3787,3.3899,3.405,3.4284,3.4537,3.4714,3.5052,3.5464,3.5781,3.5907,3.5929,3.6118,3.6049,3.592,3.6015,3.6374,3.6721,3.6786,3.719,3.7614,3.7774,3.802,3.8242,3.8322,3.8417,3.8541,3.8676,3.8807,3.8886,3.8947,3.9027,3.9059,3.9059,3.9069,3.9141,3.9358,3.9433,3.9602,3.9901,3.9953,4.0081,4.0321,4.0203,4.012,4.012,4.012,4.012,4.012,4.0283,4.0422,4.0485,4.0694,4.0837,4.0907,4.0953,4.1022,4.1109,4.1085,4.1106,4.6157,4.5967,4.5803,4.5861,4.5777,4.564,4.5541,4.5314,4.4789,4.3611,4.3055,4.2137,4.0052,3.9526,3.917,3.8301,3.7951,3.7685,3.7297,3.6946,3.6544,3.6079,3.5859,0.0,3.5098,3.5028,3.5028,3.5028,3.4958,3.4911,3.4911,3.484,3.4617,3.4209,3.4593,3.4399,3.3539,3.345,3.345,3.3513,3.345,3.345,3.3539,3.3797,3.3781,3.3575,0.0,0.0,3.3575,3.3513,3.3652,3.3917,3.3908,3.4059,3.4317,3.4366,3.469,3.5161,3.5207,3.5599,3.6058,3.6058,3.6058,3.6122,3.6468,3.6606,3.6588,3.6457,3.6858,3.7354,3.7377,3.7667,3.7986,3.8175,3.8224,3.8289,3.8494,3.8658,3.8861,3.9173,3.9268,3.9371,3.9483,3.9514,3.9514,3.9514,3.9494,3.9566,3.9709,3.9717,3.987,4.0205,4.0261,4.0304,4.0481,4.0519,4.0534,4.0534,4.0512,4.0512,4.0542,4.0593,4.0674,4.0719,4.0809,4.0854,4.0932,4.1035,4.1111,4.1116,4.1152,4.1147,4.6267,4.5567,4.4972,4.5658,4.5681,4.5541,4.5504,4.4697,4.3897,4.3684,4.219,4.0714,4.0059,3.9286,3.8577,3.8021,3.7631,3.7316,3.7085,3.6908,3.6751,3.667,0.0,3.6339,3.6255,3.6135,3.6071,3.6071,3.5705,3.5481,3.5481,3.5045,3.4761,3.469,3.4745,3.4738,3.4569,3.4184,3.4184,3.4569,3.4159,3.4184,3.4553,3.4728,3.4776,3.4736,0.0,3.4868,3.4797,3.4512,3.4592,3.4868,3.4823,3.4988,3.5301,3.5537,3.5671,3.582,3.6135,3.6509,3.6814,3.6814,3.6814,3.6834,3.6891,3.7046,3.722,3.7337,3.7466,3.7577,3.7775,3.7986,3.8175,3.8192,3.8338,3.8476,3.8643,3.8923,3.9173,3.9249,3.9371,3.9471,3.9502,3.9514,3.9514,3.9514,3.9495,3.9585,3.9846,3.987,4.0012,4.0405,4.0458,4.0463,4.0508,4.0595,4.0668,4.0668,4.0552,4.0552,4.0655,4.0791,4.0866,4.0871,4.0937,4.1003,4.1072,4.1085,4.1121,4.1171,4.1145,4.1114,4.6215,4.5448,4.4715,4.4983,4.4572,4.4077,4.4001,4.3555,4.2965,4.2262,4.1362,4.0368,3.942,3.8979,3.8572,3.7967,3.754,3.722,3.7027,3.6871,3.6809,3.6809,0.0,3.6582,3.6502,3.6444,3.6381,3.6301,3.6092,3.5985,3.5985,3.5749,3.5487,3.5237,3.5481,3.5504,3.5214,3.5052,3.4941,3.4911,3.4697,3.4728,3.4955,3.518,3.5186,3.5054,0.0,3.5221,3.5084,3.4938,3.5048,3.5307,3.5295,3.5453,3.5759,3.6097,3.622,3.628,3.665,3.6869,3.7007,3.7007,3.7007,3.7027,3.7124,3.722,3.7353,3.7667,3.7757,3.7793,3.8003,3.8206,3.8352,3.8352,3.8566,3.8832,3.9031,3.9281,3.9519,3.9709,3.9829,3.9933,3.9933,3.9933,3.9933,3.9933,3.9927,3.9981,4.0101,4.0177,4.0307,4.0474,4.0565,4.0619,4.0621,4.0705,4.0754,4.0754,4.0703,4.0684,4.0751,4.0848,4.089,4.089,4.0967,4.1025,4.1109,4.1142,4.1152,4.1145,4.1115,4.1066,4.5927,4.5115,4.4297,4.3931,4.3381,4.2861,4.2726,4.2522,4.2085,4.1108,4.0697,4.0176,3.8991,3.88,3.8618,3.8016,3.7613,3.7298,3.7127,3.697,3.6849,3.6849,3.6768,3.6684,3.6544,3.6523,3.6444,3.6322,3.6301,3.6301,3.6301,3.6301,3.6135,3.5788,3.6114,3.6135,3.581,3.5864,3.5693,3.5357,3.5266,3.5317,3.5481,3.5703,3.5681,3.5509,3.5747,3.5725,3.5531,3.5464,3.5593,3.5851,3.5764,3.5912,3.6186,3.6489,3.6626,3.665,3.6908,3.7007,3.7007,3.7007,3.7007,3.7046,3.7239,3.7334,3.7466,3.7863,3.8003,3.8071,3.8241,3.8385,3.8523,3.8615,3.8861,3.9163,3.9421,3.9644,3.9865,4.0098,4.0234,4.0301,4.0301,4.0301,4.0301,4.0301,4.03,4.0298,4.0314,4.0438,4.0511,4.055,4.0642,4.0748,4.0762,4.082,4.085,4.0875,4.0855,4.0846,4.085,4.0914,4.0942,4.0955,4.1012,4.1058,4.1106,4.1152,4.1144,4.1076,4.1066,4.0994,4.5305,4.425,4.3199,4.238,4.2536,4.2861,4.2726,4.2034,4.1352,4.1203,4.0435,3.9698,3.9407,3.8913,3.8494,3.8382,3.7879,3.7487,3.7469,3.7204,3.6987,3.6987,3.6869,3.6768,3.6684,3.6564,3.6444,3.6322,3.6301,3.6301,3.6301,3.6301,3.628,3.6259,3.628,3.6343,3.6423,3.6444,3.644,3.6381,3.6011,3.6097,3.6602,3.667,3.671,3.669,3.6831,3.6891,3.6834,3.6527,3.6588,3.6871,3.6547,3.6629,3.693,3.695,3.695,3.6968,3.6987,3.7007,3.7007,3.7007,3.7007,3.7046,3.7239,3.7428,3.7667,3.8068,3.8316,3.8462,3.8478,3.8494,3.8585,3.89,3.9168,3.9421,3.9618,3.9895,4.0108,4.0253,4.0301,4.0301,4.0301,4.0301,4.0301,4.0301,4.031,4.0318,4.0381,4.0469,4.0554,4.0667,4.0743,4.0834,4.097,4.0981,4.1011,4.108,4.102,4.099,4.0989,4.1046,4.1085,4.1089,4.1151,4.1151,4.1095,4.1094,4.1074,4.1016,4.0949,4.0902,4.5241,4.4169,4.3073,4.2166,4.1586,4.117,4.0999,4.0669,4.0396,4.0233,3.9869,3.9502,3.9317,3.8826,3.8462,3.8504,3.8167,3.7879,3.7879,3.7756,3.7685,3.7685,3.7413,3.7225,3.7147,3.6829,3.6582,3.6423,3.636,3.6301,3.6301,3.6301,3.6301,3.6301,3.6381,3.6444,3.6502,3.6609,3.6687,3.667,3.653,3.6612,3.6888,3.6908,3.6911,3.6928,3.6987,3.7007,3.6987,3.6851,3.6888,3.6987,3.6869,3.6888,3.7007,3.7007,3.7007,3.7007,3.7007,3.7007,3.7048,3.7282,3.7358,3.7469,3.7964,3.8148,3.8281,3.8554,3.868,3.8758,3.8758,3.8844,3.8998,3.92,3.9502,3.9758,3.9905,4.0098,4.0234,4.0291,4.0301,4.0301,4.0301,4.0301,4.0319,4.0351,4.036,4.0392,4.0508,4.0589,4.0642,4.0692,4.083,4.0954,4.1042,4.1066,4.1074,4.1108,4.1076,4.1068,4.1053,4.1094,4.1107,4.1093,4.1072,4.106,4.1033,4.1037,4.0997,4.0941,4.0906,4.0804,4.477,4.3693,4.259,4.1622,4.0739,4.0057,3.9889,3.9826,3.98,3.9638,3.9546,3.9438,3.9242,3.8898,3.8676,3.8748,3.8489,3.8249,3.8249,3.8168,3.8101,3.8101,3.7861,3.765,3.756,3.7281,3.7013,3.6856,3.6759,3.6658,3.6512,3.6533,3.6471,3.6381,3.6502,3.6564,3.6588,3.6728,3.6829,3.6851,3.6851,3.6908,3.7007,3.7007,3.7007,3.7007,3.7007,3.7007,3.7007,3.7007,3.7007,3.7007,3.7007,3.7007,3.7007,3.7007,3.7068,3.7166,3.7166,3.7243,3.7431,3.7703,3.7807,3.7928,3.8436,3.8594,3.8658,3.8917,3.8993,3.9007,3.9092,3.9202,3.9317,3.9502,3.9758,4.0005,4.0137,4.0253,4.0336,4.0336,4.0372,4.0388,4.0388,4.0388,4.0422,4.0454,4.0469,4.0503,4.0643,4.0709,4.078,4.082,4.0954,4.1057,4.1106,4.1109,4.1093,4.1099,4.1099,4.1099,4.1099,4.1104,4.1092,4.1092,4.1022,4.0996,4.0972,4.0977,4.0904,4.0776,4.0776,4.0642,4.3763,4.2674,4.1557,4.0553,4.011,3.9848,3.9728,3.9705,3.9689,3.9614,3.9546,3.9444,3.9242,3.9197,3.9183,3.9115,3.8822,3.8594,3.8594,3.8314,3.8118,3.8118,3.8101,3.805,3.7929,3.7893,3.7807,3.7614,3.7596,3.7396,3.6939,3.7032,3.6933,3.6506,3.6643,3.6745,3.6809,3.6811,3.6888,3.7007,3.7007,3.7007,3.7007,3.7007,3.7007,3.7007,3.7007,3.7007,3.7007,3.6989,3.7007,3.7007,3.7007,3.7007,3.7007,3.7007,3.7225,3.7505,3.7505,3.7808,3.8196,3.8214,3.8261,3.8339,3.8548,3.8609,3.8685,3.9082,3.9197,3.9269,3.954,3.9521,3.9489,3.9815,4.0005,4.0137,4.0263,4.037,4.0406,4.0406,4.0508,4.0595,4.0595,4.0595,4.0595,4.0595,4.0595,4.0643,4.078,4.0863,4.0948,4.1083,4.1109,4.1109,4.1109,4.1109,4.1099,4.1091,4.1092,4.1092,4.1092,4.1093,4.1092,4.1099,4.1035,4.0972,4.0894,4.0911,4.0765,4.0511,4.0503,4.0423,4.3813,4.2709,4.1564,4.0612,4.0053,3.9739,3.9717,3.9705,3.9647,3.9489,3.9367,3.9256,3.9142,3.9129,3.9129,3.9101,3.9013,3.8956,3.8956,3.8869,3.8792,3.8792,3.8597,3.8439,3.8407,3.8079,3.786,3.7738,3.7649,3.7542,3.7396,3.7433,3.7433,3.736,3.747,3.7542,3.7578,3.7667,3.7721,3.7774,3.7774,3.7504,3.7007,3.7007,3.7007,3.7007,3.7007,3.7007,3.7009,3.7262,3.7523,3.7774,3.7774,3.7774,3.7774,3.7774,3.7844,3.793,3.7981,3.808,3.8261,3.8588,3.8708,3.8795,3.9178,3.929,3.9335,3.9445,3.947,3.9527,3.9743,3.9854,3.9929,4.003,4.0148,4.0298,4.0465,4.0534,4.0537,4.0537,4.0566,4.0595,4.0595,4.0595,4.0635,4.0726,4.0742,4.0815,4.0997,4.1039,4.1054,4.1104,4.1107,4.1091,4.1094,4.1094,4.1093,4.1092,4.1092,4.1092,4.1092,4.1108,4.11,4.1103,4.0989,4.0929,4.0911,4.0717,4.0582,4.0503,4.0399,4.0292,4.3171,4.2102,4.11,4.0316,3.9943,3.9739,3.963,3.9625,3.9564,3.9367,3.9256,3.9183,3.9115,3.9101,3.9101,3.9101,3.9101,3.9101,3.9101,3.9101,3.9101,3.9101,3.8927,3.8792,3.8792,3.853,3.8357,3.8279,3.8196,3.8062,3.7893,3.7929,3.7893,3.7771,3.7911,3.7981,3.7981,3.805,3.8101,3.8101,3.8101,3.7879,3.7449,3.7449,3.7449,3.7449,3.7449,3.7449,3.7449,3.765,3.7879,3.8101,3.8101,3.8101,3.8101,3.8101,3.82,3.8328,3.8373,3.8548,3.8744,3.905,3.916,3.9227,3.9508,3.9589,3.9614,3.9691,3.972,3.9762,3.9963,4.012,4.0211,4.0211,4.0319,4.0446,4.0566,4.0641,4.0675,4.0675,4.0707,4.0712,4.0712,4.0712,4.0756,4.0826,4.0867,4.0938,4.1087,4.1091,4.1106,4.1094,4.1094,4.1093,4.1108,4.1107,4.1105,4.1098,4.1098,4.1094,4.1103,4.1108,4.1099,4.1091,4.0914,4.0811,4.0819,4.0556,4.0391,4.0334,4.0257,4.0158,4.215,4.1186,4.0383,3.9867,3.9807,3.9781,3.9527,3.9482,3.9425,3.9242,3.9197,3.917,3.9115,3.9101,3.9101,3.9101,3.9101,3.9101,3.9101,3.9101,3.9101,3.9101,3.9101,3.9101,3.9101,3.9101,3.9073,3.9011,3.8993,3.8796,3.8389,3.8473,3.8378,3.8012,3.8133,3.8201,3.8201,3.8201,3.8201,3.8201,3.8201,3.8201,3.8201,3.8135,3.8101,3.8101,3.8101,3.8118,3.8152,3.8152,3.8168,3.8201,3.8201,3.8183,3.8201,3.8201,3.8442,3.8759,3.8759,3.9101,3.9495,3.9508,3.9558,3.9602,3.9614,3.9626,3.9668,3.9881,3.9929,3.9983,4.0174,4.0321,4.0416,4.0438,4.0528,4.0628,4.0641,4.0713,4.0812,4.0812,4.0858,4.0907,4.0907,4.0907,4.0893,4.0906,4.0964,4.1026,4.1099,4.1094,4.1107,4.1106,4.1105,4.1105,4.1103,4.1103,4.1097,4.1092,4.1109,4.1091,4.1081,4.1083,4.1086,4.1081,4.0829,4.0686,4.068,4.0419,4.0221,4.0101,4.0081,4.001,4.2379,4.1318,4.0431,4.0166,3.9832,3.954,3.9309,3.9269,3.9256,3.921,3.9156,3.9115,3.9101,3.9101,3.9101,3.9101,3.9101,3.9101,3.9101,3.9101,3.9101,3.9101,3.9101,3.9101,3.9101,3.9101,3.9073,3.9011,3.8993,3.8964,3.8859,3.8892,3.8873,3.8836,3.8865,3.8884,3.8884,3.8884,3.8884,0.0,3.8884,3.8884,3.8869,3.833,3.8101,3.8101,3.8101,3.8249,3.8486,3.8486,3.8658,3.8884,3.8884,3.8927,3.897,3.897,3.9087,3.9261,3.9315,3.9399,3.9508,3.9571,3.9596,3.9626,3.9789,3.9845,3.9881,4.0081,4.0138,4.0183,4.045,4.0549,4.0604,4.0751,4.0773,4.0769,4.0823,4.0849,4.0883,4.0883,4.0898,4.0907,4.0907,4.0907,4.0924,4.0977,4.1041,4.1087,4.1092,4.1093,4.1108,4.1095,4.1108,4.1094,4.1103,4.11,4.1095,4.1106,4.1106,4.1059,4.0943,4.0932,4.0932,4.0939,4.073,4.0609,4.0535,4.0336,4.0177,4.0091,3.9979,3.9933,4.1784,4.1009,4.0552,4.0239,3.9843,3.9496,3.9251,3.9183,3.9156,3.9156,3.9129,3.9101,3.9101,3.9101,3.9101,3.9101,3.9101,3.9101,3.9101,3.9101,3.9101,3.9101,3.9101,3.9101,3.9101,3.9101,3.9087,3.9064,3.905,3.905,3.905,3.905,3.9059,3.9101,3.9101,3.9101,3.9101,3.9101,3.9101,3.9101,3.9101,3.9101,3.9087,3.8752,3.8597,3.8628,3.8628,3.8748,3.897,3.897,3.9087,3.9229,3.9229,3.9256,3.9301,3.9301,3.936,3.9457,3.9482,3.952,3.9583,3.9703,3.9731,3.9789,3.9979,4.004,4.009,4.0294,4.034,4.04,4.063,4.0724,4.0776,4.0873,4.0863,4.0858,4.0898,4.0907,4.0907,4.0907,4.0924,4.0953,4.0953,4.0948,4.0972,4.1042,4.1087,4.1094,4.1091,4.11,4.1104,4.1109,4.1096,4.1098,4.1091,4.1107,4.1107,4.1107,4.1038,4.0975,4.0907,4.079,4.0736,4.0793,4.0615,4.0466,4.0407,4.0195,4.008,3.9989,3.9796,3.9712,4.1049,4.0636,4.0626,4.0223,3.9865,3.9539,3.9317,3.921,3.917,3.9115,3.9101,3.9101,3.9101,3.9101,3.9101,3.9101,3.9101,3.9101,3.9101,3.9101,3.9101,3.9101,3.9101,3.9101,3.9101,3.9101,3.9101,3.9101,3.9101,3.9101,3.9101,3.9101,3.9101,3.9101,3.9101,3.9101,3.9101,3.9101,3.9101,3.9101,3.9101,3.9101,3.9101,3.9115,3.9142,3.9197,3.921,3.9301,3.9405,3.9405,3.9405,3.9405,3.9405,3.9405,3.9418,3.9418,3.9476,3.9564,3.9564,3.9638,3.9738,3.9903,3.9948,3.9989,4.0196,4.0251,4.0295,4.0496,4.0554,4.0584,4.0769,4.0867,4.0898,4.0917,4.0917,4.0911,4.0911,4.0911,4.092,4.0913,4.0951,4.1009,4.1009,4.1014,4.1042,4.1089,4.1094,4.1107,4.1097,4.1107,4.1098,4.1095,4.11,4.1107,4.1107,4.1107,4.1085,4.1071,4.0952,4.0874,4.0833,4.0609,4.0542,4.0622,4.0462,4.0347,4.0276,4.0099,3.9954,3.9834,3.9599,3.9458,4.1053,4.0614,4.0414,4.022,3.988,3.9575,3.9489,3.9446,3.9389,3.9156,3.9101,3.9101,3.9101,3.9101,3.9101,3.9101,3.9101,3.9101,3.9101,3.9101,3.9101,3.9101,3.9101,3.9101,3.9101,3.9101,3.9101,3.9101,3.9101,3.9101,3.9101,3.9101,3.9101,3.9101,3.9101,3.9101,3.9101,3.9101,3.9101,3.9101,3.9101,3.9101,3.9101,3.9156,3.9183,3.9197,3.9315,3.9373,3.9405,3.9405,3.9405,3.9405,3.9405,3.9444,3.9482,3.9482,3.9644,3.9848,3.9848,3.9958,4.0129,4.0158,4.0167,4.0205,4.0389,4.0465,4.0504,4.0701,4.0751,4.0775,4.0856,4.0883,4.0917,4.0976,4.0997,4.0997,4.0997,4.0997,4.0997,4.0988,4.098,4.1003,4.1003,4.1047,4.1093,4.1094,4.1108,4.109,4.1099,4.1103,4.1108,4.1098,4.11,4.1107,4.1107,4.1107,4.1045,4.093,4.0917,4.0807,4.0552,4.0519,4.0452,4.0364,4.0328,4.0253,4.0138,4.0098,3.9911,3.9563,3.9526,3.9338,4.1013,4.0621,4.0458,4.0255,4.0081,3.9865,3.9568,3.9585,3.959,3.937,3.9414,3.9408,3.9137,3.9101,3.9101,3.9101,3.9101,3.9101,3.9101,3.9101,3.9101,3.9101,3.9101,3.9101,3.9101,3.9101,3.9101,3.9101,3.9232,3.9259,3.9115,3.9245,3.9259,3.9115,3.9101,3.9101,3.9101,3.9101,3.9101,3.9101,3.9245,3.9318,3.9332,3.9543,3.952,3.9315,3.9412,3.9482,3.9514,3.9625,3.9619,3.9514,3.9644,3.9696,3.972,3.972,3.987,4.007,4.007,4.0129,4.0223,4.033,4.0364,4.0417,4.0617,4.0666,4.068,4.0771,4.0826,4.084,4.0849,4.0902,4.0961,4.0986,4.0998,4.1009,4.1051,4.1039,4.1016,4.1047,4.1069,4.1052,4.1054,4.1071,4.1106,4.1106,4.1098,4.1106,4.1095,4.1103,4.1108,4.1098,4.11,4.1075,4.0992,4.0988,4.093,4.0807,4.0712,4.0615,4.0504,4.0438,4.0354,4.0301,4.0301,4.0234,4.0106,3.9954,3.9758,3.9483,3.9141,3.8919,4.093,4.0662,4.0563,4.0323,4.0241,4.011,3.9766,3.9783,3.9848,3.9621,3.975,3.9765,3.9351,3.9245,3.921,3.9183,3.9178,3.921,3.9183,3.9227,3.9279,3.9279,3.9279,3.9279,3.9279,3.9279,3.9279,3.9279,3.9452,3.9489,3.9292,3.9421,3.9414,3.9205,3.9192,3.9192,3.9192,3.9253,3.9279,3.9292,3.9508,3.959,3.9618,3.9901,3.9865,3.9576,3.9637,3.9715,3.9766,3.9905,3.9892,3.9766,3.9924,3.9969,3.9969,3.9969,4.011,4.0278,4.0278,4.0313,4.0372,4.0539,4.0576,4.0598,4.0746,4.0815,4.0825,4.0825,4.0859,4.0898,4.0851,4.0922,4.1008,4.1012,4.1037,4.1046,4.1093,4.1053,4.1032,4.1093,4.1092,4.1109,4.1093,4.1109,4.1109,4.1109,4.1106,4.1101,4.109,4.1098,4.1098,4.1049,4.1052,4.0992,4.0859,4.0849,4.0782,4.0655,4.0564,4.0473,4.0452,4.0345,4.0301,4.0301,4.0234,4.0176,4.0108,3.9848,3.9592,3.9377,3.8847,3.8554,4.0766,4.0699,4.0659,4.0523,4.0339,4.0196,4.0177,4.0158,4.0091,3.9829,3.9983,4.0081,3.9808,3.9621,3.9464,3.9389,3.9439,3.9464,3.9389,3.9602,3.9765,3.9765,3.9765,3.9765,3.9765,3.9765,3.9765,3.9765,3.9775,3.9775,3.9765,3.9597,3.9483,3.9489,3.9489,3.9489,3.9489,3.9671,3.9765,3.9765,3.9848,3.988,3.988,4.0022,4.0081,4.0061,4.0129,4.0167,4.0177,4.0186,4.0186,4.0177,4.0186,4.0186,4.0186,4.0186,4.0313,4.0481,4.0481,4.0605,4.0778,4.0784,4.0784,4.0784,4.079,4.084,4.0898,4.0898,4.0906,4.092,4.0974,4.0988,4.1028,4.1073,4.1094,4.1094,4.1094,4.1108,4.1094,4.1093,4.1091,4.1091,4.1109,4.1109,4.1109,4.1109,4.1101,4.1109,4.1096,4.1103,4.1049,4.093,4.0917,4.0854,4.0718,4.0706,4.0649,4.0519,4.0496,4.0436,4.0329,4.031,4.0301,4.0301,4.0038,4.0017,4.0196,3.987,3.9501,3.9112,3.8759,3.8462,4.0777,4.071,4.0665,4.0537,4.0449,4.0356,4.0233,4.0304,4.033,4.0101,4.0241,4.0364,4.0276,3.9941,3.9675,3.9648,3.9675,3.9675,3.9648,3.9731,3.9808,3.9808,3.9808,3.9808,3.9808,3.9808,3.9808,3.9808,3.9953,3.9973,3.9808,3.988,3.9878,3.9705,3.9694,3.9694,3.9694,3.9765,3.9819,3.987,4.0014,4.0138,4.0221,4.0394,4.0512,4.0542,4.0576,4.0441,4.0214,4.0339,4.0313,4.0214,4.0339,4.0381,4.0381,4.0381,4.0512,4.068,4.068,4.0733,4.0797,4.0797,4.0831,4.0853,4.0853,4.0902,4.0953,4.0953,4.0964,4.0974,4.0998,4.1032,4.1073,4.1086,4.1103,4.1103,4.1103,4.1097,4.1109,4.1109,4.1109,4.1109,4.1109,4.1109,4.1109,4.1109,4.1037,4.098,4.0981,4.0894,4.082,4.0771,4.0765,4.0712,4.0574,4.0559,4.0512,4.0389,4.0372,4.0345,4.031,4.0128,4.0038,4.0038,3.9773,3.9739,3.9943,3.9402,3.9027,3.8843,3.8491,3.8289,4.0867,4.0767,4.0715,4.0609,4.0534,4.0465,4.033,4.0397,4.0465,4.033,4.0417,4.0496,4.0496,4.0223,3.9969,3.988,3.9897,3.9886,3.988,3.9954,4.0024,4.0024,4.0024,4.0024,4.0024,4.0024,4.0024,4.0024,4.0213,0.0,4.0034,4.0148,4.012,3.9943,3.9932,3.9983,4.0062,4.0072,4.0091,4.0138,4.0281,4.0411,4.0512,4.0666,4.0752,4.0797,4.0797,4.0653,4.0406,4.0554,4.0512,4.0406,4.0554,4.0598,4.0598,4.0598,4.0699,4.0797,4.0797,4.0802,4.0837,4.0837,4.0873,4.0932,4.0932,4.097,4.1025,4.1008,4.1015,4.1034,4.1035,4.1069,4.1109,4.1109,4.1109,4.1109,4.1109,4.1109,4.1109,4.1109,4.1109,4.1085,4.1072,4.107,4.1044,4.1008,4.0893,4.0831,4.0833,4.0759,4.0681,4.0636,4.0629,4.0586,4.0436,4.0427,4.0388,4.031,4.0225,4.0166,4.0166,3.9903,3.9762,3.9762,3.9495,3.9439,3.9563,3.9059,3.8789,3.873,3.8368,3.8209,0.0,0.0,0.0,4.0723,4.0602,4.0512,4.0504,4.0504,4.0504,4.0496,4.0496,4.0496,4.0496,4.0455,4.0316,4.0052,4.0081,4.0091,4.0032,4.0294,4.0496,4.0496,4.0496,4.0496,4.0496,4.0496,4.0496,4.0496,4.0496,4.0496,4.0496,4.0313,4.0214,4.0214,4.0214,4.0321,4.0607,4.0607,4.061,4.0595,4.0661,4.07,4.07,4.0778,4.0797,4.0797,4.0797,4.0797,4.0797,4.0797,4.0797,4.0797,4.0797,4.0797,4.0803,4.0803,4.0803,4.0809,4.0809,4.0846,4.0893,4.0893,4.0953,4.0994,4.0994,4.1057,4.1093,4.102,4.1054,4.1106,4.11,4.1094,4.1109,4.1108,4.1108,4.1108,4.1087,4.1087,4.1087,4.1108,4.1087,4.1074,4.1019,4.0987,4.0944,4.0824,4.0742,4.0685,4.0685,4.0686,4.0636,4.0504,4.0489,4.0436,4.0301,4.0301,4.0301,4.0291,4.0038,3.9903,3.9892,3.9635,3.9502,3.9502,3.9219,3.9106,3.9124,3.8913,3.8789,3.8789,3.8387,3.821,4.1016,0.0,0.0,0.0,0.0,0.0,4.0662,4.0642,4.0609,4.0519,4.0496,4.0496,4.0496,4.0487,4.0449,4.036,4.0334,4.0325,4.037,4.0452,4.0496,4.0496,4.0496,4.0496,4.0496,4.0496,4.0496,0.0,4.0496,4.0496,4.0496,4.0449,4.0425,4.0425,4.0425,4.0484,4.0607,4.0607,4.0624,4.0668,4.0694,4.0733,4.0759,4.079,4.0797,4.0797,4.0797,4.0797,4.0797,4.0797,4.0797,4.0797,4.0797,4.0831,4.0863,4.0863,4.0893,4.0949,4.0949,4.0964,4.0963,4.0963,4.1031,4.1055,4.1002,4.1045,4.1094,4.1074,4.109,4.11,4.1094,4.1091,4.1083,4.1047,4.1039,4.1006,4.0898,4.0887,4.0901,4.1011,4.0942,4.0879,4.0855,4.0857,4.0839,4.0811,4.066,4.057,4.057,4.0462,4.0407,4.0354,4.0354,4.0346,4.031,4.0301,4.0225,4.0017,3.9935,3.9807,3.9623,3.9363,3.9205,3.9205,3.895,3.9053,3.9528,3.8847,3.8507,3.851,3.8508,3.8491,4.1052,4.1022,4.0977,4.0902,0.0,0.0,4.0724,4.0694,4.0655,4.0527,4.0496,4.0496,4.0496,4.0495,4.0502,4.0502,4.0477,4.0468,4.0502,4.0503,4.0496,4.0496,4.0496,4.0496,4.0496,4.0496,4.0496,4.0496,4.0496,4.0496,4.0496,4.0496,4.0496,4.0496,4.0531,4.0554,4.0591,4.0624,4.0686,4.0739,4.0739,4.0752,4.0797,4.0831,4.0834,4.0834,4.0863,4.0883,4.0883,4.0883,4.0877,4.084,4.0863,4.0917,4.0945,4.0945,4.0976,4.099,4.099,4.1028,4.103,4.103,4.1065,4.1089,4.1052,4.1074,4.1109,4.1105,4.1072,4.1051,4.1064,4.1028,4.0961,4.0937,4.0926,4.0894,4.082,4.0776,4.0796,4.089,4.0846,4.0796,4.0751,4.0754,4.0746,4.0674,4.0581,4.0489,4.0473,4.0379,4.031,4.031,4.0301,4.0301,4.0301,4.0196,4.0077,3.9914,3.9693,3.9652,3.9823,3.9574,3.9586,3.9937,3.9792,3.9839,4.0163,3.9309,3.9024,3.9287,3.9356,3.9296,4.1107,4.1058,4.1003,4.1003,4.0917,0.0,4.0746,4.0736,4.07,4.0559,4.053,4.053,4.053,4.0539,4.0527,4.0527,4.0531,4.0515,4.051,4.0503,4.0496,4.0496,4.0496,4.0496,4.0496,4.0496,4.0496,4.0496,4.0496,4.0496,4.0496,4.0496,4.0496,4.0496,4.0565,4.061,4.0595,4.0681,4.0739,4.0815,4.0814,4.082,4.082,4.0883,4.0902,4.0906,4.0963,4.099,4.099,4.1019,4.0963,4.0911,4.0986,4.0997,4.1003,4.1003,4.1025,4.1011,4.1011,4.1066,4.1114,4.1114,4.111,4.1092,4.1091,4.1109,4.1105,4.1095,4.1037,4.0981,4.0981,4.089,4.0806,4.0796,4.0791,4.0791,4.0776,4.0715,4.0706,4.0756,4.0776,4.0745,4.0694,4.0668,4.0648,4.0531,4.0487,4.0458,4.0407,4.0353,4.0308,4.031,4.0263,4.0253,4.0253,4.0083,3.9981,3.9958,3.9588,3.9681,4.0362,4.0148,4.0377,4.1077,4.117,4.1106,4.0918,4.0116,3.9995,4.0492,4.0474,4.0234,4.1102,4.1091,0.0,0.0,0.0,0.0,4.0967,4.0949,4.0906,4.0771,4.0745,4.0745,4.0745,4.0745,4.074,4.074,4.0699,4.0614,4.0526,4.0503,4.0496,4.0496,4.0496,4.0496,4.0496,4.0496,4.0496,4.0496,4.0496,4.0496,4.0496,4.0496,4.0496,4.0496,4.0565,4.061,4.0595,4.0711,4.0809,4.0878,4.0937,4.0968,4.0968,4.0963,4.097,4.097,4.0984,4.099,4.0997,4.1064,4.103,4.0974,4.0987,4.1022,4.1078,4.1078,4.1115,4.1168,4.1168,4.1169,4.1171,4.1171,4.1133,4.1091,4.1109,4.1105,4.1094,4.1033,4.0924,4.0837,4.0837,4.0824,4.0786,4.074,4.0717,4.0687,4.0575,4.0545,4.053,4.0559,4.0566,4.0559,4.0549,4.0531,4.0538,4.0499,4.0458,4.0407,4.0325,4.0316,4.0308,4.031,4.0108,3.9986,3.9986,4.0328,4.044,4.0229,4.0723,4.1011,4.0951,4.0889,4.093,4.1095,4.1566,4.1809,4.1775,4.0903,4.0489,4.051,4.0384,4.0299,0.0,0.0,0.0,4.1109,0.0,0.0,0.0,4.099,4.0951,4.0829,4.081,4.081,4.081,4.081,4.081,4.081,4.0738,4.0687,4.0649,4.0559,4.0496,4.0496,4.0496,4.0496,4.0496,4.0496,4.0496,4.0496,4.0496,4.0534,4.0607,4.0595,4.0616,4.0641,4.0709,4.0757,4.0751,4.0844,4.0925,4.0957,4.0974,4.099,4.0994,4.1025,4.1057,4.1059,4.1099,4.1108,4.1108,4.1142,4.1121,4.1108,4.1108,4.1116,4.1146,4.1146,4.117,4.1191,4.1191,4.1172,4.1152,4.1152,4.1106,4.1048,4.1044,4.1001,4.0938,4.091,4.083,4.0749,4.0749,4.0703,4.0642,4.0609,4.0595,4.0574,4.0512,4.0496,4.0496,4.0496,4.0496,4.0496,4.0496,4.0492,4.0495,4.0495,4.0474,4.0379,4.0177,4.0473,4.0649,4.0517,4.074,4.0896,4.0896,4.102,4.1031,4.0907,4.1151,4.142,4.168,4.1699,4.1867,4.2237,4.2535,4.2649,4.2541,4.1886,4.1594,4.1687,4.139,4.1114,0.0,0.0,0.0,0.0,0.0,4.1081,0.0,0.0,0.0,4.0879,4.0863,4.0863,4.0863,4.0863,4.0863,4.0863,4.0801,0.0,0.0,4.0686,0.0,4.0566,4.0515,4.0512,4.0542,4.0542,4.0537,4.0566,4.0566,4.0615,4.0711,4.0723,4.074,4.0807,4.0871,4.0894,4.0889,4.0977,4.1011,4.1011,4.1022,4.1047,4.1047,4.1087,4.1117,4.1119,4.1171,4.1191,4.1191,4.1191,4.1191,4.1191,4.1191,4.1191,4.1191,4.1191,4.1191,4.1191,4.1191,4.113,4.1087,4.1064,4.1016,4.0961,4.0958,4.0871,4.0781,4.0781,4.0721,4.0655,4.0655,4.0574,4.0496,4.0496,4.0496,4.0496,4.0496,4.0496,4.0496,4.0496,4.065,4.0708,4.0535,4.0465,4.0479,4.0617,4.0616,4.052,4.0408,4.09,4.118,4.0953,4.1475,4.1809,4.1809,4.1708,4.1656,4.1656,4.159,4.1864,4.2506,4.2525,4.2803,4.3411,4.3323,4.316,4.2975,4.2496,4.2456,4.275,4.2198,4.1739,0.0,0.0,0.0,0.0,4.1109,0.0,0.0,0.0,4.1081,4.1078,0.0,4.1076,4.1076,0.0,0.0,4.1076,4.1014,4.097,4.0977,4.0861,4.0776,4.0776,4.0604,4.0549,4.0662,4.0675,4.0705,4.0766,4.0776,4.0781,4.0791,4.0795,4.0794,4.0812,4.0867,4.0909,4.0889,4.104,4.1083,4.1083,4.1146,4.1171,4.1171,4.1191,4.1191,4.1191,4.1191,4.1191,4.1191,4.1191,4.1191,4.1191,4.1191,4.1191,4.1191,4.1191,4.1191,4.1191,4.1122,4.1069,4.0996,4.0933,4.0886,4.082,4.0818,4.0775,4.0718,4.0718,4.0622,4.0519,4.0519,4.0512,4.0496,4.0496,4.0496,4.0496,4.0496,4.0496,4.0496,4.0496,4.1123,4.1412,4.0631,4.0347,4.0463,4.1103,4.1013,4.1071,4.1688,4.1851,4.1857,4.1772,4.1633,4.1549,4.1549,4.196,4.2208,4.2208,4.2835,4.3276,4.3368,4.3368,4.3387,4.3497,4.3014,4.2713,4.256,4.2053,4.1948,4.2259,4.1366,4.0926,0.0,0.0,0.0,0.0,0.0,0.0,4.1109,0.0,4.1109,0.0,0.0,0.0,0.0,0.0,0.0,0.0,4.1033,4.1006,0.0,0.0,4.081,4.081,0.0,0.0,4.0759,4.0765,4.0761,4.0806,4.0805,4.0835,4.0905,4.0926,4.0936,4.0972,4.1002,4.1026,4.1072,4.1124,4.1168,4.1168,4.1191,4.1191,4.1191,4.1191,4.1191,4.1191,4.1191,4.1171,4.1144,4.1144,4.1116,4.1078,4.1078,4.1111,4.1142,4.1106,4.1056,4.1029,4.0989,4.0947,4.087,4.081,4.0756,4.0724,4.0655,4.0603,4.0574,4.0574,4.0549,4.0496,4.0496,4.0496,4.0496,4.0496,4.0496,4.065,4.1143,4.1138,4.1166,4.1683,4.1944,4.1969,4.1607,4.1609,4.1733,4.1959,4.1768,4.1644,4.1753,4.2137,4.234,4.2149,4.2453,4.265,4.265,4.2866,4.3002,4.3002,4.3296,4.3515,4.3515,4.3515,4.348,4.3446,4.2939,4.2616,4.244,4.1617,4.1281,4.1366,4.0972,4.0802,4.1109,0.0,0.0,0.0,0.0,0.0,0.0,0.0,0.0,0.0,0.0,0.0,0.0,0.0,4.1109,4.1109,0.0,4.1033,4.1085,4.0972,4.0887,4.0887,0.0,0.0,0.0,4.0846,4.0859,4.0871,0.0,4.0919,4.1022,4.1035,4.1055,4.1091,4.1112,4.1152,4.1191,4.1191,4.1191,4.1191,4.1191,4.1191,4.1191,4.1171,4.117,4.117,4.1147,4.1116,4.1074,4.1074,4.1033,4.101,4.097,4.0997,4.1033,4.1,4.0938,4.0886,4.0859,4.0805,4.0726,4.0668,4.0642,4.0622,4.0534,4.0496,4.0496,4.0496,4.0496,4.0496,4.0496,4.0689,4.0846,4.0759,4.0935,4.1264,4.1816,4.1781,4.1843,4.2472,4.2617,4.2624,4.2624,4.2534,4.2484,4.2587,4.2372,4.217,4.2136,4.2582,4.2844,4.265,4.3149,4.3515,4.3515,4.3515,4.3515,4.3515,4.3515,4.3515,4.3515,4.3515,4.3428,4.3269,4.2769,4.236,4.2053,4.1168,4.0672,4.0604,4.0604,4.0604,0.0,0.0,0.0,4.1109,0.0,0.0,0.0,0.0,4.1109,0.0,0.0,0.0,4.1109,4.1109,4.1109,4.1109,4.1108,0.0,0.0,4.1088,4.1087,4.1087,4.1028,0.0,0.0,4.0987,4.102,0.0,4.1095,4.1099,4.1106,4.1109,4.1091,4.1092,4.1152,4.1191,4.1191,4.1191,4.1191,4.1191,4.1191,4.1191,4.1191,4.1122,4.1091,4.1109,4.1025,4.1016,4.0994,4.0994,4.0994,4.0984,4.0928,4.0893,4.0906,4.089,4.0893,4.0878,4.0742,4.0655,4.0595,4.0539,4.0504,4.0504,4.0496,4.0496,4.0496,4.0496,4.0496,4.0496,4.0496,4.1123,4.169,4.1437,4.202,4.2571,4.2344,4.2276,4.2276,4.2314,4.2927,4.3457,4.3462,4.2548,4.2071,4.2791,4.2597,4.2642,4.3348,4.3458,4.346,4.346,4.3478,4.3515,4.3515,4.3515,4.3515,4.3515,4.3515,4.3515,4.3515,4.3515,4.3322,4.292,4.2322,4.1725,4.1145,4.0597,4.0238,4.0121,4.0121,4.0121,0.0,0.0,4.1109,4.1109,0.0,0.0,0.0,0.0,0.0,0.0,0.0,0.0,0.0,0.0,4.1093,4.1108,4.1581,4.1953,0.0,4.2461,4.2812,4.2812,4.1786,4.1078,0.0,0.0,0.0,0.0,4.1107,0.0,4.1091,4.1132,4.1172,4.1172,4.1191,4.1191,4.1191,4.1167,4.1122,4.1122,4.1081,4.1068,4.1068,4.1033,4.1025,4.1022,4.1003,4.0963,4.0937,4.0937,4.0917,4.0872,4.0834,4.0806,4.0769,4.0759,4.0746,4.0697,4.059,4.0552,4.0531,4.0516,4.0496,4.0496,4.0496,4.0496,4.0496,4.0496,4.0912,4.1322,4.1137,4.1732,4.2326,4.2064,4.2218,4.2557,4.2995,4.2982,4.3043,4.3597,4.3774,4.382,4.3834,4.3469,4.3334,4.3754,4.3574,4.3437,4.3545,4.3565,4.3548,4.3496,4.3515,4.3515,4.3515,4.3515,4.3392,4.3105,4.3087,4.2958,4.2637,4.2655,4.2577,4.2438,4.1764,4.1286,4.1099,4.0458,4.0121,4.0096,4.0096,4.0096,4.1109,4.1109,0.0,4.1109,4.1109,0.0,4.1109,0.0,0.0,0.0,0.0,0.0,0.0,0.0,0.0,4.1092,4.1835,4.2512,0.0,4.3304,4.3651,4.3681,4.2401,4.1542,4.1558,0.0,4.1073,4.1109,4.1091,4.1112,0.0,0.0,4.1191,4.1169,4.1169,4.1147,4.1139,4.1081,4.1068,4.1068,4.1011,4.099,4.099,4.0986,4.0953,4.0953,4.0941,4.0893,4.0853,4.0853,4.0823,4.0752,4.0752,4.0713,4.0661,4.0661,4.0614,4.0564,4.0512,4.0496,4.0496,4.0496,4.0496,4.0538,4.0743,4.0814,4.0805,4.0736,4.1321,4.1877,4.1396,4.2136,4.2908,4.2685,4.2831,4.3165,4.3602,4.3577,4.3637,4.4171,4.4121,4.4005,4.4005,4.3926,4.3961,4.4136,4.3939,4.3751,4.3615,4.3582,4.3566,4.3496,4.3515,4.3444,4.3304,4.3124,4.2939,4.2673,4.2653,4.2518,4.2198,4.2198,4.2095,4.1888,4.137,4.1001,4.0808,4.0328,4.0096,4.0096,4.0096,4.0096]}]]